[[{"header":{"parameterUnit":"m.s-1","parameterCategory":1,"la1":30.6,"la2":28.766,"lo1":-90.7593,"lo2":-88.6598,"dy":0.0162,"dx":0.0183,"nx":116,"ny":114,"refTime":"2023-06-09T12:00:00:Z","depth":0,"parameterNumber":2,"parameterNumberName":"U-component_of_WINDS"},"data":[0.0,0.0,0.0,0.0,0.0,0.0,0.0,0.0,0.0,0.0,0.0,0.0,0.0,0.0,0.0,0.0,0.0,0.0,0.0,0.0,0.0,0.0,0.0,0.0,0.0,0.0,0.0,0.0,0.0,0.0,0.0,0.0,0.0,0.0,0.0,0.0,0.0,0.0,0.0,0.0,0.0,0.0,0.0,0.0,0.0,0.0,0.0,0.0,0.0,0.0,0.0,0.0,0.0,0.0,0.0,0.0,0.0,0.0,0.0,0.0,0.0,0.0,0.0,0.0,0.0,0.0,0.0,0.0,0.0,0.0,0.0,0.0,0.0,0.0,0.0,0.0,0.0,0.0,0.0,0.0,0.0,0.0,0.0,0.0,0.0,0.0,0.0,0.0,0.0,0.0,0.0,0.0,0.0,0.0,0.0,0.0,0.0,0.0,0.0,0.0,0.0,0.0,0.0,0.0,0.0,0.0,0.0,0.0,0.0,0.0,0.0,0.0,0.0,0.0,0.0,0.0,0.0,0.0,0.0,0.0,0.0,0.0,0.0,0.0,0.0,0.0,0.0,0.0,0.0,0.0,0.0,0.0,0.0,0.0,0.0,0.0,0.0,0.0,0.0,0.0,0.0,0.0,0.0,0.0,0.0,0.0,0.0,0.0,0.0,0.0,0.0,0.0,0.0,0.0,0.0,0.0,0.0,0.0,0.0,0.0,0.0,0.0,0.0,0.0,0.0,0.0,0.0,0.0,0.0,0.0,0.0,0.0,0.0,0.0,0.0,0.0,0.0,0.0,0.0,0.0,0.0,0.0,0.0,0.0,0.0,0.0,0.0,0.0,0.0,0.0,0.0,0.0,0.0,0.0,0.0,0.0,0.0,0.0,0.0,0.0,0.0,0.0,0.0,0.0,0.0,0.0,0.0,0.0,0.0,0.0,0.0,0.0,0.0,0.0,0.0,0.0,0.0,0.0,0.0,0.0,0.0,0.0,0.0,0.0,0.0,0.0,0.0,0.0,0.0,0.0,0.0,0.0,0.0,0.0,0.0,0.0,0.0,0.0,0.0,0.0,0.0,0.0,0.0,0.0,0.0,0.0,0.0,0.0,0.0,0.0,0.0,0.0,0.0,0.0,0.0,0.0,0.0,0.0,0.0,0.0,0.0,0.0,0.0,0.0,0.0,0.0,0.0,0.0,0.0,0.0,0.0,0.0,0.0,0.0,0.0,0.0,0.0,0.0,0.0,0.0,0.0,0.0,0.0,0.0,0.0,0.0,0.0,0.0,0.0,0.0,0.0,0.0,0.0,0.0,0.0,0.0,0.0,0.0,0.0,0.0,0.0,0.0,0.0,0.0,0.0,0.0,0.0,0.0,0.0,0.0,0.0,0.0,0.0,0.0,0.0,0.0,0.0,0.0,0.0,0.0,0.0,0.0,0.0,0.0,0.0,0.0,0.0,0.0,0.0,0.0,0.0,0.0,0.0,0.0,0.0,0.0,0.0,0.0,0.0,0.0,0.0,0.0,0.0,0.0,0.0,0.0,0.0,0.0,0.0,0.0,0.0,0.0,0.0,0.0,0.0,0.0,0.0,0.0,0.0,0.0,0.0,0.0,0.0,0.0,0.0,0.0,0.0,0.0,0.0,0.0,0.0,0.0,0.0,0.0,0.0,0.0,0.0,0.0,0.0,0.0,0.0,0.0,0.0,0.0,0.0,0.0,0.0,0.0,0.0,0.0,0.0,0.0,0.0,0.0,0.0,0.0,0.0,0.0,0.0,0.0,0.0,0.0,0.0,0.0,0.0,0.0,0.0,0.0,0.0,0.0,0.0,0.0,0.0,0.0,0.0,0.0,0.0,0.0,0.0,0.0,0.0,0.0,0.0,0.0,0.0,0.0,0.0,0.0,0.0,0.0,0.0,0.0,0.0,0.0,0.0,0.0,0.0,0.0,0.0,0.0,0.0,0.0,0.0,0.0,0.0,0.0,0.0,0.0,0.0,0.0,0.0,0.0,0.0,0.0,0.0,0.0,0.0,0.0,0.0,0.0,0.0,0.0,0.0,0.0,0.0,0.0,0.0,0.0,0.0,0.0,0.0,0.0,0.0,0.0,0.0,0.0,0.0,0.0,0.0,0.0,0.0,0.0,0.0,0.0,0.0,0.0,0.0,0.0,0.0,0.0,0.0,0.0,0.0,0.0,0.0,0.0,0.0,0.0,0.0,0.0,0.0,0.0,0.0,0.0,0.0,0.0,0.0,0.0,0.0,0.0,0.0,0.0,0.0,0.0,0.0,0.0,0.0,0.0,0.0,0.0,0.0,0.0,0.0,0.0,0.0,0.0,0.0,0.0,0.0,0.0,0.0,0.0,0.0,0.0,0.0,0.0,0.0,0.0,0.0,0.0,0.0,0.0,0.0,0.0,0.0,0.0,0.0,0.0,0.0,0.0,0.0,0.0,0.0,0.0,0.0,0.0,0.0,0.0,0.0,0.0,0.0,0.0,0.0,0.0,0.0,0.0,0.0,0.0,0.0,0.0,0.0,0.0,0.0,0.0,0.0,0.0,0.0,0.0,0.0,0.0,0.0,0.0,0.0,0.0,0.0,0.0,0.0,0.0,0.0,0.0,0.0,0.0,0.0,0.0,0.0,0.0,0.0,0.0,0.0,0.0,0.0,0.0,0.0,0.0,0.0,0.0,0.0,0.0,0.0,0.0,0.0,0.0,0.0,0.0,0.0,0.0,0.0,0.0,0.0,0.0,0.0,0.0,0.0,0.0,0.0,0.0,0.0,0.0,0.0,0.0,0.0,0.0,0.0,0.0,0.0,0.0,0.0,0.0,0.0,0.0,0.0,0.0,0.0,0.0,0.0,0.0,0.0,0.0,0.0,0.0,0.0,0.0,0.0,0.0,0.0,0.0,0.0,0.0,0.0,0.0,0.0,0.0,0.0,0.0,0.0,0.0,0.0,0.0,0.0,0.0,0.0,0.0,0.0,0.0,0.0,0.0,0.0,0.0,0.0,0.0,0.0,0.0,0.0,0.0,0.0,0.0,0.0,0.0,0.0,0.0,0.0,0.0,0.0,0.0,0.0,0.0,0.0,0.0,0.0,0.0,0.0,0.0,0.0,0.0,0.0,0.0,0.0,0.0,0.0,0.0,0.0,0.0,0.0,0.0,0.0,0.0,0.0,0.0,0.0,0.0,0.0,0.0,0.0,0.0,0.0,0.0,0.0,0.0,0.0,0.0,0.0,0.0,0.0,0.0,0.0,0.0,0.0,0.0,0.0,0.0,0.0,0.0,0.0,0.0,0.0,0.0,0.0,0.0,0.0,0.0,0.0,0.0,0.0,0.0,0.0,0.0,0.0,0.0,0.0,0.0,0.0,0.0,0.0,0.0,0.0,0.0,0.0,0.0,0.0,0.0,0.0,0.0,0.0,0.0,0.0,0.0,0.0,0.0,0.0,0.0,0.0,0.0,0.0,0.0,0.0,0.0,0.0,0.0,0.0,0.0,0.0,0.0,0.0,0.0,0.0,0.0,0.0,0.0,0.0,0.0,0.0,0.0,0.0,0.0,0.0,0.0,0.0,0.0,0.0,0.0,0.0,0.0,0.0,0.0,0.0,0.0,0.0,0.0,0.0,0.0,0.0,0.0,0.0,0.0,0.0,0.0,0.0,0.0,0.0,0.0,0.0,0.0,0.0,0.0,0.0,0.0,0.0,0.0,0.0,0.0,0.0,0.0,0.0,0.0,0.0,0.0,0.0,0.0,0.0,0.0,0.0,0.0,0.0,0.0,0.0,0.0,0.0,0.0,0.0,0.0,0.0,0.0,0.0,0.0,0.0,0.0,0.0,0.0,0.0,0.0,0.0,0.0,0.0,0.0,0.0,0.0,0.0,0.0,0.0,0.0,0.0,0.0,0.0,0.0,0.0,0.0,0.0,0.0,0.0,0.0,0.0,0.0,0.0,0.0,0.0,0.0,0.0,0.0,0.0,0.0,0.0,0.0,0.0,0.0,0.0,0.0,0.0,0.0,0.0,0.0,0.0,0.0,0.0,0.0,0.0,0.0,0.0,0.0,0.0,0.0,0.0,0.0,0.0,0.0,0.0,0.0,0.0,0.0,0.0,0.0,0.0,0.0,0.0,0.0,0.0,0.0,0.0,0.0,0.0,0.0,0.0,0.0,0.0,0.0,0.0,0.0,0.0,0.0,0.0,0.0,0.0,0.0,0.0,0.0,0.0,0.0,0.0,0.0,0.0,0.0,0.0,0.0,0.0,0.0,0.0,0.0,0.0,0.0,0.0,0.0,0.0,0.0,0.0,0.0,0.0,0.0,0.0,0.0,0.0,0.0,0.0,0.0,0.0,0.0,0.0,0.0,0.0,0.0,0.0,0.0,0.0,0.0,0.0,0.0,0.0,0.0,0.0,0.0,0.0,0.0,0.0,0.0,0.0,0.0,0.0,0.0,0.0,0.0,0.0,0.0,0.0,0.0,0.0,0.0,0.0,0.0,0.0,0.0,0.0,0.0,0.0,0.0,0.0,0.0,0.0,0.0,0.0,0.0,0.0,0.0,0.0,0.0,0.0,0.0,0.0,0.0,0.0,0.0,0.0,0.0,0.0,0.0,0.0,0.0,0.0,0.0,0.0,0.0,0.0,0.0,0.0,0.0,0.0,0.0,0.0,0.0,0.0,0.0,0.0,0.0,0.0,0.0,0.0,0.0,0.0,0.0,0.0,0.0,0.0,0.0,0.0,0.0,0.0,0.0,0.0,0.0,0.0,0.0,0.0,0.0,0.0,0.0,0.0,0.0,0.0,0.0,0.0,0.0,0.0,0.0,0.0,0.0,0.0,0.0,0.0,0.0,0.0,0.0,0.0,0.0,0.0,0.0,0.0,0.0,0.0,0.0,0.0,0.0,0.0,0.0,0.0,0.0,0.0,0.0,0.0,0.0,0.0,0.0,0.0,0.0,0.0,0.0,0.0,0.0,0.0,0.0,0.0,0.0,0.0,0.0,0.0,0.0,0.0,0.0,0.0,0.0,0.0,0.0,0.0,0.0,0.0,0.0,0.0,0.0,0.0,0.0,0.0,0.0,0.0,0.0,0.0,0.0,0.0,0.0,0.0,0.0,0.0,0.0,0.0,0.0,0.0,0.0,0.0,0.0,0.0,0.0,0.0,0.0,0.0,0.0,0.0,0.0,0.0,0.0,0.0,0.0,0.0,0.0,0.0,0.0,0.0,0.0,0.0,0.0,0.0,0.0,0.0,0.0,0.0,0.0,0.0,0.0,0.0,0.0,0.0,0.0,0.0,0.0,0.0,0.0,0.0,0.0,0.0,0.0,0.0,0.0,0.0,0.0,0.0,0.0,0.0,0.0,0.0,0.0,0.0,0.0,0.0,0.0,0.0,0.0,0.0,0.0,0.0,0.0,0.0,0.0,0.0,0.0,0.0,0.0,0.0,0.0,0.0,0.0,0.0,0.0,0.0,0.0,0.0,0.0,0.0,0.0,0.0,0.0,0.0,0.0,0.0,0.0,0.0,0.0,0.0,0.0,0.0,0.0,0.0,0.0,0.0,0.0,0.0,0.0,0.0,0.0,0.0,0.0,0.0,0.0,0.0,0.0,0.0,0.0,0.0,0.0,0.0,0.0,0.0,0.0,0.0,0.0,0.0,0.0,0.0,0.0,0.0,0.0,0.0,0.0,0.0,0.0,0.0,0.0,0.0,0.0,0.0,0.0,0.0,0.0,0.0,0.0,0.0,0.0,0.0,0.0,0.0,0.0,0.0,0.0,0.0,0.0,0.0,0.0,0.0,0.0,0.0,0.0,0.0,0.0,0.0,0.0,0.0,0.0,0.0,0.0,0.0,0.0,0.0,0.0,0.0,0.0,0.0,0.0,0.0,0.0,0.0,0.0,0.0,0.0,0.0,0.0,0.0,0.0,0.0,0.0,0.0,0.0,0.0,0.0,0.0,0.0,0.0,0.0,0.0,0.0,0.0,0.0,0.0,0.0,0.0,0.0,0.0,0.0,0.0,0.0,0.0,0.0,0.0,0.0,0.0,0.0,0.0,0.0,0.0,0.0,0.0,0.0,0.0,0.0,0.0,0.0,0.0,0.0,-2.437,-2.3849,0.0,0.0,0.0,0.0,0.0,0.0,0.0,0.0,0.0,0.0,0.0,0.0,0.0,0.0,0.0,0.0,0.0,0.0,0.0,0.0,0.0,0.0,0.0,0.0,0.0,0.0,0.0,0.0,0.0,0.0,0.0,0.0,0.0,0.0,0.0,0.0,0.0,0.0,0.0,0.0,0.0,0.0,0.0,0.0,0.0,0.0,0.0,0.0,0.0,0.0,0.0,0.0,0.0,0.0,0.0,0.0,0.0,0.0,0.0,0.0,0.0,0.0,0.0,0.0,0.0,0.0,0.0,0.0,0.0,0.0,0.0,0.0,0.0,0.0,0.0,0.0,0.0,0.0,0.0,0.0,0.0,0.0,0.0,0.0,0.0,0.0,0.0,0.0,0.0,0.0,0.0,0.0,0.0,0.0,0.0,0.0,0.0,0.0,0.0,0.0,0.0,0.0,0.0,0.0,0.0,0.0,0.0,0.0,0.0,0.0,0.0,0.0,0.0,0.0,-2.397,-2.3446,0.0,0.0,0.0,0.0,0.0,0.0,0.0,0.0,0.0,0.0,0.0,0.0,0.0,0.0,0.0,0.0,0.0,0.0,0.0,0.0,0.0,0.0,0.0,0.0,0.0,0.0,0.0,0.0,0.0,0.0,0.0,0.0,0.0,0.0,0.0,0.0,0.0,0.0,0.0,0.0,0.0,0.0,0.0,0.0,0.0,0.0,0.0,0.0,0.0,0.0,0.0,0.0,0.0,0.0,0.0,0.0,0.0,0.0,0.0,0.0,0.0,0.0,0.0,0.0,0.0,0.0,0.0,0.0,0.0,0.0,0.0,0.0,0.0,0.0,0.0,0.0,0.0,0.0,0.0,0.0,0.0,0.0,0.0,0.0,0.0,0.0,0.0,0.0,0.0,0.0,0.0,0.0,0.0,0.0,0.0,0.0,0.0,0.0,0.0,0.0,0.0,0.0,0.0,0.0,0.0,0.0,0.0,0.0,-2.6119,-2.5875,-2.5758,-2.5052,-2.4407,-2.3824,-2.3519,-2.3075,-2.259,-2.259,0.0,0.0,0.0,0.0,0.0,0.0,0.0,0.0,0.0,0.0,0.0,0.0,0.0,0.0,0.0,0.0,0.0,0.0,0.0,0.0,0.0,0.0,0.0,0.0,0.0,0.0,0.0,0.0,0.0,0.0,0.0,0.0,0.0,0.0,0.0,0.0,0.0,0.0,-2.6279,-2.6846,-2.668,-2.5966,0.0,0.0,0.0,0.0,0.0,0.0,0.0,0.0,0.0,0.0,0.0,0.0,0.0,0.0,0.0,0.0,0.0,0.0,0.0,0.0,0.0,0.0,0.0,0.0,0.0,0.0,0.0,0.0,0.0,0.0,0.0,0.0,0.0,0.0,0.0,0.0,0.0,0.0,0.0,0.0,0.0,0.0,0.0,0.0,-2.8268,-2.849,0.0,0.0,0.0,0.0,0.0,0.0,0.0,0.0,0.0,0.0,0.0,0.0,0.0,-2.6521,-2.6499,-2.6154,-2.6154,-2.6499,-2.5406,-2.5087,-2.5347,-2.4274,-2.374,-2.3593,-2.2889,0.0,-2.2176,-2.2176,0.0,0.0,0.0,0.0,0.0,0.0,0.0,0.0,0.0,0.0,0.0,0.0,0.0,0.0,0.0,0.0,0.0,0.0,0.0,0.0,0.0,0.0,0.0,0.0,0.0,0.0,0.0,0.0,0.0,0.0,0.0,0.0,0.0,0.0,0.0,0.0,-2.7037,-2.7109,-2.7353,-2.7563,-2.7639,-2.7612,-2.7487,-2.6568,-2.5053,-2.4418,0.0,0.0,0.0,0.0,0.0,0.0,0.0,0.0,0.0,0.0,0.0,0.0,0.0,0.0,0.0,0.0,0.0,0.0,0.0,0.0,0.0,0.0,0.0,0.0,0.0,0.0,0.0,0.0,0.0,0.0,0.0,0.0,0.0,0.0,0.0,0.0,0.0,0.0,0.0,-2.8235,-2.8509,-2.8587,-2.8651,-2.8716,0.0,0.0,0.0,0.0,0.0,0.0,0.0,0.0,0.0,-2.6773,-2.6658,-2.6487,-2.6188,-2.598,-2.5863,-2.5816,-2.504,-2.4791,-2.4933,-2.3911,-2.3372,-2.3224,-2.2515,-2.2101,-2.1911,-2.1911,-2.2001,-2.2045,0.0,0.0,0.0,0.0,-2.1385,-2.1214,0.0,0.0,0.0,0.0,0.0,0.0,0.0,0.0,0.0,0.0,0.0,0.0,0.0,0.0,0.0,0.0,0.0,0.0,0.0,0.0,0.0,0.0,0.0,0.0,0.0,0.0,0.0,0.0,-2.731,-2.7598,-2.8084,-2.8078,-2.8132,-2.8141,-2.7889,-2.6867,-2.5313,-2.4768,-2.3838,0.0,0.0,0.0,0.0,0.0,0.0,0.0,0.0,0.0,0.0,0.0,0.0,0.0,0.0,0.0,0.0,0.0,0.0,0.0,0.0,0.0,0.0,0.0,0.0,0.0,0.0,0.0,0.0,0.0,0.0,0.0,0.0,0.0,0.0,0.0,0.0,0.0,0.0,-2.8541,-2.8619,-2.8651,-2.8716,-2.8748,0.0,0.0,0.0,0.0,0.0,0.0,-2.7723,-2.749,-2.7235,-2.6943,-2.6726,-2.6452,-2.605,-2.5945,-2.5758,-2.5453,-2.4802,-2.4515,-2.4468,-2.3508,-2.3001,-2.2815,-2.2327,-2.2035,-2.1883,-2.1807,-2.1937,-2.213,-2.1767,-2.201,-2.2478,-2.1896,-2.1569,-2.1419,0.0,0.0,0.0,0.0,0.0,0.0,0.0,0.0,0.0,0.0,0.0,0.0,0.0,0.0,0.0,0.0,0.0,0.0,0.0,0.0,0.0,0.0,0.0,0.0,0.0,0.0,0.0,-2.7207,-2.759,0.0,-2.7461,-2.7886,-2.7504,-2.646,-2.7254,-2.7138,-2.6252,-2.5436,-2.4451,-2.3333,0.0,0.0,0.0,0.0,0.0,0.0,0.0,0.0,0.0,0.0,0.0,0.0,0.0,0.0,0.0,0.0,0.0,0.0,0.0,0.0,0.0,0.0,0.0,0.0,0.0,0.0,0.0,0.0,0.0,0.0,0.0,0.0,0.0,0.0,0.0,0.0,0.0,0.0,0.0,-2.878,-2.8683,0.0,0.0,0.0,0.0,-2.832,-2.8006,-2.7723,-2.7523,-2.7214,-2.6943,-2.6726,-2.6589,-2.6499,-2.6452,-2.6084,-2.5875,-2.5828,-2.4575,-2.3922,-2.3897,-2.2889,-2.244,-2.2402,-2.2187,-2.2101,-2.2063,-2.1883,-2.1599,-2.1245,-2.1245,-2.1023,-2.0703,-2.0478,-2.074,-2.1121,0.0,0.0,0.0,0.0,0.0,0.0,0.0,0.0,0.0,0.0,0.0,0.0,0.0,0.0,0.0,0.0,0.0,0.0,0.0,0.0,0.0,0.0,0.0,0.0,0.0,0.0,0.0,0.0,0.0,0.0,0.0,0.0,0.0,0.0,0.0,0.0,-2.5678,-2.5499,-2.4873,-2.3936,-2.3167,-2.2151,0.0,0.0,0.0,0.0,0.0,0.0,0.0,0.0,0.0,0.0,0.0,0.0,0.0,0.0,0.0,0.0,0.0,0.0,0.0,0.0,0.0,0.0,0.0,0.0,0.0,0.0,0.0,0.0,0.0,0.0,0.0,0.0,0.0,0.0,0.0,0.0,0.0,-2.836,-2.8379,0.0,-2.8398,-2.8249,-2.8164,-2.8164,-2.7822,-2.759,-2.749,-2.718,-2.6977,-2.6909,-2.6636,-2.6245,-2.5746,-2.5453,-2.5064,-2.4611,-2.374,-2.3335,-2.3298,-2.2553,-2.2214,-2.2187,-2.1987,-2.1921,-2.1883,-2.1693,-2.1512,-2.1397,-2.1244,-2.1094,-2.0966,-2.0905,-2.0913,-2.1006,0.0,0.0,0.0,0.0,0.0,0.0,0.0,0.0,0.0,0.0,0.0,0.0,0.0,0.0,0.0,0.0,0.0,0.0,0.0,0.0,0.0,0.0,0.0,0.0,0.0,0.0,0.0,0.0,0.0,0.0,0.0,0.0,0.0,0.0,0.0,0.0,0.0,0.0,0.0,0.0,-2.3711,-2.25,-2.1235,0.0,0.0,0.0,0.0,0.0,0.0,0.0,0.0,0.0,0.0,0.0,0.0,0.0,0.0,0.0,0.0,0.0,0.0,0.0,0.0,0.0,0.0,0.0,0.0,0.0,0.0,0.0,0.0,0.0,0.0,0.0,0.0,0.0,0.0,-2.832,-2.83,-2.8276,-2.8281,-2.83,-2.8235,-2.8085,-2.8,-2.8,-2.7703,-2.749,-2.749,-2.7235,-2.7113,-2.7113,-2.676,-2.6233,-2.5523,-2.5158,-2.4659,-2.397,-2.3261,-2.2889,-2.2889,-2.2459,-2.2227,-2.2238,-2.2239,-2.218,-2.2035,-2.1814,-2.1558,-2.1262,-2.1079,-2.1036,-2.1089,-2.0939,-2.0964,-2.1122,0.0,0.0,0.0,0.0,0.0,0.0,0.0,0.0,0.0,0.0,0.0,0.0,0.0,0.0,0.0,0.0,0.0,0.0,0.0,0.0,0.0,0.0,0.0,0.0,0.0,0.0,0.0,0.0,0.0,0.0,0.0,0.0,0.0,0.0,0.0,0.0,0.0,0.0,0.0,0.0,0.0,0.0,-2.1401,0.0,0.0,0.0,0.0,0.0,0.0,0.0,0.0,0.0,0.0,0.0,0.0,0.0,0.0,0.0,0.0,0.0,0.0,0.0,0.0,0.0,0.0,0.0,0.0,0.0,0.0,0.0,0.0,0.0,0.0,0.0,0.0,0.0,-2.8587,-2.843,-2.8365,-2.8554,-2.8398,-2.8235,-2.8112,-2.7921,-2.7809,-2.7776,-2.7623,-2.749,-2.749,-2.7369,-2.7302,-2.7268,-2.6897,-2.6393,-2.5861,-2.5252,-2.4707,-2.4164,-2.3161,-2.2724,-2.2708,-2.2576,-2.2511,-2.2542,-2.2987,-2.2925,-2.2522,-2.2285,-2.1696,-2.0945,-2.0702,-2.0741,-2.0847,-2.0401,-2.0708,-2.1426,0.0,0.0,0.0,0.0,0.0,0.0,0.0,0.0,0.0,0.0,0.0,0.0,0.0,0.0,0.0,0.0,0.0,0.0,0.0,0.0,0.0,0.0,0.0,0.0,0.0,0.0,0.0,0.0,0.0,0.0,0.0,0.0,0.0,0.0,0.0,0.0,0.0,0.0,0.0,0.0,0.0,0.0,-2.1635,0.0,0.0,0.0,0.0,0.0,0.0,0.0,0.0,0.0,0.0,0.0,0.0,0.0,0.0,0.0,0.0,0.0,0.0,0.0,0.0,0.0,0.0,0.0,0.0,0.0,0.0,0.0,0.0,0.0,0.0,0.0,-2.8392,-2.8554,-2.8398,-2.832,-2.8268,-2.8243,-2.8177,-2.8066,-2.7888,-2.7822,-2.7756,-2.759,-2.7656,-2.7723,-2.7723,-2.7469,-2.7167,-2.685,-2.6383,-2.5723,-2.4909,-2.4575,-2.4141,-2.353,-2.3172,-2.299,-2.2973,-2.3018,-2.2998,-2.3008,-2.3132,-2.3111,-2.2998,-2.2585,-2.2271,-2.2,-2.1292,-2.0763,-2.0448,-2.0913,-2.1299,-2.1629,0.0,0.0,0.0,0.0,0.0,0.0,0.0,0.0,0.0,0.0,0.0,0.0,0.0,0.0,0.0,0.0,0.0,0.0,0.0,0.0,0.0,0.0,0.0,0.0,0.0,0.0,0.0,0.0,0.0,0.0,0.0,0.0,0.0,0.0,0.0,0.0,0.0,0.0,0.0,0.0,0.0,0.0,-2.1644,-2.1912,-2.1432,-2.0581,-2.0881,-2.1156,-2.1397,-2.1617,0.0,0.0,0.0,0.0,0.0,0.0,0.0,0.0,0.0,0.0,0.0,0.0,0.0,0.0,0.0,0.0,0.0,0.0,0.0,0.0,0.0,0.0,0.0,0.0,-2.8471,-2.8554,-2.8444,-2.8352,-2.8268,-2.8183,-2.8183,-2.8085,-2.7809,-2.7809,-2.7723,-2.7523,-2.7623,-2.7656,-2.7656,-2.749,-2.7167,-2.6714,-2.6302,-2.5571,-2.4455,-2.4494,-2.4166,-2.3468,-2.3412,-2.3413,-2.3384,-2.3459,-2.3474,-2.3484,-2.367,-2.3608,-2.331,-2.2836,-2.2312,0.0,0.0,0.0,0.0,0.0,-2.1485,-2.141,0.0,0.0,0.0,0.0,0.0,0.0,0.0,0.0,0.0,0.0,0.0,0.0,0.0,0.0,0.0,0.0,0.0,0.0,0.0,0.0,0.0,0.0,0.0,0.0,0.0,0.0,0.0,0.0,0.0,0.0,0.0,0.0,0.0,0.0,0.0,0.0,0.0,0.0,0.0,0.0,0.0,0.0,-2.1518,-2.1518,-2.0999,-2.0331,-2.0352,-2.0741,-2.1244,-2.1436,0.0,0.0,0.0,0.0,0.0,0.0,0.0,0.0,0.0,0.0,0.0,0.0,0.0,0.0,0.0,0.0,0.0,0.0,0.0,0.0,0.0,0.0,0.0,0.0,-2.8544,-2.8603,-2.8503,-2.84,-2.8368,-2.8333,-2.832,-2.8203,-2.7875,-2.7842,-2.7756,-2.7556,-2.7523,-2.7523,-2.7523,-2.749,0.0,0.0,0.0,-2.5725,-2.4393,-2.4691,-2.4513,-2.3782,-2.3838,-2.3862,-2.3883,-2.395,-2.395,-2.3971,-2.4332,-2.4142,-2.3468,-2.2993,-2.1996,-2.08,-2.0974,-2.1259,-2.1637,-2.1559,-2.1275,-2.0997,0.0,0.0,0.0,0.0,0.0,0.0,0.0,0.0,0.0,0.0,0.0,0.0,0.0,0.0,0.0,0.0,0.0,0.0,0.0,0.0,0.0,0.0,0.0,0.0,0.0,0.0,0.0,0.0,0.0,0.0,0.0,0.0,0.0,0.0,0.0,0.0,0.0,0.0,0.0,0.0,0.0,0.0,-2.1504,-2.151,-2.1288,-2.0969,-2.0828,-2.0984,-2.1244,-2.1436,-2.1883,-2.2402,-2.2665,0.0,0.0,0.0,0.0,0.0,0.0,0.0,0.0,0.0,0.0,0.0,0.0,0.0,0.0,0.0,0.0,0.0,0.0,0.0,0.0,-2.7536,-2.8265,-2.8578,-2.7822,-2.8332,-2.8732,-2.8544,-2.8554,-2.8444,-2.8235,-2.8118,-2.7967,-2.7756,-2.7756,-2.7756,-2.7756,-2.759,-2.7108,-2.623,-2.6125,-2.5513,-2.4337,-2.458,-2.4614,-2.4344,-2.4382,0.0,-2.4372,-2.4377,-2.4373,-2.4373,-2.4466,-2.4102,-2.3461,-2.2998,-2.1935,-2.0607,-2.0175,-2.0254,-2.0594,-2.0583,-2.0518,-2.0473,0.0,0.0,0.0,0.0,0.0,0.0,0.0,0.0,0.0,0.0,0.0,0.0,0.0,0.0,0.0,0.0,0.0,0.0,0.0,0.0,0.0,0.0,0.0,0.0,0.0,0.0,0.0,0.0,0.0,0.0,0.0,0.0,0.0,0.0,0.0,0.0,0.0,0.0,0.0,0.0,0.0,0.0,-2.1205,-2.1205,-2.1205,-2.1167,-2.0858,-2.0935,-2.1205,-2.132,-2.1769,-2.2289,-2.259,-2.2927,-2.3224,0.0,0.0,0.0,0.0,0.0,0.0,0.0,0.0,0.0,0.0,0.0,0.0,0.0,0.0,-2.6119,-2.6358,0.0,-2.6892,-2.7209,-2.7691,-2.7985,-2.7808,-2.8186,-2.8465,-2.8368,-2.8503,-2.8509,-2.832,-2.8197,-2.8013,-2.7822,-2.7723,-2.7774,-2.8063,-2.7988,-2.7593,-2.6827,-2.6664,-2.6007,-2.4713,-2.4959,-2.5003,-2.4836,-2.4854,-2.487,-2.4829,-2.4607,-2.4497,-2.4497,-2.4497,-2.4196,-2.3537,-2.2369,-2.1212,-2.0031,-1.9455,-1.9678,-2.0292,-2.0292,-2.0147,-1.9965,0.0,0.0,0.0,0.0,0.0,0.0,0.0,0.0,0.0,0.0,0.0,0.0,0.0,0.0,0.0,0.0,0.0,0.0,0.0,0.0,0.0,0.0,0.0,0.0,0.0,0.0,0.0,0.0,0.0,0.0,0.0,0.0,0.0,0.0,0.0,0.0,0.0,0.0,0.0,0.0,0.0,0.0,-2.0906,-2.0867,-2.0974,-2.1089,-2.0731,-2.0848,-2.1205,-2.1205,-2.1655,-2.2252,-2.2553,-2.2852,-2.3187,-2.3446,-2.3934,0.0,0.0,0.0,0.0,0.0,0.0,0.0,0.0,-2.605,-2.598,-2.5723,-2.5828,-2.6002,-2.6,-2.6242,-2.6517,-2.6939,-2.7232,-2.7507,-2.7848,-2.8106,-2.8212,-2.8092,-2.8406,-2.8595,-2.856,-2.8264,-2.8086,-2.8047,-2.7794,-2.7902,-2.8381,-2.8387,-2.8071,-2.7459,-2.7209,-2.6473,-2.5178,-2.544,-2.548,-2.5317,-2.5229,-2.52,-2.52,-2.47,-2.4497,-2.4497,-2.4325,-2.397,-2.3387,-2.1748,-2.0583,-1.9729,-1.9325,-1.96,-2.0292,-2.0065,-1.9783,-1.9509,0.0,0.0,0.0,0.0,0.0,0.0,0.0,0.0,0.0,0.0,0.0,0.0,0.0,0.0,0.0,0.0,0.0,0.0,0.0,0.0,0.0,0.0,0.0,0.0,0.0,0.0,0.0,0.0,0.0,0.0,0.0,0.0,0.0,0.0,0.0,0.0,0.0,0.0,0.0,0.0,0.0,0.0,-2.0867,-2.0693,-2.077,-2.0906,-2.0693,-2.0848,-2.1205,-2.1205,-2.1845,-2.2628,-2.2478,-2.2927,-2.3519,-2.3372,0.0,-2.397,-2.3897,-2.4455,-2.5123,-2.5312,-2.5641,-2.6015,0.0,-2.6037,-2.5723,-2.5828,-2.5606,-2.5453,-2.5641,-2.6047,-2.6393,-2.6327,-2.7352,-2.7928,-2.7219,-2.8103,-2.8632,-2.8146,-2.8406,-2.8804,-2.9319,-2.8617,-2.8292,-2.8845,-2.8499,-2.8307,-2.842,-2.8341,-2.7985,-2.7273,-2.6872,-2.6296,-2.5451,-2.5703,-2.5861,-2.5819,-2.539,-2.52,-2.52,-2.47,-2.4497,-2.4454,-2.3624,-2.2994,-2.2492,-2.1704,-2.0988,-2.0501,-2.0411,-2.0374,-2.0201,-1.9288,-1.892,-1.892,0.0,0.0,0.0,0.0,0.0,0.0,0.0,0.0,0.0,0.0,0.0,0.0,0.0,0.0,0.0,0.0,0.0,0.0,0.0,0.0,0.0,0.0,0.0,0.0,0.0,0.0,0.0,0.0,0.0,0.0,0.0,0.0,0.0,0.0,0.0,0.0,0.0,0.0,0.0,0.0,0.0,0.0,-2.0867,-2.0693,-2.0644,-2.0693,-2.0644,-2.077,0.0,0.0,-2.1807,-2.2402,-2.2665,-2.2964,-2.3298,-2.3556,-2.3787,0.0,-2.4718,-2.5028,-2.5312,-2.5851,-2.6141,-2.628,-2.6452,-2.6107,-2.5723,-2.5571,-2.5418,-2.5276,-2.5159,-2.5571,-2.5955,-2.6015,-2.6779,-2.7357,-2.7281,-2.7946,-2.8545,-2.8871,-2.9037,-2.923,-2.9488,-2.9363,-2.9321,-2.9472,-2.8974,-2.8802,-2.9021,-2.8694,-2.8249,-2.7762,-2.7348,-2.6713,-2.5931,-2.588,-2.5895,-2.5895,-2.5411,-2.52,-2.52,-2.47,-2.4454,-2.4282,-2.3754,-2.3038,-2.2183,-2.1739,-2.0943,-2.0002,-2.0002,-1.9783,-1.9417,-1.9325,-1.9279,-1.9234,0.0,0.0,0.0,0.0,0.0,0.0,0.0,0.0,0.0,0.0,0.0,0.0,0.0,0.0,0.0,0.0,0.0,0.0,0.0,0.0,0.0,0.0,0.0,0.0,0.0,0.0,0.0,0.0,0.0,0.0,0.0,0.0,0.0,0.0,0.0,0.0,0.0,0.0,0.0,0.0,0.0,0.0,-2.1051,-2.0848,-2.0799,-2.0838,-2.0644,-2.0809,0.0,0.0,-2.1883,-2.2515,-2.2889,-2.3187,-2.3482,-2.3861,-2.4007,-2.4225,-2.4862,-2.5135,-2.5335,-2.5828,-2.6141,-2.6327,-2.6327,-2.6037,-2.5653,-2.5347,-2.5241,-2.5087,-2.4825,-2.5242,-2.5688,-2.6002,-2.6474,-2.7019,-2.7603,-2.8033,-2.8589,-2.9401,-2.9685,-2.9814,-2.9808,-2.9893,-2.9912,-2.9896,-2.9314,-2.9098,-2.9324,-2.8836,-2.839,-2.8039,-2.751,-2.688,-2.6104,-2.5979,-2.5895,-2.5895,-2.5411,-2.52,-2.52,-2.4668,-2.4282,-2.4067,-2.3851,-2.3091,-2.2104,-2.1872,-2.1033,-1.9866,-1.9866,-1.9592,-1.9242,-1.9509,-1.9509,-1.9325,0.0,0.0,0.0,0.0,0.0,0.0,0.0,0.0,0.0,0.0,0.0,0.0,0.0,0.0,0.0,0.0,0.0,0.0,0.0,0.0,0.0,0.0,0.0,0.0,0.0,0.0,0.0,0.0,0.0,0.0,0.0,0.0,0.0,0.0,0.0,0.0,0.0,0.0,0.0,0.0,0.0,0.0,-2.1474,-2.1244,-2.132,-2.1387,-2.0799,0.0,0.0,0.0,-2.2101,-2.3224,-2.3075,-2.3666,0.0,-2.4236,-2.4345,-2.4345,-2.3824,-2.4311,-2.4945,-2.4622,-2.523,-2.591,-2.591,-2.5606,-2.5312,-2.5312,-2.5052,-2.479,-2.479,-2.5242,-2.5781,-2.6289,-2.6824,-2.741,-2.8013,-2.849,-2.898,-2.9434,-3.0119,-3.0589,-3.0655,-2.9976,-2.9671,-3.0056,-2.9545,-2.9112,-2.8925,-2.8668,-2.8275,-2.7799,-2.7021,-2.6396,-2.5895,-2.5895,-2.5895,-2.5895,-2.5411,-2.52,-2.52,-2.4497,-2.4067,-2.3797,-2.359,-2.296,-2.2104,-2.2094,-2.1481,-2.0591,-2.0591,-2.0464,-2.0201,-1.9783,-1.9279,-1.8827,0.0,0.0,0.0,0.0,0.0,0.0,0.0,0.0,0.0,0.0,0.0,0.0,0.0,0.0,0.0,0.0,0.0,0.0,0.0,0.0,0.0,0.0,0.0,0.0,0.0,0.0,0.0,0.0,0.0,0.0,0.0,0.0,0.0,0.0,0.0,0.0,0.0,0.0,0.0,0.0,0.0,0.0,-2.1883,-2.1655,-2.1655,-2.1655,0.0,0.0,0.0,0.0,-2.2289,-2.2964,-2.3298,-2.3714,-2.4152,-2.4345,-2.4345,-2.4298,-2.4335,-2.4491,-2.4683,-2.4778,-2.517,-2.55,-2.55,-2.523,-2.4957,-2.4957,-2.4897,-2.4825,-2.4933,-2.5288,-2.5816,-2.6508,-2.6939,-2.741,-2.8013,-2.8438,-2.9032,-2.9971,-3.0303,-3.0785,-3.1631,-3.1465,-3.1026,-3.0361,-3.0048,-2.9682,-2.9054,-2.856,-2.8099,-2.7632,-2.7085,-2.6561,-2.6104,-2.599,-2.5895,-2.5895,-2.5411,-2.5031,-2.4743,-2.4497,-2.4196,-2.3797,-2.3711,-2.3276,-2.2564,-2.2388,-2.1847,-2.1123,-2.0943,-2.0637,-2.0292,-2.011,-1.9973,-1.97,0.0,0.0,0.0,0.0,0.0,0.0,0.0,0.0,0.0,0.0,0.0,0.0,0.0,0.0,0.0,0.0,0.0,0.0,0.0,0.0,0.0,0.0,0.0,0.0,0.0,0.0,0.0,0.0,0.0,0.0,0.0,0.0,0.0,0.0,0.0,0.0,0.0,0.0,0.0,0.0,0.0,0.0,-2.2176,-2.1997,-2.1959,0.0,0.0,0.0,0.0,-2.2073,-2.2553,-2.3187,-2.3593,-2.4032,-2.4394,-2.449,-2.4454,-2.437,-2.4227,-2.425,-2.4334,-2.4443,-2.4778,-2.504,-2.5111,-2.4957,-2.479,-2.479,-2.4849,-2.4909,-2.5087,-2.5511,-2.6117,-2.685,-2.7242,-2.761,-2.821,-2.849,-2.9114,-3.0269,-3.0439,-3.0853,-3.1901,-3.2132,-3.1767,-3.071,-3.0419,-2.996,-2.9131,-2.8645,-2.8127,-2.7522,-2.7085,-2.6685,-2.6199,-2.5979,-2.5812,-2.5644,-2.5327,-2.4956,-2.4497,-2.4411,-2.4196,-2.3797,-2.3711,-2.3276,-2.252,-2.2246,-2.1758,-2.1087,-2.0862,-2.0555,-2.0292,-2.0292,-2.0292,-2.0201,0.0,0.0,0.0,0.0,0.0,0.0,0.0,0.0,0.0,0.0,0.0,0.0,0.0,0.0,0.0,0.0,0.0,0.0,0.0,0.0,0.0,0.0,0.0,0.0,0.0,0.0,0.0,0.0,0.0,0.0,0.0,0.0,0.0,0.0,0.0,0.0,0.0,0.0,0.0,0.0,0.0,0.0,-2.2402,-2.2187,0.0,0.0,0.0,0.0,0.0,0.0,-2.2927,-2.3934,-2.397,-2.4563,-2.517,-2.4706,-2.4646,-2.4574,-2.3629,-2.3629,-2.3897,-2.3703,-2.408,-2.4574,-2.4754,-2.479,-2.4754,-2.479,-2.4897,-2.5087,-2.53,-2.5896,-2.6633,-2.739,-2.7643,-2.7954,-2.8522,-2.8716,-2.9198,-3.0228,-3.0501,-3.0847,-3.1506,-3.1959,-3.1877,-3.1099,-3.0672,-3.005,-2.917,-2.8922,-2.8435,-2.7603,-2.7126,-2.6685,-2.624,-2.6032,-2.5675,-2.52,-2.52,-2.4956,-2.4497,-2.4282,-2.4067,-2.3797,-2.358,-2.3003,-2.2148,-2.1837,-2.1302,-2.0682,-2.0464,-2.0382,-2.0382,-2.0382,-2.0382,-2.0382,0.0,0.0,0.0,0.0,0.0,0.0,0.0,0.0,0.0,0.0,0.0,0.0,0.0,0.0,0.0,0.0,0.0,0.0,0.0,0.0,0.0,0.0,0.0,0.0,0.0,0.0,0.0,0.0,0.0,0.0,0.0,0.0,0.0,0.0,0.0,0.0,0.0,0.0,0.0,0.0,0.0,0.0,-2.2815,0.0,0.0,0.0,0.0,0.0,0.0,0.0,-2.3482,-2.4418,-2.4694,-2.4969,-2.5182,-2.5288,-2.4981,-2.4562,-2.4407,-2.4432,-2.4443,-2.4298,-2.449,-2.4754,-2.4801,-2.4574,-2.4381,-2.4538,-2.479,-2.5182,-2.5779,-2.5978,-2.644,-2.7736,-2.7623,-2.763,-2.849,-2.8619,-2.8904,-2.9618,-3.0154,-3.069,-3.1329,-3.173,-3.1817,-3.1485,-3.1061,-3.047,-2.96,-2.9223,-2.8764,-2.8259,-2.7522,-2.691,-2.652,-2.6104,-2.5675,-2.52,-2.52,-2.4956,-2.4497,-2.4464,-2.4196,-2.3797,-2.3754,-2.3396,-2.2828,-2.2378,-2.2122,-2.19,-2.1508,-2.1329,-2.1329,-2.1329,-2.1329,-2.1329,0.0,0.0,0.0,0.0,0.0,0.0,0.0,0.0,0.0,0.0,0.0,0.0,0.0,0.0,0.0,0.0,0.0,0.0,0.0,0.0,0.0,0.0,0.0,0.0,0.0,0.0,0.0,0.0,0.0,0.0,0.0,0.0,0.0,0.0,0.0,0.0,0.0,0.0,0.0,0.0,0.0,0.0,0.0,0.0,0.0,0.0,0.0,0.0,0.0,0.0,-2.4152,-2.4706,-2.5076,-2.5253,-2.53,-2.5265,-2.5052,-2.4826,-2.4659,-2.4647,-2.4719,-2.4718,-2.479,-2.4873,-2.4873,-2.4718,-2.4575,-2.4598,-2.5052,-2.5488,-2.5826,-2.6358,-2.6918,-2.7523,-2.759,-2.7789,-2.8295,-2.8373,-2.8762,-2.9781,-3.0188,-3.0744,-3.1599,-3.1906,-3.189,-3.1609,-3.1323,-3.0697,-2.9742,-2.9484,-2.9,-2.8283,-2.7563,-2.691,-2.6313,-2.6021,-2.5675,-2.52,-2.52,-2.4956,-2.4497,-2.4497,-2.4239,-2.3797,-2.3797,-2.3527,-2.3047,-2.2564,-2.2397,-2.2353,-2.1865,-2.1696,-2.1696,-2.1696,-2.1696,-2.1696,0.0,0.0,0.0,0.0,0.0,0.0,0.0,0.0,0.0,0.0,0.0,0.0,0.0,0.0,0.0,0.0,0.0,0.0,0.0,0.0,0.0,0.0,0.0,0.0,0.0,0.0,0.0,0.0,0.0,0.0,0.0,0.0,0.0,0.0,0.0,0.0,0.0,0.0,0.0,0.0,0.0,0.0,0.0,0.0,0.0,0.0,0.0,0.0,0.0,0.0,-2.4825,-2.4885,-2.5218,-2.5453,-2.5512,-2.5064,-2.5159,-2.5276,-2.4767,-2.4767,-2.4933,-2.5075,-2.5123,-2.5123,-2.5123,-2.5087,-2.5028,-2.4921,-2.5419,-2.5863,-2.5816,-2.6824,-2.7577,-2.7276,-2.7689,-2.8112,-2.8145,-2.8177,-2.8691,-3.0113,-3.0364,-3.0839,-3.1951,-3.2092,-3.1963,-3.1646,-3.1397,-3.0848,-2.9871,-2.9742,-2.9133,-2.7841,-2.736,-2.6745,-2.5895,-2.5895,-2.5675,-2.52,-2.52,-2.4956,-2.4497,-2.4497,-2.4239,-2.3797,-2.3797,-2.3527,-2.3057,-2.2618,-2.2432,-2.2353,-2.1909,-2.1731,-2.1696,-2.1696,-2.1696,-2.1696,0.0,0.0,0.0,0.0,0.0,0.0,0.0,0.0,0.0,0.0,-3.2897,-3.2816,0.0,0.0,0.0,0.0,0.0,0.0,0.0,0.0,0.0,0.0,0.0,0.0,0.0,0.0,0.0,0.0,0.0,0.0,0.0,0.0,0.0,0.0,0.0,0.0,0.0,0.0,0.0,0.0,0.0,0.0,0.0,0.0,0.0,0.0,0.0,0.0,0.0,0.0,-2.4921,-2.5123,-2.543,-2.5571,-2.5606,-2.5688,-2.5758,-2.5723,-2.5465,-2.5688,-2.591,-2.5793,-2.5758,-2.5758,-2.5758,-2.55,-2.5276,-2.543,-2.5688,-2.6107,-2.679,-2.7027,-2.741,-2.8183,-2.821,-2.821,-2.8471,-2.849,-2.8793,-2.955,-3.0093,-3.069,-3.1382,-3.1608,-3.1683,-3.1609,-3.1261,-3.0823,-3.0317,-3.0075,-2.9133,-2.74,-2.691,-2.6437,-2.5906,-2.5895,-2.5675,-2.52,-2.52,-2.4956,-2.4497,-2.4497,-2.4239,-2.3797,-2.3797,0.0,-2.3091,-2.2838,-2.2618,-2.2397,-2.2141,-2.1919,-2.1696,-2.1696,-2.1696,-2.1696,0.0,0.0,0.0,0.0,0.0,0.0,0.0,-3.3203,-3.3203,-3.3203,-3.315,-3.3058,-3.2912,-3.3032,0.0,0.0,0.0,0.0,0.0,0.0,0.0,0.0,0.0,0.0,0.0,0.0,-3.0127,-2.9974,0.0,0.0,0.0,0.0,0.0,0.0,0.0,0.0,0.0,0.0,0.0,0.0,0.0,0.0,0.0,0.0,0.0,0.0,0.0,0.0,0.0,0.0,-2.5641,-2.5676,-2.5606,-2.5758,-2.5875,-2.5793,-2.5875,-2.598,-2.5676,-2.584,-2.6062,-2.6062,-2.6062,-2.6062,-2.6062,-2.591,-2.5758,-2.5758,-2.6037,-2.6471,-2.7012,-2.7524,-2.8004,-2.8428,-2.8368,-2.8318,-2.8472,-2.8219,-2.8452,-2.9653,-3.0065,-3.0605,-3.1523,-3.1692,-3.1669,-3.1471,-3.1373,-3.1061,-3.0444,-2.9857,-2.8897,-2.758,-2.7103,-2.6592,-2.5906,-2.5895,-2.5728,-2.5422,-2.5285,-2.5031,-2.47,-2.4583,-2.4325,-2.398,-2.3841,-2.3624,-2.3276,-2.2935,-2.2618,-2.2397,-2.2185,-2.1919,-2.1696,-2.1696,-2.1696,-2.1696,0.0,0.0,0.0,0.0,0.0,0.0,0.0,-3.3388,-3.3309,-3.3309,-3.3309,-3.3229,-3.3005,-3.3085,-3.3096,0.0,0.0,0.0,0.0,0.0,0.0,0.0,0.0,0.0,0.0,0.0,0.0,-3.0142,-2.973,0.0,0.0,0.0,0.0,0.0,-2.6667,0.0,0.0,0.0,0.0,0.0,0.0,0.0,0.0,0.0,0.0,0.0,0.0,0.0,0.0,0.0,-2.6358,-2.6267,-2.5955,-2.6002,-2.6131,-2.5758,-2.5945,-2.6166,-2.5758,-2.5828,-2.605,-2.6166,-2.6236,-2.627,-2.627,-2.627,-2.6236,-2.605,-2.6383,-2.6784,-2.7005,-2.7825,-2.8481,-2.8489,-2.8499,-2.8523,-2.8523,-2.8129,-2.8437,-2.9933,-3.0123,-3.0608,-3.1769,-3.1853,-3.1706,-3.131,-3.1397,-3.1187,-3.0482,-2.947,-2.8554,-2.7799,-2.7255,-2.6622,-2.5895,-2.5895,-2.5822,-2.5601,-2.5338,-2.5073,-2.4903,-2.4615,-2.4368,-2.4206,-2.398,-2.3764,-2.346,-2.311,-2.275,-2.2441,-2.2264,-2.2008,-2.1785,-2.1741,-2.1696,-2.1696,0.0,0.0,0.0,0.0,0.0,0.0,0.0,-3.3688,-3.3309,-3.3309,-3.3309,-3.3309,-3.3282,-3.3282,-3.3282,0.0,0.0,0.0,0.0,0.0,0.0,0.0,0.0,0.0,0.0,0.0,0.0,-3.0296,-3.0221,0.0,0.0,0.0,0.0,0.0,0.0,-2.6884,-2.6358,0.0,0.0,0.0,0.0,0.0,0.0,0.0,0.0,0.0,0.0,0.0,0.0,0.0,0.0,-2.6645,-2.6611,-2.643,-2.6166,-2.5945,-2.6154,-2.6396,-2.598,-2.6154,-2.6396,-2.6236,-2.6339,-2.6465,-2.6465,-2.6465,-2.6465,-2.6465,-2.6589,-2.6807,-2.7198,-2.7481,-2.7885,-2.8722,-2.887,-2.8843,-2.8843,-2.8959,-2.9308,-3.0021,-3.0254,-3.0775,-3.1806,-3.172,-3.1522,-3.131,-3.1136,-3.0949,-3.0698,-2.9106,-2.8051,-2.7799,-2.6828,-2.6188,-2.5895,-2.5895,-2.5822,-2.5601,-2.5338,-2.5073,-2.4903,-2.4615,-2.4368,-2.4206,-2.4153,-2.3894,0.0,-2.346,-2.3154,-2.2759,-2.2485,-2.2264,-2.2052,-2.1785,-2.1696,-2.1696,0.0,0.0,0.0,0.0,0.0,0.0,-3.4627,-3.4271,-3.3874,-3.3472,-3.3503,-3.3477,-3.3335,-3.3372,-3.3372,-3.3309,0.0,0.0,0.0,0.0,0.0,0.0,0.0,0.0,0.0,0.0,-2.9842,-2.9159,-2.9563,0.0,0.0,0.0,0.0,0.0,0.0,-2.7543,-2.7209,0.0,0.0,0.0,0.0,0.0,0.0,0.0,0.0,0.0,0.0,0.0,-2.6884,-2.7007,-2.7121,0.0,-2.71,-2.7032,0.0,0.0,-2.6508,-2.6679,-2.6072,-2.6107,-2.6314,-2.6236,-2.627,-2.6361,-2.6555,-2.6624,-2.6624,-2.6624,-2.6863,-2.7169,-2.7584,-2.7876,-2.8381,-2.9451,0.0,0.0,-2.9144,-2.8897,-2.8987,-2.9709,-2.9859,-3.0326,-3.1426,-3.1471,-3.1323,-3.1123,-3.1061,-3.0911,-3.0698,-3.0062,-2.9211,-2.8199,-2.7609,-2.6869,-2.5895,-2.5895,-2.5864,-2.577,-2.538,-2.5158,-2.5073,-2.4658,-2.4454,-2.4368,-2.4239,-2.398,0.0,-2.3547,-2.3242,-2.275,-2.2485,-2.2264,-2.2052,-2.1785,-2.1696,-2.1696,0.0,0.0,0.0,0.0,0.0,-3.561,-3.5155,-3.4814,-3.4351,-3.365,-3.3658,-3.3633,-3.345,-3.3503,-3.3529,-3.3424,-3.3229,0.0,0.0,0.0,0.0,0.0,0.0,0.0,0.0,0.0,-2.9871,-2.9117,-2.9595,-2.956,0.0,0.0,-2.9324,-2.8926,0.0,0.0,0.0,0.0,0.0,0.0,0.0,0.0,0.0,0.0,0.0,0.0,0.0,0.0,0.0,0.0,0.0,0.0,0.0,0.0,0.0,0.0,-2.6905,-2.7019,-2.6577,-2.6474,-2.6543,-2.6589,-2.6602,-2.6671,-2.6952,-2.6952,-2.6918,-2.7019,-2.7167,-2.7449,-2.795,-2.8295,-2.8869,0.0,0.0,-2.9482,-2.9746,-2.9223,-2.91,-2.994,-3.002,-3.0334,-3.1217,-3.1235,-3.1161,-3.1024,-3.0986,-3.0911,-3.0698,-3.0698,-3.005,-2.8664,-2.8199,-2.7418,-2.6229,-2.6188,-2.6104,-2.5895,-2.5506,-2.5285,-2.52,-2.4786,-2.4583,-2.4497,-2.4325,-2.411,0.0,-2.3667,-2.3319,-2.2882,-2.2618,-2.2397,-2.2141,-2.1919,-2.1785,-2.1696,0.0,0.0,0.0,0.0,0.0,0.0,-3.5874,-3.5214,-3.4536,-3.379,-3.3694,-3.3694,-3.371,-3.3694,-3.3694,-3.371,-3.3319,0.0,0.0,0.0,0.0,0.0,0.0,0.0,0.0,0.0,-3.0969,-3.0777,-3.0777,-3.0628,-3.0282,-3.0158,-2.9974,-2.9777,0.0,0.0,0.0,0.0,0.0,0.0,0.0,0.0,0.0,0.0,0.0,0.0,0.0,0.0,0.0,0.0,0.0,0.0,0.0,0.0,0.0,0.0,-2.741,-2.7369,-2.7689,-2.7523,-2.7323,-2.7451,-2.751,-2.7523,-2.7756,-2.7523,-2.7403,-2.7723,-2.7523,-2.7504,-2.8281,-2.857,-2.9069,-3.023,0.0,0.0,-3.0846,-3.0276,-3.0094,-3.0895,-3.0989,-3.1087,-3.1294,-3.1123,-3.0986,-3.0986,-3.0986,-3.0911,-3.0698,-3.0698,-3.0216,-2.9121,-2.8239,-2.7499,-2.6891,-2.6891,-2.6561,-2.5895,-2.5686,-2.5464,-2.52,-2.4988,-2.4743,-2.4497,-2.4497,-2.4229,0.0,-2.3797,-2.3537,-2.3101,-2.2882,-2.2618,-2.2353,-2.2185,-2.1919,-2.1696,0.0,0.0,0.0,0.0,0.0,0.0,0.0,-3.6125,-3.5364,-3.4683,-3.423,-3.3899,-3.372,-3.3771,-3.3797,-3.371,-3.3565,0.0,0.0,0.0,0.0,0.0,0.0,0.0,0.0,0.0,-3.0359,-2.9519,-2.9944,-3.0046,-2.9841,-3.0094,-3.0068,-2.9808,-2.9685,-2.9435,0.0,0.0,0.0,0.0,0.0,0.0,0.0,0.0,0.0,0.0,0.0,0.0,0.0,0.0,0.0,0.0,0.0,0.0,0.0,0.0,0.0,0.0,-2.7842,-2.7776,-2.7776,-2.7829,-2.7842,-2.7875,-2.8105,-2.7941,-2.7809,-2.7908,-2.7973,-2.806,-2.8279,-2.8952,-2.9591,-2.9977,-3.0303,0.0,0.0,-3.0113,-3.0046,-3.0336,-3.0734,-3.1014,-3.1073,-3.1061,-3.0949,-3.0811,-3.0811,-3.066,-3.0318,-3.0419,-3.0088,-2.9121,-2.8846,-2.8171,-2.7115,-2.7115,-2.6869,-2.6354,-2.5979,-2.5675,-2.5411,-2.5031,-2.4743,-2.4497,-2.4497,-2.4325,-2.4067,-2.3884,-2.3624,-2.3329,-2.2925,-2.2618,-2.2397,-2.2185,-2.1919,-2.1696,0.0,0.0,0.0,0.0,0.0,0.0,0.0,-3.6615,-3.5862,-3.5178,-3.4503,-3.4025,-3.3873,-3.3924,-3.3949,-3.3848,-3.3848,0.0,0.0,0.0,0.0,0.0,0.0,0.0,0.0,-3.1179,-3.0673,-2.9806,-3.0219,-3.0309,-3.006,-3.0349,-3.0357,-3.0099,-3.0099,-2.9915,0.0,0.0,0.0,0.0,0.0,0.0,-2.8085,0.0,0.0,0.0,0.0,0.0,0.0,0.0,0.0,0.0,0.0,0.0,0.0,0.0,-2.8766,-2.856,0.0,-2.8365,-2.832,-2.8495,-2.8463,-2.8463,-2.8656,-2.8495,-2.8352,-2.8495,-2.8463,-2.8498,-2.8831,-2.9619,-3.0311,-3.0565,-3.0831,-3.091,-3.0649,-3.0314,-3.0231,-3.0543,-3.0727,-3.0874,-3.0874,-3.0836,-3.0723,-3.0609,-3.0584,-3.0495,-3.0228,-3.033,-3.0165,-2.96,-2.9367,-2.87,-2.7592,-2.7389,-2.7074,-2.6603,-2.6313,-2.5926,-2.5496,-2.5242,-2.4914,-2.4497,-2.4497,-2.4378,0.0,-2.3927,-2.3667,-2.346,-2.3057,-2.275,-2.253,-2.2318,-2.2052,-2.183,0.0,0.0,0.0,0.0,0.0,0.0,0.0,-3.6821,-3.6108,-3.5364,-3.4635,-3.4165,-3.4101,-3.4101,-3.4126,-3.4101,0.0,0.0,0.0,0.0,0.0,0.0,0.0,0.0,0.0,-3.2038,-3.1783,-3.1307,-3.1307,-3.1146,-3.0821,-3.0821,-3.0762,-3.0598,-3.0642,-3.0462,0.0,0.0,0.0,0.0,0.0,0.0,0.0,0.0,0.0,0.0,0.0,0.0,0.0,0.0,0.0,0.0,0.0,0.0,0.0,0.0,0.0,0.0,0.0,-2.9149,-2.8931,-2.932,-2.9257,-2.9194,-2.9383,-2.9103,0.0,-2.9306,-2.9004,-2.8912,-2.9725,-3.0472,-3.1108,-3.1661,-3.1471,-3.1318,-3.1542,-3.086,-3.0556,-3.1177,-3.0911,-3.0698,-3.0698,-3.0533,-3.0406,-3.0406,-3.0406,-3.0406,-3.0368,-3.0368,-3.0368,-3.0368,-2.9729,-2.9028,-2.8287,-2.7805,-2.7278,-2.6685,-2.6644,-2.626,-2.5538,-2.5538,-2.5158,0.0,-2.454,-2.4411,-2.4249,-2.3927,-2.3711,-2.3503,-2.3232,-2.3013,-2.2794,-2.253,-2.2264,-2.2052,0.0,0.0,0.0,0.0,0.0,0.0,0.0,0.0,0.0,0.0,-3.5396,-3.4716,-3.4165,-3.4201,-3.4226,0.0,0.0,0.0,0.0,0.0,0.0,0.0,0.0,0.0,0.0,-3.241,-3.2035,-3.1466,-3.1365,-3.1205,-3.1014,-3.1014,-3.0925,-3.0762,-3.0925,-3.0925,0.0,0.0,0.0,0.0,0.0,0.0,0.0,0.0,0.0,0.0,-2.9296,-2.9279,0.0,0.0,0.0,0.0,0.0,0.0,0.0,0.0,-2.9194,-2.9352,-2.9383,0.0,-2.9306,-2.9509,-2.9509,-2.9477,0.0,-2.9415,-2.9289,-2.9383,-2.9289,-2.9299,-2.9596,-3.0666,-3.1429,-3.1217,-3.1527,-3.1687,-3.134,-3.0884,-3.0649,-3.081,-3.0773,-3.0698,-3.0698,-3.066,-3.0571,-3.0406,-3.0406,-3.033,-3.019,-3.019,-3.019,-3.019,-2.9664,-2.9302,-2.9106,-2.8526,-2.803,-2.7598,-2.7056,-2.6479,-2.5812,-2.5812,-2.5422,-2.4828,-2.4828,-2.4786,-2.47,-2.4282,-2.4077,-2.398,-2.358,-2.3232,-2.3013,-2.2794,-2.2451,-2.2097,0.0,0.0,0.0,0.0,0.0,0.0,0.0,0.0,0.0,0.0,0.0,0.0,0.0,0.0,0.0,0.0,0.0,0.0,0.0,0.0,0.0,0.0,0.0,0.0,-3.3049,-3.2888,-3.2508,-3.1908,-3.1796,-3.1567,-3.1292,-3.1205,-3.1102,-3.0955,-3.1043,-3.1117,0.0,0.0,0.0,0.0,-3.0672,0.0,0.0,0.0,0.0,0.0,-2.9931,-2.9901,0.0,-2.9623,-2.9529,-2.9557,0.0,0.0,0.0,0.0,-2.9446,-2.9557,-2.9509,-2.9477,-2.9509,-2.9571,-2.9602,-2.9602,-2.9602,0.0,-2.9897,-2.9897,-3.0135,-3.0311,-3.0189,-3.1005,-3.164,-3.1364,-3.1382,-3.1364,-3.1103,-3.0927,-3.0871,-3.0947,-3.0874,-3.0736,-3.047,-3.0432,-3.0381,-3.0254,-3.0254,-3.0254,-3.0228,-3.0228,-3.0267,-3.0381,-3.0139,-2.9819,-2.9419,-2.8816,-2.8391,-2.8163,-2.7829,-2.7249,-2.6498,-2.6415,-2.5915,-2.5158,-2.5073,-2.4988,-2.4861,-2.4497,-2.4282,-2.4163,-2.3677,-2.3406,-2.3232,-2.2935,-2.2627,-2.2407,0.0,0.0,0.0,0.0,0.0,0.0,0.0,0.0,0.0,0.0,0.0,0.0,0.0,0.0,0.0,0.0,0.0,0.0,0.0,0.0,0.0,0.0,0.0,-3.3658,-3.3398,-3.3346,-3.3038,-3.2465,-3.2302,-3.1994,-3.1581,-3.1423,-3.1263,-3.1161,-3.1161,-3.1161,0.0,0.0,-3.119,-3.1161,-3.1338,0.0,0.0,0.0,0.0,0.0,0.0,0.0,0.0,-3.0334,-3.014,-3.016,-2.9976,0.0,0.0,0.0,0.0,0.0,-2.9758,-2.9696,-2.9665,-2.9602,-2.9602,-2.9602,-2.9602,0.0,0.0,0.0,0.0,0.0,-3.0899,-3.1334,-3.1759,-3.1608,-3.1184,-3.0914,-3.0963,-3.1072,-3.1177,-3.1281,-3.1123,-3.0761,-3.019,-3.0113,-3.0113,-3.0152,-3.0152,-3.0228,-3.0444,-3.0406,-3.0482,-3.0698,-3.066,-3.0292,-2.9613,-2.8973,-2.863,-2.863,-2.855,-2.8059,-2.7174,-2.701,-2.6445,-2.5538,0.0,0.0,-2.4999,-2.4658,-2.4454,-2.4239,-2.3807,-2.359,-2.3503,-2.3067,-2.2838,-2.2715,0.0,0.0,0.0,0.0,0.0,0.0,0.0,0.0,0.0,0.0,0.0,0.0,0.0,0.0,0.0,0.0,0.0,0.0,0.0,0.0,0.0,0.0,-3.4176,-3.3975,-3.3797,-3.3581,-3.3235,-3.2749,-3.237,-3.2122,-3.1925,-3.1611,-3.1453,-3.1453,-3.1453,-3.1453,-3.1453,-3.1612,-3.1597,-3.1511,-3.2372,0.0,0.0,0.0,0.0,0.0,0.0,0.0,0.0,-3.1748,-3.1155,-3.0507,-3.0477,0.0,0.0,0.0,0.0,0.0,-3.019,-3.0097,-2.9958,-2.9665,-2.9602,-2.9602,-2.9602,0.0,0.0,0.0,0.0,0.0,0.0,-3.1603,-3.2021,-3.1098,-3.1191,-3.1385,-3.1411,-3.1554,-3.1559,-3.1334,-3.1123,-3.0823,-3.0406,-3.019,-3.019,-3.033,-3.0368,-3.0444,-3.066,-3.0482,-3.0482,-3.0698,-3.0533,-3.0444,-3.0495,-2.9664,-2.9263,-2.9263,-2.8736,-2.8059,-2.7185,-2.7185,-2.6663,-2.5812,0.0,-2.5517,-2.5475,-2.5041,-2.4818,-2.4743,-2.4282,-2.3937,-2.3711,-2.3493,-2.3154,-2.2715,0.0,0.0,0.0,0.0,0.0,0.0,0.0,0.0,0.0,0.0,0.0,0.0,0.0,0.0,0.0,0.0,0.0,0.0,0.0,0.0,0.0,0.0,-3.4423,-3.425,-3.4126,-3.4,-3.3678,-3.3182,-3.2873,-3.2563,-3.2219,-3.1896,-3.1769,-3.1769,-3.1769,-3.1892,-3.2165,-3.2268,-3.2478,-3.2795,0.0,0.0,0.0,0.0,0.0,0.0,0.0,0.0,0.0,0.0,-3.1738,-3.1058,-3.0881,0.0,0.0,0.0,0.0,0.0,-3.0249,-3.0189,-3.0158,-2.9927,-2.9865,-2.9865,-2.9865,0.0,0.0,0.0,0.0,0.0,0.0,-3.1862,-3.1896,-3.0942,-3.1369,-3.1854,-3.1979,-3.2246,-3.22,-3.1492,-3.1408,-3.1123,-3.0343,-3.0343,-3.0419,-3.0406,-3.0482,-3.0571,-3.0533,-3.0533,-3.0609,-3.0698,-3.0723,-3.0761,-3.0836,-3.0241,-2.9896,-2.978,-2.9378,-2.8855,-2.8195,-2.7742,-2.7174,-2.658,0.0,-2.5686,-2.5559,-2.5391,-2.5211,-2.5031,-2.454,-2.4368,-2.4391,-2.4305,-2.409,-2.382,0.0,0.0,0.0,0.0,0.0,0.0,0.0,0.0,0.0,0.0,0.0,0.0,0.0,0.0,0.0,0.0,0.0,0.0,0.0,0.0,-3.5308,-3.4772,-3.4618,-3.4497,-3.4399,-3.4325,-3.4075,-3.3658,-3.3393,-3.298,-3.2437,-3.2191,-3.2094,-3.2109,-3.2233,-3.2497,-3.2822,-3.2973,-3.338,-3.391,0.0,0.0,0.0,0.0,0.0,0.0,0.0,0.0,0.0,0.0,0.0,0.0,0.0,0.0,0.0,-3.1185,-3.1139,-3.1184,-3.094,-3.0879,-3.0865,-3.0818,0.0,0.0,0.0,0.0,0.0,0.0,0.0,0.0,0.0,-3.2047,-3.1958,-3.1513,-3.1912,-3.2338,-3.2567,-3.2835,-3.2654,-3.1663,-3.1603,-3.1259,-3.019,-3.0394,-3.0508,-3.033,-3.0571,-3.0609,-3.0482,-3.0622,-3.0698,-3.0698,-3.0849,-3.0911,-3.0911,-3.0634,-3.0381,-3.019,-2.9934,-2.9546,-2.9091,-2.8343,-2.777,-2.7296,-2.6509,-2.6063,-2.5968,-2.5812,-2.5675,-2.558,-2.5115,-2.5073,-2.52,-2.5062,-2.5009,-2.4872,0.0,0.0,0.0,0.0,0.0,0.0,0.0,0.0,0.0,0.0,0.0,0.0,0.0,0.0,0.0,0.0,0.0,0.0,0.0,0.0,-3.4805,-3.4875,-3.4763,-3.4667,-3.4667,-3.4423,-3.4226,-3.405,-3.3668,-3.3156,-3.2574,-3.2437,-3.237,-3.2401,-3.289,-3.3125,-3.3201,-3.3827,-3.4118,-3.4179,-3.4372,0.0,0.0,0.0,0.0,0.0,0.0,0.0,0.0,0.0,0.0,0.0,0.0,0.0,-3.3713,-3.338,-3.3181,-3.3134,-3.3227,-3.2933,-3.2635,-3.2765,-3.1438,0.0,-3.008,-3.069,0.0,-3.1111,0.0,0.0,-3.2191,-3.2256,-3.2518,-3.3291,-3.2996,-3.278,-3.3171,-3.3094,-3.2704,-3.1873,-3.1455,-3.0934,-3.019,-3.0126,-3.0152,-3.0113,-3.047,-3.0698,-3.0698,-3.0698,-3.0698,-3.0698,-3.0698,-3.0736,-3.0736,-3.0698,-3.0571,-3.0368,-2.9972,-2.9546,-2.9091,-2.8843,-2.8383,-2.773,-2.7115,-2.6921,-2.7021,-2.6404,-2.6415,-2.6768,-2.6456,-2.6238,-2.606,-2.5621,-2.5453,-2.5358,0.0,0.0,0.0,0.0,0.0,0.0,0.0,0.0,0.0,0.0,0.0,0.0,0.0,0.0,0.0,0.0,0.0,0.0,0.0,0.0,-3.5811,-3.4932,-3.4851,-3.4811,-3.4811,-3.4643,-3.4399,-3.4101,-3.3771,-3.3461,-3.3171,-3.3527,-3.3623,-3.3505,-3.4135,-3.4523,-3.4662,-3.4998,-3.5322,-3.5646,-3.5798,-3.6089,0.0,0.0,0.0,0.0,0.0,0.0,0.0,0.0,-3.5296,-3.4591,0.0,0.0,-3.4268,-3.406,-3.3819,-3.3576,-3.3531,-3.3066,-3.264,-3.266,-3.2057,0.0,0.0,-3.0847,-3.0939,-3.1157,-3.1478,-3.1763,-3.1763,-3.1651,-3.1811,-3.2587,-3.2705,-3.2863,-3.3416,-3.3227,-3.2654,-3.1713,-3.1505,-3.1097,-3.019,-3.0228,-3.0228,-3.0113,-3.0343,-3.0457,-3.0343,-3.0457,-3.0571,-3.0698,-3.0698,-3.0773,-3.0874,-3.0773,-3.0609,-3.0406,-3.0113,-2.9818,-2.9507,-2.9,-2.8605,-2.8207,-2.7563,-2.7237,-2.7185,-2.694,-2.694,-2.7074,-2.6981,-2.6899,-2.6816,-2.6753,-2.6753,-2.6629,0.0,0.0,0.0,0.0,0.0,0.0,0.0,0.0,0.0,0.0,0.0,0.0,0.0,0.0,0.0,0.0,0.0,0.0,0.0,-3.6738,-3.6307,-3.5297,-3.5247,-3.5247,-3.5247,-3.5406,-3.5186,-3.4642,-3.4565,-3.4513,-3.4461,-3.4819,-3.4854,-3.4613,-3.5307,-3.5631,-3.5642,-3.5963,-3.6305,-3.6662,-3.6537,-3.6675,0.0,0.0,0.0,0.0,0.0,0.0,0.0,0.0,0.0,0.0,0.0,0.0,0.0,0.0,-3.4592,-3.4207,-3.413,-3.3625,-3.3064,-3.2864,0.0,0.0,-3.1323,-3.0991,-3.0838,-3.0898,-3.1147,-3.1428,-3.163,-3.1656,-3.1872,-3.2548,-3.2819,-3.3089,-3.3346,-3.3108,-3.2583,-3.1713,-3.1418,-3.0947,-3.0139,-3.0139,-3.0101,-2.9908,-3.0216,-3.0292,-3.0113,-3.0228,-3.0381,-3.0508,-3.0508,-3.0609,-3.0798,-3.0736,-3.0622,-3.0482,-3.0305,-3.0049,-2.9792,-2.9326,-2.9013,-2.8736,-2.8155,-2.7834,-2.7713,-2.7551,-2.7551,-2.7603,-2.7603,-2.7603,-2.7644,-2.7684,-2.7684,-2.7534,0.0,0.0,0.0,0.0,0.0,0.0,0.0,0.0,0.0,0.0,0.0,0.0,0.0,0.0,0.0,0.0,0.0,0.0,0.0,-3.6837,-3.6025,-3.6009,-3.6009,-3.6009,-3.6009,-3.6738,-3.6679,-3.5811,-3.615,-3.636,-3.6509,-3.6244,-3.5947,-3.5633,-3.6317,-3.6361,-3.5985,-3.6703,-3.6999,-3.6952,-3.6266,-3.6406,-3.6937,0.0,0.0,0.0,0.0,0.0,0.0,0.0,-3.7329,0.0,0.0,0.0,0.0,0.0,-3.5752,-3.5234,-3.5367,-3.4905,-3.4269,-3.3663,0.0,0.0,-3.1038,-3.1054,-3.1056,-3.027,-3.0642,-3.1271,-3.1886,-3.2482,-3.3058,-3.3526,-3.3605,-3.3452,-3.3058,-3.2846,-3.2489,-3.1873,-3.1071,-3.0431,-3.0037,-2.9882,-2.9702,-2.9419,-3.0011,-3.0292,-3.0113,-3.0113,-3.0113,-3.0113,-3.0113,-3.019,-3.0406,-3.0609,-3.0698,-3.0698,-3.0495,-3.019,-2.9792,-2.9792,-2.965,-2.938,-2.8988,-2.8791,-2.8752,-2.8367,-2.8299,-2.851,-2.851,-2.851,-2.8471,-2.8259,-2.807,-2.7841,0.0,0.0,0.0,0.0,0.0,0.0,0.0,0.0,0.0,0.0,0.0,0.0,0.0,0.0,0.0,0.0,0.0,0.0,0.0,-3.7798,-3.7334,-3.6804,-3.6771,-3.6771,-3.6771,-3.75,-3.7491,-3.6695,-3.6706,-3.6675,-3.664,-3.7051,-3.701,-3.6701,-3.7616,-3.7737,-3.7322,-3.7748,-3.7815,-3.7594,-3.7331,-3.732,-3.7449,0.0,0.0,0.0,0.0,0.0,0.0,0.0,0.0,0.0,0.0,0.0,0.0,-3.6937,-3.6523,-3.6053,-3.5863,-3.5118,-3.4337,-3.3999,0.0,0.0,0.0,-3.0849,0.0,0.0,-3.0517,-3.097,-3.1251,-3.2112,-3.2794,-3.2897,-3.3169,-3.3312,-3.3023,-3.2704,-3.2309,-3.185,-3.1071,-3.0431,-3.0037,-2.9703,-2.947,-2.9419,-2.9767,-2.9934,-2.9908,-2.9908,-2.9934,-3.0113,-3.0228,-3.0419,-3.0609,-3.0798,-3.0849,-3.0698,-3.0495,-3.033,-3.0228,-2.9934,-2.9753,-2.965,-2.9353,-2.9157,-2.9,-2.8724,-2.8578,-2.851,-2.851,-2.851,-2.851,-2.8419,-2.8191,-2.7841,0.0,0.0,0.0,0.0,0.0,0.0,0.0,0.0,0.0,0.0,0.0,0.0,0.0,0.0,0.0,0.0,0.0,0.0,0.0,0.0,-3.8074,-3.7626,-3.7609,-3.7716,-3.7963,-3.8463,-3.8505,-3.8041,-3.7833,-3.7738,-3.7729,-3.8157,-3.8139,-3.7799,-3.8471,-3.8511,-3.8071,-3.8315,-3.8343,-3.8173,-3.8017,-3.7918,-3.7831,0.0,0.0,0.0,0.0,0.0,0.0,0.0,0.0,0.0,0.0,0.0,0.0,-3.715,-3.6616,-3.5975,-3.5655,-3.4887,-3.4085,-3.3554,-3.2857,-3.2028,-3.097,-3.0323,-2.9896,-2.9896,-3.0315,-3.0807,-3.1126,-3.1971,-3.2653,-3.2845,-3.3108,-3.3206,-3.2917,-3.2668,-3.2381,-3.1996,-3.1071,-3.0431,-3.0254,-2.9651,-2.9275,-2.9275,-2.9611,-2.974,-2.965,-2.974,-2.9869,-2.9972,-3.019,-3.0381,-3.0571,-3.0761,-3.0836,-3.0811,-3.0609,-3.0558,-3.0634,-3.0049,-2.983,-2.9895,-2.9548,-2.9275,-2.9091,-2.8882,-2.8685,-2.851,-2.851,-2.851,-2.851,-2.851,-2.8243,-2.7881,0.0,0.0,0.0,0.0,0.0,0.0,0.0,0.0,0.0,0.0,0.0,0.0,0.0,0.0,0.0,0.0,0.0,0.0,0.0,0.0,-3.8511,-3.8511,-3.8511,-3.875,-3.9335,-3.9432,-3.9501,-3.9501,-3.9202,-3.9121,-3.9299,-3.9272,-3.9121,-3.8832,-3.8969,-3.8816,-3.8411,-3.8623,-3.8694,-3.8667,-3.8427,-3.8286,-3.8116,-3.7831,0.0,0.0,0.0,0.0,0.0,0.0,0.0,0.0,-3.748,0.0,-3.7164,-3.706,-3.6258,-3.5367,-3.5041,-3.4419,-3.3685,-3.274,-3.2139,-3.1401,-2.9999,-2.9687,-2.9673,-2.9617,-3.0136,-3.0797,-3.1387,-3.2033,-3.2665,-3.3192,-3.329,-3.3122,-3.2739,-3.2668,-3.2574,-3.2241,-3.1097,-3.0393,-3.057,-2.9639,-2.9052,-2.9052,-2.9495,-2.965,-2.9419,-2.965,-2.9792,-2.9792,-3.0011,-3.019,-3.0406,-3.0609,-3.0811,-3.0986,-3.0811,-3.0811,-3.0986,-3.0203,-2.9934,-3.0075,-2.9664,-2.9353,-2.9131,-2.8922,-2.8724,-2.855,-2.855,-2.851,-2.851,-2.851,-2.8283,-2.7921,0.0,0.0,0.0,0.0,0.0,0.0,0.0,0.0,0.0,0.0,0.0,0.0,0.0,0.0,0.0,0.0,0.0,0.0,0.0,0.0,-3.9304,-3.9417,-3.933,-3.937,-3.9599,-3.9432,-3.9379,-3.9501,-3.9432,-3.9352,-3.9299,-3.9148,-3.904,-3.8969,-3.9255,-3.9352,-3.9255,-3.9415,-3.9335,-3.9121,-3.8805,-3.8595,-3.8455,-3.8144,-3.7915,0.0,0.0,0.0,0.0,0.0,0.0,0.0,-3.7435,-3.7301,-3.7044,-3.715,-3.6445,-3.5576,-3.5367,-3.4558,0.0,-3.3435,-3.2788,-3.1912,-3.0614,-3.0301,-3.0161,-2.9715,-3.0502,-3.1331,-3.1471,-3.2384,-3.3136,-3.3262,-3.3051,-3.281,-3.2704,-3.2561,-3.2395,-3.2205,-3.1196,-3.0494,-3.0393,-2.9445,-2.8882,-2.8882,-2.9091,-2.9287,-2.938,-2.9457,-2.956,-2.9792,-3.0011,-3.019,-3.0406,-3.0609,-3.0811,-3.0986,-3.0811,-3.0811,-3.0986,-3.0482,-3.0228,-3.0075,-2.9998,-2.9715,-2.9341,-2.9302,-2.9067,-2.8724,-2.8724,-2.8657,-2.851,-2.851,-2.8351,-2.8111,0.0,0.0,0.0,0.0,0.0,0.0,0.0,0.0,0.0,0.0,0.0,0.0,0.0,0.0,0.0,0.0,0.0,0.0,0.0,0.0,0.0,0.0,-3.9668,-3.9642,-3.9703,-3.9642,-3.9616,-3.9694,-3.9616,-3.9484,-3.9299,-3.9335,-3.9345,-3.9362,-3.9573,-3.9694,-3.9694,-3.9772,-3.972,-3.9563,-3.9319,-3.9115,-3.8952,-3.8567,-3.8258,-3.7972,-3.7844,0.0,0.0,0.0,0.0,0.0,0.0,0.0,-3.7105,-3.7089,-3.6554,-3.5847,-3.5415,-3.4706,0.0,-3.3188,0.0,-3.2159,-3.1204,-3.0708,-3.0399,-3.0091,-3.0572,-3.112,-3.1429,-3.2258,-3.2974,-3.3234,-3.3122,-3.2966,-3.2846,-3.2668,-3.2489,-3.2336,-3.1196,-3.0469,-3.0431,-2.9367,-2.8685,-2.8803,-2.8651,-2.877,-2.9223,-2.9144,-2.9298,-2.9779,-3.0011,-3.0152,-3.0254,-3.0546,-3.0736,-3.0836,-3.0849,-3.0911,-3.0986,-3.0685,-3.0381,-3.0113,-3.0113,-2.9831,-2.9419,-2.9419,-2.9145,-2.8791,-2.8791,-2.8685,-2.851,-2.851,-2.8379,-2.8179,0.0,0.0,0.0,0.0,0.0,0.0,0.0,0.0,0.0,0.0,0.0,0.0,0.0,0.0,0.0,0.0,0.0,0.0,0.0,0.0,0.0,0.0,-4.0167,-4.0141,-4.015,-4.0219,-4.0178,-4.006,-3.9956,-3.9707,-3.9325,-3.9547,-3.9677,-3.9729,-3.9833,-3.9926,-3.9935,-3.9935,-3.9926,-3.9901,-3.9781,-3.9609,-3.9382,-3.898,-3.8567,-3.8173,-3.7972,-3.7743,-3.7539,-3.751,0.0,0.0,0.0,0.0,-3.7134,-3.703,-3.6569,-3.6006,-3.5462,0.0,-3.4081,-3.2885,-3.2567,0.0,-3.1828,-3.1265,-3.0792,-3.068,-3.0652,-3.0853,-3.1387,-3.2075,-3.2736,-3.3206,-3.3276,-3.3157,-3.2988,-3.281,-3.2632,-3.2381,-3.1257,-3.0507,-3.0545,-2.9332,-2.8564,-2.863,-2.8094,-2.81,-2.8746,-2.8583,-2.8786,-2.9439,-2.9643,-2.9834,-2.9923,-3.0316,-3.0557,-3.0698,-3.0911,-3.0986,-3.0986,-3.0849,-3.0533,-3.0152,-3.0152,-2.9908,-2.947,-2.947,-2.9275,-2.891,-2.8882,-2.8724,-2.855,-2.851,-2.8379,-2.8179,0.0,0.0,0.0,0.0,0.0,0.0,0.0,0.0,0.0,0.0,0.0,0.0,0.0,0.0,0.0,0.0,0.0,0.0,0.0,0.0,0.0,0.0,-4.1775,-4.1829,-4.1946,-4.1732,-4.1322,-4.0675,-4.0675,-4.0251,-3.9475,-3.9528,-3.9642,-3.9875,-3.9901,-3.9961,-4.007,-4.007,-4.0011,-3.9901,-3.9875,-3.972,-3.9458,-3.9104,-3.8805,-3.85,-3.8062,-3.7817,-3.7658,-3.7539,-3.751,0.0,0.0,0.0,-3.703,-3.7015,-3.6414,-3.5784,-3.58,0.0,-3.4051,0.0,-3.3304,-3.3079,0.0,0.0,-3.2005,-3.1471,-3.1359,-3.1387,-3.1471,-3.2426,-3.3192,-3.3276,-3.3157,-3.2952,-3.2775,-3.2739,-3.2561,-3.2277,-3.169,-3.1071,-3.0393,-2.9289,-2.8379,-2.7903,-2.7332,-2.7169,-2.7455,-2.7593,-2.7804,-2.8052,-2.8249,-2.866,-2.9314,-2.9563,-3.0007,-3.0698,-3.0911,-3.0986,-3.0986,-3.0986,-3.0748,-3.0368,-3.0368,-3.0152,-2.9753,-2.9753,-2.9573,-2.9302,-2.9118,-2.8922,-2.8724,-2.8538,-2.8379,-2.8179,0.0,0.0,0.0,0.0,0.0,0.0,0.0,0.0,0.0,0.0,0.0,0.0,0.0,0.0,0.0,0.0,0.0,0.0,0.0,0.0,0.0,-4.2223,-4.2223,-4.2196,-4.2196,-4.2061,-4.1818,-4.1418,-4.1354,-4.0969,-4.0357,-4.0261,-4.0122,-3.9901,-3.9986,-4.0037,-4.0096,-4.0096,-4.0062,-4.0011,-4.0011,-3.9858,-3.9616,-3.9441,-3.898,-3.8399,-3.8234,-3.7934,-3.7599,-3.751,-3.751,-3.748,-3.7405,0.0,0.0,0.0,-3.6616,-3.6053,-3.5608,-3.489,-3.4147,0.0,-3.3466,-3.3255,-3.3092,-3.272,-3.2328,-3.2061,-3.2005,-3.2005,-3.2005,-3.244,-3.2918,-3.3234,-3.3108,-3.2988,-3.2881,-3.2668,-3.2489,-3.2322,-3.1481,-3.0611,-2.9931,-2.8675,-2.774,-2.7284,-2.6641,-2.6536,-2.7186,-2.7115,-2.7274,-2.7779,-2.7987,-2.8259,-2.8572,-2.8792,-2.933,-3.0206,-3.0867,-3.1099,-3.0986,-3.1123,-3.0949,-3.0571,-3.0571,-3.0343,-2.9972,-2.9972,-2.9754,-2.938,-2.9157,-2.8961,-2.8803,-2.8578,-2.8379,-2.8179,0.0,0.0,0.0,0.0,0.0,0.0,0.0,0.0,0.0,0.0,0.0,0.0,0.0,0.0,0.0,0.0,0.0,0.0,0.0,0.0,0.0,-4.2861,-4.2861,-4.2851,-4.2732,-4.2732,-4.2549,-4.2189,-4.2122,-4.1765,-4.1164,-4.091,-4.0577,-4.017,-4.0121,-4.0096,-4.0096,-4.0096,-4.0096,-4.0096,-4.0138,-4.0011,-3.9807,-3.9807,-3.9249,-3.8467,-3.8444,-3.8033,-3.7539,-3.751,-3.751,-3.748,-3.7391,-3.7211,0.0,0.0,0.0,-3.632,-3.5527,0.0,-3.4534,-3.4005,-3.3695,-3.3486,0.0,0.0,-3.2672,-3.2637,-3.2637,-3.2637,-3.2637,-3.2637,-3.2792,-3.322,-3.3108,-3.2988,-3.2917,-3.2632,-3.2326,-3.2068,-3.1209,-3.0276,-2.9329,-2.8172,-2.7287,-2.6756,-2.6079,-2.602,-2.6736,-2.6637,-2.6828,-2.7381,-2.761,-2.7781,-2.7896,-2.8312,-2.8982,-2.9891,-3.0727,-3.1127,-3.1099,-3.1272,-3.1174,-3.0849,-3.0736,-3.047,-3.0113,-3.0113,-2.987,-2.947,-2.9209,-2.9013,-2.8843,-2.8578,-2.8351,-2.8111,0.0,0.0,0.0,0.0,0.0,0.0,0.0,0.0,0.0,0.0,0.0,0.0,-4.3757,-4.3526,-4.3694,-4.4385,0.0,0.0,0.0,0.0,0.0,-4.4479,-4.4479,0.0,-4.4451,-4.4451,-4.3957,-4.2925,-4.3054,-4.2629,-4.1649,-4.108,-4.0862,-4.0927,-4.0358,-4.0096,-4.0096,-4.0096,-4.0096,-4.0096,-4.0238,-4.0213,-4.0087,-4.0087,-3.9601,-3.892,-3.8601,-3.8157,-3.7671,-3.7539,-3.751,-3.745,-3.7121,-3.6999,-3.6938,0.0,0.0,0.0,-3.5816,-3.5512,0.0,-3.475,-3.4346,-3.404,0.0,0.0,-3.3479,-3.3304,-3.3234,-3.3234,-3.3234,-3.3234,-3.3248,-3.3276,-3.3108,-3.2917,-3.2739,-3.2525,-3.2068,-3.119,-3.118,-3.0512,-2.8645,-2.8106,-2.7387,-2.6251,-2.5648,-2.5443,-2.5656,-2.6039,-2.6226,-2.6288,-2.6609,-2.6965,-2.7354,-2.8372,-2.9297,-3.01,-3.0513,-3.0927,-3.1272,-3.1485,-3.1485,-3.1235,-3.0874,-3.047,-3.0113,-3.0113,-2.9972,-2.974,-2.93,-2.9091,-2.9052,-2.863,-2.8243,-2.7933,0.0,0.0,0.0,0.0,0.0,0.0,0.0,0.0,0.0,0.0,0.0,0.0,0.0,-4.4509,-4.4659,-4.5632,-4.5284,0.0,0.0,0.0,0.0,-4.4615,-4.4615,-4.4542,-4.4412,-4.4327,-4.4037,-4.3585,-4.351,-4.3127,-4.2523,-4.2295,-4.2074,-4.1784,-4.0543,-4.0011,-4.0096,-4.0096,-4.0096,-4.0096,-4.0238,-4.0113,-3.9858,-4.002,-3.9644,-3.8952,-3.8662,-3.8315,-3.7902,-3.7612,-3.778,-3.8114,-3.7839,-3.8028,-3.8231,-3.7881,-3.7477,-3.7043,-3.6643,0.0,0.0,-3.485,-3.4399,-3.4031,-3.3779,-3.3536,-3.3396,-3.3326,-3.329,-3.329,-3.329,-3.329,-3.329,-3.329,-3.3108,-3.2917,-3.2739,-3.2467,-3.1974,-3.1114,-3.071,-2.9961,-2.8529,-2.7739,-2.6993,-2.6226,-2.575,-2.5535,-2.5606,-2.5968,-2.6258,-2.6336,-2.6577,-2.6828,-2.71,-2.7974,-2.8718,-2.9418,-3.0539,-3.1272,-3.1629,-3.1959,-3.1923,-3.1593,-3.1235,-3.0785,-3.0292,-3.0292,-3.0113,-2.9753,-2.93,-2.9091,-2.9052,-2.8669,-2.8243,-2.7893,0.0,0.0,0.0,0.0,0.0,0.0,0.0,0.0,0.0,-4.5747,0.0,0.0,0.0,0.0,-4.5364,-4.5953,-4.5555,-4.515,-4.4968,-4.472,-4.4615,-4.4615,-4.4615,-4.4542,-4.4395,-4.4241,-4.4126,-4.4027,-4.3864,-4.3644,-4.3344,-4.3081,-4.2808,-4.2544,-4.1197,-4.0516,-4.0468,-4.0214,-4.0096,-4.0138,-4.0288,-4.0341,-4.0289,-4.0569,-4.0169,-3.9424,-3.9177,-3.8756,-3.8267,-3.7931,-3.8128,-3.8493,-3.8482,-3.8637,-3.8786,-3.8573,-3.8031,-3.7428,-3.7235,-3.6523,-3.5752,-3.5264,-3.4787,-3.437,-3.3971,-3.3675,-3.3466,-3.3326,-3.329,-3.329,-3.329,-3.329,-3.3276,-3.3206,-3.3037,-3.281,-3.2574,-3.2264,-3.1703,-3.0668,-3.0296,-2.9539,-2.8177,-2.7395,-2.6769,-2.622,-2.5769,0.0,-2.5688,-2.6072,-2.6383,-2.6701,-2.6748,-2.6909,-2.7113,-2.7838,-2.8604,-2.9377,-3.0737,-3.1665,-3.22,-3.2489,-3.2345,-3.1886,-3.1606,-3.1123,-3.0495,-3.0444,-3.019,-2.9856,-2.9365,-2.917,-2.9052,-2.8669,-2.8243,-2.7893,0.0,0.0,0.0,0.0,0.0,0.0,0.0,0.0,-4.6613,-4.6613,0.0,0.0,0.0,0.0,0.0,-4.5257,-4.5086,-4.4968,-4.4803,-4.4682,-4.4615,-4.4615,0.0,0.0,0.0,0.0,0.0,-4.4293,-4.4155,-4.4097,-4.4097,-4.3234,-4.2986,-4.3205,-4.2311,-4.1698,-4.1221,-4.0443,-4.013,-4.0155,-4.0412,-4.0855,-4.1418,-4.1671,-4.1179,-4.0299,-4.015,-3.9543,-3.8734,-3.8568,-3.8508,-3.8605,-3.8951,-3.8815,-3.8569,-3.8569,-3.8077,-3.7523,0.0,0.0,0.0,-3.6037,-3.5589,-3.5049,-3.4515,0.0,-3.3793,-3.3396,-3.3326,-3.3326,-3.329,-3.329,-3.3241,-3.3023,-3.2846,-3.2596,-3.2241,-3.2036,-3.1351,-2.9821,-2.9894,-2.9358,-2.7546,-2.7154,-2.6803,-2.6255,-2.5664,-2.5488,-2.5875,-2.622,-2.6701,-2.7268,-2.7113,-2.7113,-2.7302,-2.8064,-2.9006,-3.0117,-3.1087,-3.204,-3.2988,-3.3023,-3.2704,-3.2128,-3.1986,-3.1447,-3.0698,-3.0482,-3.0292,-3.0037,-2.9586,-2.9275,-2.9052,-2.8669,-2.8283,-2.7881,0.0,0.0,0.0,0.0,0.0,0.0,-4.6542,-4.6661,-4.6731,0.0,0.0,0.0,-4.6495,-4.6186,-4.5837,-4.5389,-4.5203,-4.5059,-4.4803,-4.4682,-4.4615,-4.4615,-4.4615,-4.4615,-4.4615,0.0,0.0,0.0,0.0,0.0,0.0,0.0,0.0,-4.382,-4.3138,-4.2768,-4.2581,-4.1388,-4.0899,-4.0874,-4.0608,-4.0679,-4.0908,-4.1205,-4.1201,-4.1043,-4.0569,-4.0218,-3.9856,-3.8848,-3.9078,-3.9847,-4.0209,-4.014,-3.9936,-3.9936,-3.9139,-3.8231,-3.8231,0.0,0.0,0.0,0.0,0.0,-3.4501,0.0,-3.4142,-3.375,-3.3591,-3.3466,-3.3326,-3.329,-3.3206,-3.2846,-3.2846,-3.2775,-3.2395,-3.2096,-3.1535,-3.0508,-3.0077,-2.9531,-2.8549,-2.7939,-2.7343,0.0,-2.6346,-2.6047,-2.591,-2.6487,-2.6909,-2.7079,-2.7268,-2.7536,-2.7881,-2.8518,-2.9327,-3.0316,-3.1571,-3.2472,-3.3023,-3.3297,-3.3178,-3.2739,-3.2395,-3.1923,-3.131,-3.0836,-3.0419,-3.0075,-2.9818,-2.9521,-2.9263,-2.8882,-2.8538,-2.8271,0.0,0.0,0.0,0.0,0.0,-4.6684,-4.6684,-4.6795,-4.6888,0.0,0.0,0.0,-4.6613,-4.6235,-4.5837,-4.5441,-4.523,-4.5005,-4.472,-4.4654,-4.4615,-4.4615,-4.4615,-4.457,-4.4468,-4.4327,0.0,0.0,0.0,0.0,0.0,0.0,0.0,0.0,-4.3731,-4.3603,-4.3603,-4.2544,-4.1948,-4.1653,-4.1418,-4.1441,-4.1686,-4.1887,-4.1872,-4.1617,-4.113,-4.0679,-4.0146,-3.9153,-3.9392,-4.0089,-3.9998,-4.0214,-4.0443,-4.0151,-3.9321,-3.8446,-3.8169,-3.718,-3.6132,-3.58,0.0,0.0,-3.4735,-3.4515,-3.4278,0.0,-3.366,-3.3536,-3.3361,-3.3241,-3.3072,-3.2739,-3.2739,-3.2632,-3.225,-3.2023,-3.1552,-3.0698,-3.017,-2.9667,-2.8978,-2.8232,-2.7676,-2.7343,-2.6892,-2.6667,-2.6679,-2.7154,-2.7503,-2.7669,-2.7868,-2.8186,-2.8671,-2.9282,-3.0113,-3.111,-3.2235,-3.3002,-3.3368,-3.3626,-3.3437,-3.2988,-3.2668,-3.2237,-3.1776,-3.1198,-3.0647,-3.0228,-3.0011,-2.965,-2.9236,-2.8922,-2.8605,-2.8299,0.0,0.0,-4.6613,-4.6613,-4.6708,-4.6819,-4.6819,-4.6911,-4.6998,0.0,-4.6957,-4.6865,-4.6613,-4.6186,-4.5786,-4.5415,-4.5113,-4.4858,-4.4615,-4.4615,-4.4615,-4.4615,-4.457,-4.4468,-4.4293,-4.4184,0.0,0.0,0.0,0.0,0.0,0.0,0.0,0.0,0.0,0.0,-4.4259,-4.3742,-4.3166,-4.255,-4.2504,-4.2706,-4.3032,-4.3105,-4.2758,-4.2196,-4.1786,-4.0995,-4.0032,-3.9472,-3.9402,-3.9482,-3.9015,-3.9516,-4.0166,-3.9644,-3.8985,-3.8262,-3.7661,-3.6968,-3.6383,-3.6211,-3.5911,0.0,-3.5052,-3.4702,-3.4346,0.0,-3.3675,-3.3605,-3.3361,-3.3157,-3.2952,-3.2704,-3.2525,-3.2286,-3.2,-3.189,-3.1579,-3.0682,-3.0348,-2.9925,-2.9198,-2.8445,-2.7967,-2.7914,-2.7434,-2.7333,-2.7835,-2.8,-2.8264,-2.8649,-2.8627,-2.8904,-2.9535,-3.0167,-3.1041,-3.2151,-3.2954,-3.3507,-3.3827,-3.3862,-3.3556,-3.3023,-3.2846,-3.2525,-3.2128,-3.1666,-3.1073,-3.0444,-3.019,-2.9715,-2.9131,-2.8922,-2.8605,-2.8219,0.0,0.0,-4.6637,-4.6731,-4.6778,-4.6842,-4.6934,-4.698,-4.6998,-4.6998,-4.6819,-4.6613,-4.6471,-4.5887,-4.5441,-4.5257,-4.4913,-4.4654,-4.4598,-4.4615,-4.4615,-4.4615,-4.444,-4.4338,-4.431,-4.4184,-4.4056,0.0,0.0,0.0,0.0,0.0,0.0,0.0,0.0,0.0,-4.4293,-4.4345,-4.4293,-4.4056,-4.2945,-4.277,-4.3127,-4.2902,-4.2908,-4.2958,-4.225,-4.1517,-4.0703,-3.9471,-3.8635,-3.824,-3.9082,-3.9139,-3.8985,-3.94,-3.8646,-3.7677,-3.7538,-3.6809,-3.61,-3.6068,-3.5752,0.0,-3.5198,-3.5082,-3.4883,-3.4346,-3.4244,-3.404,-3.3417,-3.3276,-3.3086,-3.2561,-3.2417,-3.2359,-3.2169,-3.2,-3.1813,-3.1619,-3.1155,-3.0752,-3.061,-2.974,-2.8993,-2.8543,-2.8121,-2.8006,-2.8279,-2.8563,-2.8832,-2.9066,-2.8766,-2.9002,-2.9898,-3.0504,-3.1314,-3.2364,-3.3169,-3.3501,-3.3431,-3.357,-3.3501,-3.3241,-3.3206,-3.2945,-3.2561,-3.2489,-3.1813,-3.0823,-3.0305,-2.9793,-2.9302,-2.9131,-2.8882,-2.8605,-4.6684,-4.6754,-4.6819,-4.6888,-4.6888,-4.6911,-4.6998,-4.6998,-4.6998,-4.6998,-4.6708,-4.6453,-4.6423,-4.5912,-4.5477,-4.523,-4.5005,-4.4803,-4.4598,-4.4615,-4.4615,-4.4615,-4.4412,-4.4281,-4.4196,-4.4068,-4.391,-4.3763,0.0,0.0,0.0,0.0,0.0,0.0,0.0,-4.4196,-4.4224,-4.4485,-4.4615,-4.4547,-4.3823,-4.3629,-4.3738,-4.3568,-4.3423,-4.3216,-4.2663,-4.1453,-3.9898,-3.8482,-3.7809,-3.7711,-3.8292,-3.8508,-3.8508,-3.8508,-3.8031,-3.743,-3.7092,-3.6612,-3.6195,-3.6037,-3.5863,0.0,0.0,-3.5034,-3.4902,-3.4366,-3.423,-3.4108,-3.3675,-3.3431,-3.3171,-3.2775,-3.2525,-3.2359,-3.2205,-3.2109,-3.2,-3.189,-3.1451,-3.1123,-3.1016,-3.0369,-2.9842,-2.959,-2.9371,-2.9358,-2.9639,-2.9822,-3.0038,-3.0353,-2.9826,-3.0095,-3.1191,-3.1191,-3.1766,-3.2862,-3.3345,-3.3501,-3.3326,-3.3501,-3.3501,-3.329,-3.329,-3.3171,-3.298,-3.2668,-3.22,-3.1629,-3.0861,-3.0216,-2.9651,-2.9236,-2.8895,-2.8578,-4.6842,-4.6911,-4.6998,-4.6998,-4.6998,-4.6998,-4.6998,-4.6998,-4.6998,-4.6957,-4.6661,-4.6405,-4.6374,-4.6013,-4.5606,-4.5257,-4.5177,-4.5005,-4.4654,-4.4626,-4.4643,-4.4615,-4.4384,-4.4196,-4.4097,-4.3939,-4.3763,-4.3598,0.0,0.0,0.0,0.0,0.0,0.0,0.0,-4.4155,-4.4155,-4.4457,-4.4615,-4.4615,-4.4615,-4.4542,-4.4395,-4.431,-4.3873,-4.3273,-4.2492,-4.0895,-3.8887,-3.7467,-3.7157,-3.7323,-3.7461,-3.7784,-3.8046,-3.7631,-3.7415,-3.7184,-3.6645,-3.6492,-3.6429,-3.6163,-3.6037,-3.5767,0.0,0.0,0.0,-3.4264,-3.4196,-3.4142,-3.3917,-3.3556,-3.3227,-3.2988,0.0,0.0,0.0,-3.2218,0.0,-3.1963,-3.169,-3.1392,-3.1263,-3.0829,-3.054,-3.0418,-3.0548,-3.0774,-3.1074,-3.1108,-3.1304,-3.1668,-3.105,-3.126,-3.2398,-3.1921,-3.2216,-3.329,-3.3466,-3.3466,-3.3326,-3.3466,-3.3466,-3.329,-3.329,-3.329,-3.3241,-3.2753,-3.2561,-3.2453,-3.1371,-3.0545,-2.9922,-2.9314,-2.8855,-2.8431,-4.6975,-4.6998,-4.6998,-4.6998,-4.6998,-4.6998,-4.6998,-4.6998,-4.6975,-4.6842,-4.6684,-4.6495,-4.6259,-4.5862,-4.5572,-4.5389,-4.515,-4.4951,-4.4776,-4.4793,-4.472,-4.4615,-4.4298,-4.4126,-4.4097,-4.3776,-4.3628,-4.3598,0.0,0.0,0.0,0.0,0.0,0.0,-4.4138,-4.4281,-4.4281,-4.4514,-4.4615,-4.4615,-4.4615,-4.4654,-4.4692,-4.4298,-4.3889,-4.3264,-4.0979,-3.9677,-3.8887,-3.7467,-3.6832,-3.6707,-3.7307,-3.7138,-3.683,-3.7353,-3.7076,-3.6599,-3.6507,-3.6492,-3.6492,-3.646,-3.6085,-3.5655,-3.5415,0.0,-3.4802,-3.4448,0.0,-3.4448,-3.3922,0.0,0.0,-3.281,-3.2444,-3.2205,-3.2218,-3.2218,-3.2182,-3.2182,-3.2114,-3.2074,-3.2074,-3.1544,-3.0975,-3.0446,-3.1067,-3.1528,-3.1695,-3.1875,-3.2061,-3.23,-3.171,-3.171,-3.2398,-3.2328,-3.2651,-3.329,-3.3326,-3.3326,-3.329,-3.3326,-3.3326,-3.329,-3.329,-3.329,-3.3276,-3.322,-3.3206,-3.3016,-3.1331,-3.0393,-2.9922,-2.9314,-2.8855,-2.8471,-4.6998,-4.6998,-4.6998,-4.6998,-4.6998,-4.6998,-4.6998,-4.6998,-4.698,-4.6911,-4.6661,-4.6405,-4.6211,-4.5912,-4.5606,-4.531,-4.5257,-4.5113,-4.4831,-4.4803,-4.4737,-4.4615,-4.4286,-4.4097,-4.4097,-4.3776,-4.3598,-4.3598,-4.3598,0.0,0.0,0.0,0.0,0.0,-4.4039,-4.4167,-4.4196,-4.4485,-4.4615,-4.4615,-4.4615,-4.444,-4.4253,-4.4423,-4.3824,-4.2565,-4.0443,-3.9172,-3.8294,-3.7188,-3.6677,-3.6538,-3.683,-3.6722,-3.6553,-3.683,-3.6722,-3.6492,-3.6492,-3.6492,-3.646,-3.6352,-3.6148,-3.5847,-3.5379,-3.5166,-3.4949,-3.4481,0.0,0.0,0.0,0.0,0.0,0.0,-3.2803,-3.2431,-3.2322,0.0,-3.2218,-3.2218,0.0,0.0,-3.2218,-3.1951,-3.1707,-3.145,-3.1818,-3.2118,-3.2317,-3.2507,-3.2709,-3.2912,-3.2342,-3.2314,-3.2932,-3.2581,-3.2707,-3.329,-3.329,-3.329,-3.329,-3.329,-3.329,-3.329,-3.329,-3.329,-3.329,-3.329,-3.329,-3.3171,-3.1969,-3.1071,-3.0418,-2.9716,-2.904,-2.8471,-4.6998,-4.6998,-4.6998,-4.6998,-4.6998,-4.6998,-4.6998,-4.6998,-4.6998,-4.6934,-4.6661,-4.6357,-4.6112,-4.5912,-4.5632,-4.523,-4.531,-4.5274,-4.494,-4.4886,-4.4776,-4.4654,-4.4298,-4.4097,-4.4097,-4.3776,-4.3598,-4.3598,-4.3598,0.0,0.0,0.0,0.0,0.0,-4.3894,-4.4085,-4.4126,-4.44,-4.4542,-4.4615,-4.4615,-4.418,-4.356,-4.3762,-4.3095,-4.1765,-3.9908,-3.8717,-3.7888,-3.6971,-3.66,0.0,-3.6492,-3.6492,-3.6492,-3.6492,-3.6492,-3.6492,-3.6492,-3.6492,-3.646,-3.6305,-3.6242,-3.6038,-3.5394,-3.5246,-3.5049,-3.4515,-3.4414,0.0,0.0,0.0,-3.3793,-3.3605,0.0,-3.2668,-3.2489,-3.2359,-3.2241,-3.2205,-3.2218,0.0,0.0,-3.2218,-3.2218,-3.2218,-3.2359,-3.2561,-3.2704,-3.2952,-3.3157,-3.329,-3.289,-3.2876,-3.329,-3.289,-3.289,-3.329,-3.329,-3.329,-3.329,-3.329,-3.329,-3.329,-3.329,-3.329,-3.329,-3.329,-3.3276,-3.3157,-3.2525,-3.1663,-3.0745,-2.9961,-2.9184,-2.8471,-4.6998,-4.6998,-4.6998,-4.6998,-4.6998,-4.6998,-4.6998,-4.6998,-4.6957,-4.6819,-4.6684,-4.6381,-4.5862,-4.5811,-4.5632,-4.523,-4.5327,-4.5344,-4.5194,-4.5059,-4.4923,-4.4803,-4.4355,-4.4097,-4.4097,-4.3776,-4.3598,-4.3598,-4.3598,0.0,0.0,0.0,0.0,0.0,-4.3822,-4.3969,-4.4097,-4.4253,-4.4412,-4.4615,-4.4615,-4.3889,-4.2737,-4.1764,-4.1381,-4.1064,-3.906,0.0,0.0,-3.6971,-3.66,0.0,0.0,0.0,0.0,0.0,-3.6492,-3.6492,0.0,0.0,-3.6492,-3.6492,-3.6352,-3.607,-3.5529,-3.5282,-3.5049,-3.4515,-3.4414,-3.4414,-3.4414,-3.3985,-3.3605,-3.3605,-3.3072,0.0,0.0,-3.2525,-3.2359,-3.2218,-3.2218,-3.2218,0.0,-3.2218,-3.2218,-3.2218,-3.2503,-3.2704,-3.2704,-3.3086,-3.3276,-3.329,-3.3262,-3.3262,-3.329,-3.3262,-3.3262,-3.329,-3.329,-3.329,-3.329,-3.329,-3.329,-3.329,-3.329,-3.329,-3.329,-3.329,-3.3192,-3.2988,-3.2775,-3.1846,-3.0532,-2.9922,-2.9184,-2.851,-4.6998,-4.6998,-4.6998,-4.6998,-4.6998,-4.6998,-4.6998,-4.6998,-4.6934,-4.6819,-4.6842,-4.6661,-4.6137,-4.6062,-4.5887,-4.5511,-4.5423,-4.5344,-4.522,-4.4624,-4.4207,-4.4089,-4.3242,-4.297,-4.3344,-4.3144,-4.3202,-4.3598,-4.3598,0.0,0.0,0.0,0.0,0.0,0.0,-4.3969,-4.4097,-4.4253,-4.4108,-4.3747,-4.2937,-4.2361,-4.1931,0.0,-4.0499,-3.9746,-3.8557,-3.7779,0.0,-3.6755,-3.6554,-3.6492,-3.6492,-3.6492,-3.6492,-3.6492,-3.6492,-3.6492,0.0,0.0,-3.6492,-3.6492,0.0,0.0,-3.5561,-3.535,-3.5136,-3.4366,-3.4312,-3.4346,-3.4122,-3.3917,-3.3744,-3.3605,-3.3227,-3.2917,0.0,-3.2596,-3.2359,-3.2218,-3.2218,-3.2218,-3.2218,-3.2218,-3.2241,-3.2322,-3.2561,-3.2775,-3.2881,-3.3157,-3.329,-3.329,-3.329,-3.3361,-3.3501,-3.3501,-3.357,-3.3709,-3.3709,-3.364,-3.3501,-3.3501,-3.3431,-3.329,-3.329,-3.329,-3.329,-3.3157,-3.3072,-3.2988,-3.2632,-3.1736,-3.057,-3.0241,-2.9419,-2.851,-4.6998,-4.6998,-4.6998,-4.6998,-4.6998,-4.6998,-4.6998,-4.7043,-4.7002,-4.6888,-4.6998,-4.6865,-4.6332,-4.6235,-4.6038,-4.5641,-4.5476,-4.5344,-4.522,-4.4641,-4.4224,-4.4106,-4.3314,-4.2925,-4.3077,-4.313,-4.319,-4.3273,-4.3495,-4.3598,0.0,0.0,0.0,0.0,0.0,-4.391,-4.408,-4.387,-4.3609,-4.328,-4.1942,-4.1277,0.0,0.0,-3.9718,-3.9071,0.0,-3.7419,-3.6954,-3.6677,-3.6554,-3.6492,-3.6492,-3.6492,-3.6492,-3.6492,-3.6492,-3.6492,-3.6492,-3.6492,0.0,-3.6492,-3.6492,0.0,-3.5576,0.0,-3.5088,-3.4283,-3.4196,-3.421,-3.3965,-3.3896,-3.3827,-3.364,-3.3333,-3.3072,0.0,-3.2739,-3.2453,-3.2372,-3.2277,-3.2218,-3.2218,-3.2218,-3.2241,-3.2322,-3.2561,-3.281,-3.2988,-3.3276,-3.3431,-3.3501,-3.3501,-3.357,-3.3709,-3.3709,-3.3793,-3.3896,-3.3896,-3.3827,-3.3709,-3.364,-3.3536,-3.3396,-3.3326,-3.3241,-3.3192,-3.3058,-3.2917,-3.2775,-3.2489,-3.1736,-3.0758,-3.0431,-2.9535,-2.851,-4.6998,-4.6998,-4.6998,-4.6998,-4.702,-4.702,-4.702,-4.7111,-4.7156,-4.702,-4.7111,-4.7002,-4.6495,-4.6284,-4.6062,-4.5658,-4.5485,-4.5344,-4.522,-4.5052,-4.4889,-4.4752,-4.4395,-4.3889,-4.3205,-4.3655,-4.3481,-4.2765,-4.3322,0.0,0.0,0.0,0.0,0.0,-4.3565,0.0,-4.3997,-4.3118,-4.2953,-4.3156,-4.157,-4.0672,-4.0183,-3.9314,-3.9079,-3.8993,-3.77,-3.7119,-3.6969,-3.6754,-3.6616,-3.6523,-3.6492,-3.6492,-3.6492,-3.6492,-3.6492,-3.6492,-3.6492,-3.6492,-3.6492,-3.6492,-3.6492,0.0,0.0,0.0,-3.5037,0.0,-3.4162,-3.4128,-3.3951,-3.3931,-3.3862,-3.364,-3.3431,-3.3241,-3.3023,-3.2846,-3.2704,-3.2704,-3.2408,-3.2218,-3.2218,-3.2218,-3.2205,-3.2205,-3.2538,-3.281,-3.2988,-3.3382,-3.3675,-3.3896,-3.3896,-3.3896,-3.3896,-3.3896,-3.3917,-3.3931,-3.3931,-3.3931,-3.3882,-3.3709,-3.3605,-3.3605,-3.3396,-3.3206,-3.2988,-3.2988,-3.2739,-3.2417,-3.2381,-3.1896,-3.1108,-3.0469,-2.9523,-2.851,-4.6998,-4.6998,-4.6998,-4.6998,-4.7088,-4.7133,-4.7133,-4.7205,-4.7249,-4.7156,-4.7227,-4.712,-4.6731,-4.6495,-4.6235,-4.5938,-4.5589,-4.5344,-4.522,-4.4573,-4.4121,-4.4004,-4.3237,-4.2939,-4.3188,-4.3334,-4.3432,-4.3598,-4.3739,0.0,-4.3598,0.0,0.0,0.0,0.0,-4.2974,-4.3227,-4.2451,-4.1936,-4.1519,-4.0462,-3.9945,-3.9771,0.0,-3.8725,-3.8647,-3.7865,-3.7389,-3.7104,-3.68,-3.6693,-3.6631,-3.6523,-3.6492,-3.6492,-3.6492,-3.6492,-3.6492,-3.6492,-3.6492,-3.6492,-3.6492,-3.6492,-3.6398,0.0,0.0,0.0,0.0,0.0,0.0,0.0,-3.4395,-3.4293,-3.3709,-3.3431,-3.3241,-3.3023,-3.2952,-3.281,-3.2525,-3.2381,-3.2359,-3.2359,-3.2359,-3.2395,-3.2574,-3.2775,-3.3002,-3.3206,0.0,-3.3605,-3.3675,-3.3827,-3.3951,-3.404,-3.404,-3.4108,-3.4278,-3.4278,-3.4176,-3.404,-3.4005,-3.3833,-3.3605,-3.3536,-3.3333,-3.2988,-3.2846,-3.2632,-3.2381,-3.23,-3.1813,-3.1071,-3.0024,-2.9341,-2.8895,-4.6998,-4.6998,-4.6998,-4.6998,-4.7156,-4.7227,-4.7201,-4.7272,-4.7298,-4.7249,-4.7338,-4.7232,-4.6824,-4.6566,-4.6259,-4.5938,-4.5615,-4.5318,-4.514,-4.4639,-4.4282,-4.4099,-4.3593,-4.3308,-4.3299,-4.3564,-4.3625,-4.3514,-4.376,-4.3793,-4.3598,0.0,0.0,0.0,0.0,-4.2451,-4.2373,-4.1774,-4.109,-4.0404,-4.0026,-3.9833,0.0,-3.9319,-3.8942,-3.8556,-3.8234,-3.7698,-3.7164,-3.6907,-3.6754,-3.6693,-3.6554,-3.6492,-3.6492,-3.6492,-3.6492,-3.6492,-3.6492,-3.6492,-3.6492,-3.6492,-3.6492,-3.6398,-3.6068,-3.5941,-3.5735,0.0,-3.5252,-3.5088,0.0,0.0,-3.4361,-3.3709,-3.357,-3.3486,-3.3297,-3.3108,-3.2952,-3.2824,-3.2632,-3.2561,-3.2668,-3.2489,-3.2489,-3.2668,-3.2966,-3.3297,-3.3612,0.0,-3.3902,-3.4088,-3.4122,-3.4142,-3.423,-3.423,-3.4312,-3.4414,-3.4414,-3.4346,-3.423,-3.4074,-3.3902,-3.3709,-3.3536,-3.3227,-3.2846,-3.2739,-3.2561,-3.23,-3.2241,-3.1913,-3.1371,-3.0216,-2.9535,-2.9157,-4.6998,-4.6998,-4.6998,-4.6998,-4.716,-4.7254,-4.7223,-4.7294,-4.7363,-4.7363,-4.7428,-4.732,-4.6893,-4.6566,-4.6235,-4.5887,-4.5589,-4.5291,-4.5005,-4.5005,-4.4886,-4.4598,-4.4615,-4.4265,-4.3561,-4.4058,-4.395,-4.3126,-4.3681,-4.3772,-4.3449,0.0,0.0,0.0,0.0,0.0,0.0,-4.104,-4.0404,-3.9755,-3.9935,-3.9961,-3.9849,-3.9798,-3.9265,-3.8556,-3.8539,-3.7972,-3.7194,-3.706,-3.6862,-3.6723,-3.6554,-3.6492,-3.6492,-3.6492,-3.6492,-3.6492,-3.6492,-3.6492,-3.6492,-3.6492,-3.6492,-3.6429,-3.6132,-3.5926,-3.572,-3.5429,-3.5365,-3.5121,0.0,0.0,-3.4176,-3.3675,-3.3709,-3.3744,-3.3605,-3.3262,-3.3108,-3.3241,-3.2966,0.0,-3.2952,-3.2704,-3.2596,-3.2739,-3.3122,-3.3556,-3.3991,0.0,-3.4264,-3.4597,-3.4481,-3.4414,-3.4414,-3.4414,-3.4414,-3.4414,-3.4414,-3.4414,-3.438,-3.4088,-3.3931,-3.3896,-3.3501,-3.3086,-3.2704,-3.2704,-3.2503,-3.2218,-3.2218,-3.2109,-3.1817,-3.0784,-3.0063,-2.9419,-4.6998,-4.6998,-4.6998,-4.6998,-4.7133,-4.7227,-4.7276,-4.749,-4.7636,-4.7636,-4.7468,-4.7302,-4.7214,-4.6643,-4.6211,-4.6137,-4.5693,-4.5291,-4.5005,-4.5005,-4.4886,-4.4598,-4.4615,-4.4547,-4.4384,-4.4502,-4.4333,-4.3913,-4.4018,-4.3577,-4.2688,0.0,0.0,0.0,0.0,0.0,-4.0906,-4.0206,0.0,-3.9849,-3.9668,-3.959,-3.9537,-3.9255,-3.8876,-3.8403,-3.8246,-3.7873,-3.7405,-3.709,-3.6969,-3.6908,-3.6585,-3.6492,-3.6492,-3.6492,-3.6492,-3.6492,-3.6492,-3.6492,-3.6492,-3.6492,-3.6492,-3.6492,-3.6429,-3.6398,-3.6352,-3.6289,-3.6258,-3.6053,-3.5302,0.0,0.0,-3.364,-3.3501,-3.3396,-3.3361,-3.3276,-3.3206,-3.3072,-3.2988,-3.2917,-3.2775,-3.3157,-3.3262,-3.2988,-3.3486,-3.3744,-3.3709,0.0,-3.4128,0.0,-3.4346,0.0,0.0,0.0,-3.4414,-3.4414,-3.4414,-3.4414,-3.438,-3.4162,-3.4005,-3.3896,-3.364,-3.3241,-3.2704,-3.2704,-3.2503,-3.2218,-3.2218,-3.2182,-3.2059,-3.132,-3.0658,-2.9986,-4.6998,-4.6998,-4.702,-4.7088,-4.7201,-4.7294,-4.7385,-4.7554,-4.7717,-4.7717,-4.7593,-4.7403,-4.7075,-4.6713,-4.6332,-4.593,-4.5641,-4.5353,-4.5005,-4.5005,-4.4886,-4.4598,-4.4615,-4.4615,-4.4615,-4.4181,-4.3839,-4.3528,-4.3143,-4.2605,-4.1926,0.0,0.0,-4.0862,0.0,-4.0523,0.0,0.0,0.0,-3.9901,-3.9849,-3.9807,-3.9755,-3.9372,-3.8969,-3.8572,-3.823,-3.7844,-3.745,-3.7121,-3.7015,-3.6938,-3.6616,-3.6492,-3.6492,-3.6492,-3.6492,-3.6492,-3.6492,-3.6492,-3.6492,-3.6492,-3.6492,-3.6492,-3.6492,-3.6492,-3.6492,-3.6492,-3.6492,-3.6258,-3.5462,-3.4654,0.0,0.0,0.0,-3.357,-3.3466,-3.3361,-3.3276,-3.3157,-3.3157,-3.3157,-3.3157,-3.3577,-3.366,-3.3192,-3.3626,-3.3917,-3.4005,0.0,-3.4196,0.0,0.0,0.0,-3.4414,0.0,0.0,-3.4414,-3.4414,-3.4414,-3.438,-3.4108,-3.3951,-3.3896,-3.3486,-3.3072,-3.2704,-3.2503,-3.235,-3.2218,-3.2218,-3.2218,-3.2132,-3.1468,-3.0972,-3.0495,-4.707,-4.707,-4.7093,-4.7201,-4.7294,-4.7385,-4.749,-4.7615,-4.7717,-4.7717,-4.7657,-4.7403,-4.6911,-4.6731,-4.6398,-4.5693,-4.5607,-4.5311,-4.481,-4.4783,-4.4579,-4.4124,-4.4124,-4.4124,-4.4124,-4.3487,-4.3046,-4.2814,-4.2367,-4.1833,-4.1238,-4.1508,0.0,0.0,0.0,0.0,0.0,0.0,-3.9926,-3.9935,-4.0037,-4.0062,-4.0037,-3.9661,-3.9195,-3.8722,-3.8371,-3.7931,-3.745,-3.7151,-3.703,-3.6938,-3.6616,-3.6492,-3.6492,-3.6492,-3.6492,-3.6492,-3.6492,-3.6492,-3.6492,-3.6492,-3.6492,-3.6492,-3.6492,-3.6492,-3.6492,-3.6492,-3.6429,-3.6163,-3.5332,-3.4802,0.0,0.0,0.0,-3.3793,-3.357,-3.3396,-3.329,-3.329,-3.329,-3.3396,-3.357,-3.3868,-3.3868,-3.3466,-3.3744,-3.402,-3.421,-3.4108,-3.421,0.0,0.0,-3.4346,-3.4414,0.0,-3.4414,-3.4414,-3.4414,-3.4414,-3.438,-3.4054,-3.3896,-3.3862,-3.3248,-3.2846,-3.2596,-3.23,-3.2218,-3.2218,-3.2218,-3.2218,-3.2132,-3.1616,-3.1222,-3.0861,-4.7258,-4.7258,-4.7276,-4.7298,-4.7385,-4.749,-4.7511,-4.7615,-4.7717,-4.7717,-4.749,-4.7254,-4.7002,-4.6542,-4.613,-4.5795,-4.5554,-4.5025,-4.4065,-4.3987,-4.3574,-4.2567,-4.2506,-4.2506,-4.2506,-4.2422,-4.2324,-4.2179,-4.2674,-4.2122,-4.0706,-4.1863,0.0,0.0,0.0,0.0,0.0,-4.0195,-3.9961,-4.0087,-3.9961,-3.9926,-3.9926,-3.9875,-3.9345,-3.8639,-3.8722,-3.8189,-3.748,-3.7254,-3.7105,-3.6938,-3.6616,-3.6492,-3.6492,-3.6492,-3.6492,-3.6492,-3.6492,-3.6492,-3.6492,-3.6492,-3.6492,-3.6492,-3.6492,-3.6492,-3.6492,-3.6492,-3.6273,-3.5863,-3.5299,-3.4902,-3.4428,0.0,0.0,0.0,-3.3361,-3.3326,-3.329,-3.329,-3.329,-3.3396,-3.357,-3.3779,-3.3896,-3.3862,-3.4005,-3.3971,-3.3675,-3.3813,-3.3985,-3.4162,-3.4128,-3.423,-3.4414,-3.4414,-3.4414,-3.4414,-3.4414,-3.4414,-3.438,-3.4054,-3.3896,-3.3862,-3.3248,-3.2775,-3.2417,-3.2277,-3.2218,-3.2218,-3.2218,-3.2218,-3.2182,-3.2132,-3.1656,-3.0898,-4.7302,-4.7302,-4.7341,-4.7407,-4.745,-4.7533,0.0,-4.7675,-4.7717,-4.7717,-4.7615,-4.7403,-4.7043,-4.6749,-4.635,-4.5846,-4.5632,-4.5096,-4.4094,-4.4017,-4.3578,-4.2584,-4.2445,-4.2409,-4.2409,-4.1916,-4.1574,-4.1432,-4.1665,-4.1395,-4.0617,0.0,0.0,0.0,0.0,-4.0503,-4.0951,-4.0307,-4.0062,-4.0113,-4.0037,-4.0011,-3.9986,-3.9713,-3.9222,-3.8694,-3.8455,-3.7988,-3.748,-3.7254,-3.7089,-3.6954,-3.6708,-3.6569,-3.6492,-3.6492,-3.6492,-3.6492,-3.6492,-3.6492,-3.6492,-3.6492,-3.6492,-3.6492,-3.6492,-3.6492,-3.6492,-3.6492,-3.6398,-3.6163,-3.5767,-3.5477,-3.5085,-3.4467,0.0,0.0,0.0,-3.375,-3.3612,-3.3612,-3.3417,-3.3431,-3.3744,-3.3862,-3.3917,-3.4005,-3.4074,-3.4025,-3.3902,-3.3882,0.0,-3.4094,0.0,-3.4074,-3.423,-3.423,-3.4264,-3.4414,-3.4414,-3.4346,-3.4196,-3.3985,-3.364,-3.3143,-3.281,-3.2503,-3.2264,-3.2205,-3.2218,-3.2218,-3.2218,-3.2218,-3.2218,-3.2218,-3.1913,-3.1471,-4.7407,-4.7407,-4.7446,-4.7533,-4.7554,-4.7593,-4.7696,-4.7717,-4.7627,-4.7391,-4.7355,-4.7168,-4.6708,-4.6532,-4.61,-4.5209,-4.499,-4.45,-4.3486,-4.3409,-4.3014,-4.2091,-4.1955,0.0,-4.1843,-4.1256,-4.0865,-4.0736,-4.0903,0.0,0.0,0.0,0.0,0.0,-4.0404,-4.0415,-4.0693,-4.0282,-4.0096,-4.0096,-4.0096,-4.0096,-4.0045,-3.9592,-3.9142,-3.875,-3.8286,-3.7844,-3.748,-3.7329,-3.7195,-3.7014,-3.6785,-3.66,-3.6492,-3.6492,-3.6492,-3.6492,-3.6492,-3.6492,-3.6492,-3.6492,-3.6492,-3.6492,-3.6492,-3.6492,-3.6492,-3.6492,-3.6492,-3.6398,-3.6068,-3.5863,-3.5591,-3.5001,0.0,0.0,0.0,-3.4162,-3.3908,-3.3805,-3.3577,-3.3556,-3.3862,-3.3896,-3.3985,-3.4162,-3.4196,-3.4128,-3.404,0.0,0.0,0.0,0.0,0.0,-3.4196,-3.4128,-3.4196,-3.4414,-3.4414,-3.4346,-3.4162,-3.3917,-3.3417,-3.2704,-3.2489,-3.2322,-3.2218,-3.2218,-3.2218,-3.2218,-3.2218,-3.2218,-3.2218,-3.2218,-3.2073,-3.1817,-4.7696,-4.7696,-4.7696,-4.7696,-4.7717,-4.7717,-4.7717,-4.7717,-4.7428,-4.6631,-4.6522,-4.6338,-4.5873,-4.5699,-4.5039,-4.3659,-4.3395,-4.2911,-4.1906,-4.183,-4.1437,0.0,0.0,-4.0453,-4.0322,-4.0322,-4.0255,-4.0113,0.0,0.0,-3.9934,0.0,-4.0879,-4.1002,-4.0985,-4.0669,-4.0113,-4.0096,-4.0096,-4.0096,-4.0096,-4.0096,-4.0045,-3.9592,-3.9142,-3.875,-3.8286,-3.7844,-3.751,-3.751,-3.7359,-3.7134,-3.6816,-3.66,-3.6492,-3.6492,-3.6492,-3.6492,-3.6492,-3.6492,-3.6492,-3.6492,-3.6492,-3.6492,-3.6492,-3.6492,-3.6492,-3.6492,-3.6492,-3.6398,-3.6068,-3.6005,-3.575,-3.5034,0.0,0.0,0.0,-3.4414,-3.423,-3.3839,-3.3805,-3.3819,-3.3882,-3.3896,-3.4054,0.0,0.0,0.0,0.0,0.0,0.0,-3.4094,-3.3985,0.0,-3.438,-3.4196,-3.4196,-3.4414,-3.4414,-3.4414,-3.438,-3.3848,-3.3262,-3.2704,-3.2489,-3.2322,-3.2218,-3.2218,-3.2218,-3.2218,-3.2218,-3.2218,-3.2218,-3.2218,-3.2073,-3.1817,-4.7717,-4.7717,-4.7717,-4.7717,-4.7717,-4.7717,-4.7717,-4.7246,-4.6794,-4.654,-4.6015,-4.5371,-4.4543,-4.4638,-4.4541,0.0,-4.3523,-4.295,0.0,-4.1992,-4.1591,-4.081,-4.0697,-4.0624,-4.0576,-4.0485,-4.0362,-4.0255,0.0,0.0,0.0,-4.0894,-4.0742,-4.0392,-4.0392,-4.0282,-4.0096,-4.0096,-4.0096,-4.0096,-4.0096,-4.0096,-4.007,-3.9944,-3.9435,-3.8777,-3.8623,-3.8103,-3.751,-3.751,-3.7359,-3.7194,-3.7074,-3.6938,-3.6816,-3.6677,-3.6631,-3.6616,-3.6523,-3.6492,-3.6492,-3.6492,-3.6492,-3.6492,-3.6492,-3.6492,-3.6492,-3.6492,-3.6492,-3.646,-3.6367,-3.6336,-3.6226,-3.5863,-3.5799,0.0,-3.5524,0.0,-3.5023,-3.4909,-3.4691,-3.4505,-3.4462,-3.4428,0.0,0.0,0.0,0.0,0.0,0.0,0.0,0.0,-3.3985,0.0,-3.4054,-3.4108,-3.4128,-3.4196,-3.4346,-3.421,-3.3848,-3.3403,-3.2931,-3.2489,-3.2336,-3.2241,-3.2218,-3.2218,-3.2218,-3.2218,-3.2218,-3.2218,-3.2218,-3.2218,-3.2073,-3.1853,-4.7717,-4.7717,-4.7717,-4.7717,-4.7717,-4.7609,-4.7301,-4.683,-4.6287,-4.5689,-4.5164,-4.4509,-4.3558,-4.3635,0.0,-4.3265,-4.2836,-4.2343,-4.1821,-4.1715,-4.1443,-4.0929,-4.0817,-4.0745,-4.0697,-4.0624,0.0,-4.0305,-4.0696,-4.0866,-4.0781,-4.0695,-4.0467,-4.0096,-4.0096,-4.0096,-4.0096,-4.0096,-4.0096,-4.0096,-4.0096,-4.0096,-4.007,-3.9918,-3.9408,-3.8777,-3.8595,-3.8075,-3.751,-3.751,-3.7435,-3.73,-3.73,-3.7255,-3.7121,-3.6785,-3.6662,-3.66,-3.6523,-3.6492,-3.6492,-3.6492,-3.6492,-3.6492,-3.6492,-3.6492,-3.6492,-3.6492,-3.6492,-3.6492,-3.6492,-3.6492,-3.6414,-3.6242,-3.6196,-3.6148,-3.6037,0.0,-3.5576,-3.5432,-3.5204,-3.5004,0.0,-3.4698,-3.4631,0.0,0.0,0.0,0.0,0.0,0.0,-3.4196,-3.4074,-3.402,-3.4088,-3.404,-3.4108,-3.4196,-3.4264,-3.404,-3.3605,-3.3178,-3.2775,-3.2381,-3.2277,-3.2218,-3.2218,-3.2218,-3.2218,-3.2218,-3.2218,-3.2146,-3.2109,-3.2109,-3.1963,-3.1743,-4.7717,-4.7717,-4.7717,-4.7717,-4.7717,-4.7446,-4.6631,-4.645,-4.5852,-4.4295,-4.4041,-4.3715,-4.2992,-4.2709,-4.2409,-4.1888,0.0,0.0,-4.114,-4.1093,-4.1047,-4.0935,-4.0894,-4.084,-4.0721,-4.0697,-4.0576,-4.0305,-4.0163,-4.0096,-4.0096,-4.0096,-4.0096,-4.0096,-4.0096,-4.0096,-4.0096,-4.0096,-4.0096,-4.0096,-4.0096,-4.0096,-4.0045,-3.9618,-3.9195,-3.8761,-3.8315,-3.7902,-3.7539,-3.751,-3.751,-3.751,-3.751,-3.748,-3.7375,-3.6877,-3.6662,-3.6554,-3.6554,-3.6523,-3.6523,-3.6523,-3.6523,-3.6523,-3.6492,-3.6492,-3.6492,-3.6492,-3.6492,-3.6492,-3.6492,-3.6492,-3.6445,-3.6242,-3.6211,-3.6179,-3.6068,-3.6037,-3.5894,-3.5529,0.0,0.0,-3.4783,-3.4765,-3.465,0.0,0.0,0.0,0.0,0.0,-3.4298,-3.4356,-3.4172,-3.4138,-3.4308,-3.4059,-3.4054,-3.4346,-3.4162,-3.3902,-3.3536,-3.3143,-3.2775,-3.2381,-3.2241,-3.2218,-3.2218,-3.2218,-3.2218,-3.2218,-3.2218,-3.2109,-3.1927,-3.189,-3.178,-3.1572,0.0,0.0,-4.7717,-4.7717,-4.7717,-4.7446,-4.6631,-4.5979,-4.5236,-4.4222,-4.357,-4.3118,-4.2919,-4.2709,-4.255,-4.2412,-4.1995,-4.1604,-4.1353,-4.1186,-4.1087,-4.1047,-4.0959,-4.0888,-4.0847,-4.0745,-4.0576,-4.0305,-4.0163,-4.0096,-4.0096,-4.0096,-4.0096,-4.0096,-4.0096,-4.0096,-4.0096,-4.0096,-4.0096,-4.0096,-4.0096,-4.0096,-4.007,-3.9969,-3.9644,-3.9206,-3.8788,-3.8343,-3.7915,-3.7612,-3.751,-3.751,-3.751,-3.7405,-3.7254,-3.7134,-3.7074,-3.7013,-3.6908,-3.6877,-3.6877,-3.6877,-3.677,-3.6631,-3.6523,-3.6492,-3.6492,-3.6492,-3.6492,-3.6492,-3.6492,-3.6492,-3.6492,-3.6445,-3.6414,-3.6429,-3.6398,-3.6398,-3.6367,-3.6258,-3.6242,-3.599,-3.5285,-3.5219,-3.5004,0.0,0.0,0.0,-3.3721,-3.3224,-3.318,-3.3707,-3.3655,-3.3589,-3.3489,-3.3863,-3.404,-3.402,-3.3813,-3.3521,-3.3143,-3.2881,-3.2574,-3.2241,-3.2205,-3.2218,-3.2218,-3.2218,-3.2218,-3.2218,-3.2218,-3.2182,-3.2109,-3.1963,-3.178,-3.1572,-4.7717,-4.7717,-4.7717,-4.7717,-4.7717,-4.7319,-4.6142,-4.558,-4.4874,-4.3697,-4.3173,-4.2901,-4.2901,-4.2805,-4.2689,-4.2609,-4.2145,-4.178,-4.1604,-4.1375,-4.1215,-4.1152,-4.1053,-4.0982,-4.0982,-4.0864,-4.0697,-4.0478,-4.0362,-4.0246,-4.0188,-4.0188,-4.0163,-4.0096,-4.0096,-4.0096,-4.0096,-4.0096,-4.0096,-4.0096,-4.0096,-4.0096,-4.0096,-4.0096,-3.9799,-3.9365,-3.9169,-3.8788,-3.8343,-3.7931,-3.7756,-3.7743,-3.7553,-3.7435,-3.7329,-3.7329,-3.724,-3.7089,-3.703,-3.7015,-3.6969,-3.6908,-3.6785,-3.6662,-3.6523,-3.6492,-3.6492,-3.6492,-3.6492,-3.6492,-3.6492,-3.6492,-3.6492,-3.6492,-3.6492,-3.6492,-3.6492,-3.6492,-3.6492,-3.6492,-3.6492,-3.6211,-3.5464,-3.54,-3.5002,-3.406,-3.3707,0.0,-3.305,-3.2425,-3.2498,-3.3474,-3.3503,-3.3568,-3.3758,-3.4057,-3.4074,-3.3744,-3.3744,-3.3486,-3.2988,-3.281,-3.2503,-3.2218,-3.2218,-3.2218,-3.2218,-3.2218,-3.2218,-3.2218,-3.2218,-3.2146,-3.2036,-3.1853,-3.1633,-3.1434,-4.7717,-4.7717,-4.7717,-4.7717,-4.7717,-4.7174,-4.5544,-4.5291,-4.4711,-4.3118,-4.2901,-4.2901,-4.2901,-4.2901,-4.2825,-4.265,-4.2251,-4.1956,-4.1823,-4.1604,-4.1386,-4.1232,-4.1169,-4.1117,-4.1093,-4.0935,-4.0817,-4.0673,-4.0558,-4.0436,-4.033,-4.033,-4.0263,-4.0163,-4.0138,-4.0121,-4.0138,-4.0113,-4.0096,-4.0096,-4.0096,-4.0096,-4.0096,-4.0096,-3.985,-3.9513,-3.9435,-3.9195,-3.8816,-3.8371,-3.8173,-3.803,-3.7685,-3.7569,-3.751,-3.751,-3.7301,-3.7076,-3.7076,-3.7076,-3.703,-3.6816,-3.6785,-3.6723,-3.6585,-3.6523,-3.6523,-3.6492,-3.6492,-3.6492,-3.6492,-3.6492,-3.6492,-3.6492,-3.6492,-3.6492,-3.6492,0.0,-3.6492,-3.6492,-3.6492,-3.6211,-3.5576,-3.5389,-3.4847,-3.3664,-3.338,-3.2998,-3.2365,-3.1729,-3.1975,-3.3314,-3.3358,-3.3674,-3.4332,-3.4346,-3.4108,-3.364,-3.3744,-3.3556,-3.3037,-3.2775,-3.2503,-3.2241,-3.2218,-3.2218,-3.2218,-3.2218,-3.2218,-3.2218,-3.2218,-3.2109,-3.1927,-3.172,-3.1522,-3.1323,-4.7717,-4.7717,-4.7717,-4.7717,-4.7717,-4.7174,-4.5544,-4.5291,-4.4711,-4.3118,-4.2901,-4.2901,-4.2901,-4.2901,-4.2882,-4.2862,-4.2631,-4.231,-4.1913,-4.1784,-4.1626,-4.138,-4.1249,-4.1175,-4.1093,-4.0858,-4.0673,-4.0534,-4.051,-4.0485,-4.0485,-4.0485,-4.0461,-4.0419,-4.0313,-4.028,-4.0263,-4.0163,-4.0096,-4.0096,-4.0096,-4.0096,-4.0096,-4.0096,-4.0045,-3.9944,-3.954,-3.9355,-3.9232,-3.8816,-3.8427,-3.8087,-3.803,-3.7756,-3.751,-3.751,-3.745,-3.7421,-3.7421,-3.7421,-3.7375,-3.7164,-3.7134,-3.7043,-3.6754,-3.6662,-3.6631,-3.6523,-3.6492,-3.6492,-3.6492,-3.6492,-3.6492,-3.6492,-3.6492,-3.6492,-3.6492,0.0,-3.6492,-3.6492,-3.6492,-3.6352,-3.5941,-3.5379,-3.4734,-3.3977,-3.2867,-3.2068,-3.1685,-3.1061,-3.1322,-3.2629,-3.2672,-3.3126,-3.4147,-3.4162,-3.404,-3.3862,-3.3536,-3.3347,-3.3241,-3.2668,-3.2417,-3.2359,-3.2241,-3.2218,-3.2218,-3.2218,-3.2218,-3.2218,-3.2218,-3.2182,-3.2146,-3.1927,-3.172,-3.1522,-4.7717,-4.7717,-4.7717,-4.7717,-4.7717,-4.7174,-4.5544,-4.5291,-4.4711,-4.3118,-4.2901,-4.2901,-4.2901,-4.2901,-4.2901,-4.2901,-4.2824,-4.2631,-4.231,-4.2019,-4.1805,-4.1675,-4.1431,-4.1244,-4.1093,-4.0976,-4.084,-4.0728,-4.0728,-4.068,-4.0624,-4.0624,-4.0558,-4.0493,-4.0362,-4.0305,-4.0288,-4.0163,-4.0096,-4.0096,-4.0096,-4.0096,-4.0096,-4.0096,-4.0096,-4.007,-3.985,-3.9773,-3.9696,-3.9276,-3.8963,-3.8717,-3.8242,-3.7972,-3.7801,-3.7553,-3.751,-3.751,-3.751,-3.751,-3.7435,-3.7254,-3.7194,-3.7104,-3.6785,-3.6693,-3.6662,-3.6523,-3.6492,-3.6492,-3.6492,-3.6492,-3.6492,-3.6492,-3.6492,0.0,-3.6492,-3.6492,-3.6492,-3.6492,-3.6492,-3.6367,-3.6037,-3.5397,-3.4634,-3.3791,-3.2823,-3.1974,-3.126,-3.0953,-3.1346,-3.2452,-3.3148,-3.3719,-3.4094,-3.4196,-3.4074,-3.3744,-3.364,-3.3452,-3.3122,-3.2846,-3.2596,-3.2381,-3.2322,-3.2277,-3.2218,-3.2218,-3.2218,-3.2218,-3.2218,-3.2218,-3.2146,-3.1853,-3.1683,-3.1572,-4.7738,-4.7762,-4.7762,-4.7759,-4.7738,-4.7195,-4.5544,-4.5291,-4.4711,-4.3118,-4.2901,-4.2901,-4.2901,-4.2901,-4.2901,-4.2901,-4.2901,-4.2825,-4.267,-4.229,-4.2002,-4.1895,-4.1565,-4.133,-4.1186,-4.1117,-4.1047,-4.0959,-4.0912,-4.084,-4.0745,-4.0745,-4.0655,-4.0534,-4.0412,-4.033,-4.0288,-4.0163,-4.0096,-4.0096,-4.0096,-4.0096,-4.0096,-4.0096,-4.0096,-4.0096,-4.0096,-4.0096,-4.0045,-3.9696,-3.9487,-3.9259,-3.8523,-3.8214,-3.8059,-3.7655,-3.7539,-3.751,-3.751,-3.751,-3.7435,-3.7254,-3.7194,-3.7104,-3.6785,-3.6693,-3.6662,-3.6523,-3.6492,-3.6492,-3.6492,-3.6492,-3.6492,-3.6492,0.0,-3.6492,-3.6492,-3.6492,-3.6492,-3.6492,-3.6492,-3.6337,-3.5918,-3.5262,-3.4471,-3.3472,-3.2751,-3.2019,-3.1161,-3.1117,-3.1603,-3.2691,-3.3812,-3.4312,-3.4094,-3.4312,-3.4142,-3.3675,-3.3827,-3.3626,-3.3143,-3.3058,-3.281,-3.2489,-3.2417,-3.2322,-3.2218,-3.2218,-3.2218,-3.2218,-3.2218,-3.2218,-3.2146,-3.1853,-3.1683,-3.1572,-4.7899,-4.7927,-4.797,-4.7902,-4.7899,-4.7295,-4.5564,-4.5291,-4.4711,-4.3118,-4.2901,-4.2901,-4.2901,-4.2901,-4.2901,-4.2901,-4.2901,-4.2882,-4.2881,-4.267,-4.2351,-4.1917,-4.1565,-4.1403,-4.138,-4.121,-4.1111,-4.1087,-4.0959,-4.0894,-4.0888,-4.0888,-4.0817,-4.0673,-4.0534,-4.0412,-4.0288,-4.0163,-4.0096,-4.0096,-4.0096,-4.0096,-4.0096,-4.0096,-4.0096,-4.0096,-4.0096,-4.0096,-4.0096,-4.0045,-3.9747,-3.9355,-3.9034,-3.865,-3.8201,-3.7801,-3.7599,-3.751,-3.751,-3.751,-3.7435,-3.7254,-3.7194,-3.7104,-3.6785,-3.6693,-3.6662,-3.6523,-3.6492,-3.6492,-3.6492,-3.6492,-3.6492,-3.6492,0.0,0.0,-3.6492,-3.6492,-3.6492,-3.6492,-3.6492,-3.6245,-3.5584,-3.4937,-3.4113,-3.3105,-3.2423,-3.1856,-3.1495,-3.1451,-3.2079,-3.3393,-3.4076,-3.4312,-3.4094,-3.4312,-3.421,-3.3896,-3.3896,-3.3793,-3.3536,-3.3178,-3.2881,-3.2668,-3.2489,-3.2322,-3.2218,-3.2218,-3.2218,-3.2218,-3.2218,-3.2218,-3.2218,-3.2182,-3.1927,-3.1609,-4.7947,-4.799,-4.7992,-4.7968,-4.7925,-4.7336,-4.5662,-4.5349,-4.4711,-4.3118,-4.2901,-4.2901,-4.2901,-4.2901,-4.2901,-4.2901,-4.2901,-4.2901,-4.2901,-4.2843,-4.2611,-4.2166,-4.187,-4.1697,-4.1648,-4.1403,-4.1215,-4.1093,-4.1047,-4.0982,-4.0912,-4.0912,-4.084,-4.0697,-4.0558,-4.0436,-4.0288,-4.0163,-4.0096,-4.0096,-4.0096,-4.0096,-4.0096,-4.0096,-4.0096,-4.0096,-4.0096,-4.0096,-4.0096,-4.0096,-3.9969,-3.979,-3.9382,-3.9007,-3.8595,-3.8004,-3.773,-3.7612,-3.7612,-3.7569,-3.7435,-3.7254,-3.7194,-3.7104,-3.6785,-3.6693,-3.6662,-3.6523,-3.6492,-3.6492,-3.6492,-3.6492,-3.6492,-3.6492,0.0,-3.6492,-3.6492,-3.6492,-3.6492,-3.6492,-3.6122,-3.5799,-3.5537,-3.446,-3.3677,-3.3272,-3.2629,-3.2135,-3.184,-3.2405,-3.3155,-3.4099,-3.4496,-3.4668,-3.4601,-3.4668,-3.4467,-3.4005,-3.3951,-3.3793,-3.3605,-3.3312,-3.3072,-3.2881,-3.2668,-3.2503,-3.2322,-3.2241,-3.2218,-3.2218,-3.2218,-3.2218,-3.2182,-3.2073,-3.1927,-3.178,-4.805,-4.8072,-4.8092,-4.807,-4.8028,-4.7438,-4.578,-4.5467,-4.4827,-4.3194,-4.2976,-4.2976,-4.2976,-4.2975,-4.2957,-4.2957,-4.2919,-4.2901,-4.2901,-4.2901,-4.2767,-4.2409,-4.2166,-4.1956,-4.1845,-4.1626,-4.1403,-4.1123,-4.1117,-4.1047,-4.0912,-4.0912,-4.084,-4.0697,-4.0558,-4.0436,-4.0288,-4.0163,-4.0096,-4.0096,-4.0096,-4.0096,-4.0096,-4.0096,-4.0096,-4.0096,-4.0096,-4.0096,-4.0096,-4.0096,-4.0096,-4.002,-3.9618,-3.9249,-3.8887,-3.8274,-3.7976,-3.7801,-3.773,-3.7599,-3.7435,-3.7254,-3.7194,-3.7134,-3.6846,-3.68,-3.677,-3.6677,-3.6616,-3.6554,-3.6554,-3.6523,-3.6492,-3.6492,-3.6492,-3.6492,-3.6492,-3.6492,-3.6415,-3.6199,-3.5799,-3.5337,-3.4876,-3.3967,-3.3306,-3.3106,-3.2659,-3.2407,-3.2455,-3.3091,-3.3789,-3.4499,-3.467,-3.4703,-3.4592,-3.4695,-3.4501,-3.404,-3.3985,-3.3882,-3.3675,-3.3501,-3.3276,-3.3072,-3.2881,-3.2632,-3.2381,-3.23,-3.2241,-3.2218,-3.2218,-3.2218,-3.2182,-3.1963,-3.189,-3.1853,-4.8187,-4.8247,-4.8267,-4.8207,-4.8187,-4.7619,-4.5878,-4.5603,-4.502,-4.3415,-4.3214,-4.3214,-4.3214,-4.3142,-4.3104,-4.3104,-4.2975,-4.2901,-4.2901,-4.2901,-4.2824,-4.2609,-4.2409,-4.2166,-4.1895,-4.1845,-4.1609,-4.1192,-4.1146,-4.1047,-4.0912,-4.0912,-4.084,-4.0697,-4.0558,-4.0436,-4.0288,-4.0163,-4.0096,-4.0096,-4.0096,-4.0096,-4.0096,-4.0096,-4.0096,-4.0096,-4.0096,-4.0096,-4.0096,-4.0096,-4.0096,-4.0045,-3.9764,-3.9372,-3.8942,-3.8678,-3.8371,-3.8059,-3.7772,-3.7628,-3.7464,-3.7254,-3.7194,-3.7164,-3.703,-3.7015,-3.7015,-3.7015,-3.6831,-3.6693,-3.6693,-3.66,-3.6492,-3.6492,-3.6492,-3.6492,-3.6492,-3.6492,-3.6245,-3.5598,-3.5506,-3.4937,-3.3537,-3.3398,-3.3121,-3.2444,-3.2398,-3.269,-3.3367,-3.3398,-3.3737,-3.4474,-3.4505,-3.4297,-3.3894,-3.4224,-3.4244,-3.3882,-3.4025,-3.404,-3.3896,-3.3675,-3.3501,-3.329,-3.3108,-3.2775,-3.2417,-3.2417,-3.2322,-3.2218,-3.2218,-3.2218,-3.2182,-3.1963,-3.189,-3.1853,-4.8267,-4.8287,-4.8287,-4.8286,-4.775,-4.6979,-4.59,-4.5185,-4.4381,-4.3342,-4.3214,-4.3214,-4.3214,-4.3178,-4.316,-4.3104,-4.3049,-4.2994,-4.2919,-4.2901,-4.2863,-4.2824,-4.2611,-4.2472,-4.2391,-4.2061,-4.1784,-4.1609,-4.1318,-4.1129,-4.1047,-4.0935,-4.084,-4.0697,-4.0673,-4.0576,-4.0436,-4.0412,-4.037,-4.037,-4.037,-4.0337,-4.0238,-4.0238,-4.0188,-4.0096,-4.0096,-4.0096,-4.0096,-4.0096,-4.0096,-4.0045,-3.9764,-3.9582,-3.9425,-3.9115,-3.8745,-3.8427,-3.8359,-3.8062,-3.77,-3.7314,-3.7194,-3.7164,-3.703,-3.7015,-3.7015,-3.7015,-3.6938,-3.6908,-3.6908,-3.677,-3.6631,-3.6631,-3.6554,-3.6492,-3.6492,-3.6492,-3.6415,-3.6215,-3.5799,-3.5167,-3.4274,-3.369,-3.3121,-3.2444,-3.2398,-3.269,-3.3367,-3.3398,-3.3737,-3.4474,-3.4238,-3.4029,-3.3894,-3.4213,-3.4224,-3.3911,-3.3941,-3.3951,-3.3896,-3.3536,-3.3361,-3.329,-3.3108,-3.2846,-3.2596,-3.2453,-3.2322,-3.2218,-3.2218,-3.2218,-3.2182,-3.2146,-3.2036,-3.189,-4.8287,-4.8306,-4.8306,-4.8306,-4.7607,-4.6781,-4.5956,-4.5096,-4.4236,-4.3414,-4.3304,-4.3304,-4.3304,-4.3286,-4.3269,-4.3233,-4.3141,-4.303,-4.2919,-4.2901,-4.2901,-4.2901,-4.2786,-4.267,-4.2609,-4.2331,-4.2061,-4.1801,-4.1498,-4.1267,-4.1093,-4.0959,-4.0864,-4.0769,-4.0721,-4.0648,-4.0583,-4.0534,-4.051,-4.051,-4.051,-4.0461,-4.0387,-4.0387,-4.0288,-4.0188,-4.0188,-4.0163,-4.0096,-4.0096,-3.991,-3.9648,-3.9472,-3.9421,-3.9421,-3.9404,-3.9169,-3.8898,-3.8805,-3.85,-3.816,-3.774,-3.7551,-3.7449,-3.7375,-3.7361,-3.7361,-3.7301,-3.7195,-3.7135,-3.7075,-3.6953,-3.68,-3.6723,-3.6631,-3.6554,-3.6523,-3.6492,-3.6384,-3.6122,-3.5737,-3.5244,-3.4566,-3.3814,-3.3121,-3.2444,-3.2398,-3.269,-3.3367,-3.3152,-3.3321,-3.4029,-3.3579,-3.331,-3.331,-3.3638,-3.3783,-3.3706,-3.3602,-3.3671,-3.3869,-3.3138,-3.2928,-3.3105,-3.261,-3.2291,-3.2118,-3.1978,-3.1768,-3.157,-3.157,-3.1684,-3.1829,-3.1672,-3.1725,-3.1853,-4.8306,-4.8306,-4.8306,-4.8306,-4.7571,-4.6746,-4.6012,-4.5168,-4.4342,-4.3606,-4.3515,-4.3515,-4.3515,-4.3446,-4.3412,-4.3394,-4.3233,-4.3068,-4.292,-4.2938,-4.2938,-4.2938,-4.2938,-4.2843,-4.2668,-4.2629,-4.2351,-4.1845,-4.1692,-4.1426,-4.1117,-4.0982,-4.0912,-4.0894,-4.0769,-4.0721,-4.0697,-4.0583,-4.0534,-4.0534,-4.0534,-4.0534,-4.051,-4.0493,-4.0412,-4.0305,-4.0305,-4.0162,-3.9994,-3.9926,-3.9469,-3.8903,-3.8903,-3.8903,-3.8973,-3.9421,-3.9432,-3.9282,-3.9032,-3.8892,-3.8761,-3.8439,-3.8217,-3.7976,-3.7889,-3.7876,-3.7847,-3.77,-3.7537,-3.7358,-3.7254,-3.7105,-3.6969,-3.6785,-3.6723,-3.6693,-3.6554,-3.6523,-3.6261,-3.5598,-3.5506,-3.5213,-3.4474,-3.3737,-3.3059,-3.2444,-3.2398,-3.2659,-3.3275,-3.2736,-3.2675,-3.329,-3.2721,-3.2398,-3.2398,-3.2715,-3.3004,-3.3364,-3.3099,-3.3282,-3.3762,-3.2583,-3.2315,-3.2763,-3.1924,-3.1419,-3.1185,-3.1185,-3.097,-3.0624,-3.0624,-3.0876,-3.1205,-3.0824,-3.1177,-3.1736,-4.8306,-4.8306,-4.8306,-4.8306,-4.7113,-4.6104,-4.592,-4.4672,-4.3699,-4.3533,-4.3515,-4.3515,-4.3515,-4.3497,-4.3464,-4.3394,-4.3269,-4.316,-4.3123,-4.3123,-4.3123,-4.3123,-4.3123,-4.3105,-4.3068,-4.2747,-4.247,-4.2184,-4.1888,-4.1542,-4.118,-4.1099,-4.1,-4.0912,-4.0864,-4.0864,-4.0847,-4.084,-4.0799,-4.0799,-4.0799,-4.0769,-4.0648,-4.0534,-4.0412,-4.0305,-4.0188,-3.9765,-3.914,-3.8565,-3.8278,-3.8142,-3.8142,-3.8142,-3.8152,-3.8256,-3.8514,-3.8747,-3.8696,-3.8913,-3.9098,-3.9017,-3.8963,-3.8689,-3.7918,-3.773,-3.77,-3.7553,-3.7494,-3.7464,-3.7435,-3.727,-3.7134,-3.7104,-3.6998,-3.6877,-3.6693,-3.6662,-3.6384,-3.5598,-3.5506,-3.5028,-3.3752,-3.3013,-3.2552,-3.2398,-3.2398,-3.2459,-3.2613,-3.2475,-3.2459,-3.2613,-3.2475,-3.2398,-3.2398,-3.2481,-3.2697,-3.3018,-3.2956,-3.3002,-3.3103,-3.2559,-3.2252,-3.2107,-3.1899,-3.1575,-3.1185,-3.1185,-3.1071,-3.0827,-3.0827,-3.089,-3.0966,-3.0726,-3.0934,-3.1339,-4.8306,-4.8306,-4.8306,-4.8306,-4.6966,-4.5902,-4.5902,-4.4525,-4.3515,-4.3515,-4.3515,-4.3515,-4.3515,-4.3515,-4.3463,-4.3412,-4.334,-4.3269,-4.3196,-4.3214,-4.3214,-4.3214,-4.3214,-4.3214,-4.3214,-4.2994,-4.2767,-4.2494,-4.2169,-4.1831,-4.1475,-4.1215,-4.1047,-4.0982,-4.0935,-4.0912,-4.0912,-4.0912,-4.0912,-4.0912,-4.0912,-4.0817,-4.0697,-4.0624,-4.0461,-4.0254,-3.9823,-3.9156,-3.8362,-3.7618,-3.7381,-3.7381,-3.7381,-3.7381,-3.7432,-3.7804,-3.808,-3.8261,-3.8261,-3.8413,-3.853,-3.8369,-3.8626,-3.8782,-3.8334,-3.8217,-3.8119,-3.7759,-3.77,-3.7642,-3.7539,-3.7405,-3.73,-3.7224,-3.715,-3.7044,-3.6862,-3.6536,-3.6134,-3.5657,-3.5303,-3.4656,-3.3506,-3.3075,-3.2736,-3.2413,-3.2398,-3.2398,-3.2398,-3.2398,-3.2398,-3.2398,-3.2398,-3.2398,-3.2398,-3.2398,-3.2483,-3.2667,-3.2539,-3.2602,-3.2794,-3.2056,-3.1776,-3.1832,-3.1435,-3.1037,-3.0697,-3.0697,-3.0475,-3.0169,-3.0169,-3.0316,-3.0433,-3.0132,-3.0241,-3.0529,-4.8306,-4.8306,-4.8306,-4.8306,-4.6966,-4.5902,-4.5902,-4.4525,-4.3515,-4.3515,-4.3515,-4.3515,-4.3515,-4.3515,-4.348,-4.3411,-4.3429,-4.3376,-4.3269,-4.325,-4.325,-4.325,-4.325,-4.325,-4.325,-4.325,-4.3069,-4.2731,-4.2438,-4.2151,-4.1849,-4.142,-4.121,-4.1146,-4.1006,-4.0935,-4.0912,-4.0912,-4.0912,-4.0912,-4.0912,-4.084,-4.0721,-4.0697,-4.0466,-4.0065,-3.9469,-3.8591,-3.7608,-3.6863,-3.6586,-3.6586,-3.6586,-3.6586,-3.6728,-3.733,-3.7601,-3.7719,-3.7719,-3.7804,-3.7817,-3.7556,-3.807,-3.8706,-3.8764,-3.8789,-3.8667,-3.8091,-3.7976,-3.786,-3.7599,-3.7539,-3.7464,-3.7284,-3.7254,-3.7163,-3.6904,-3.6343,-3.5815,-3.545,-3.4756,-3.4048,-3.329,-3.3229,-3.2998,-3.2428,-3.2398,-3.2398,-3.2398,-3.2398,-3.2398,-3.2398,-3.2398,-3.2398,-3.2398,-3.2398,-3.2398,-3.2398,-3.2135,-3.2213,-3.2538,-3.1574,-3.1338,-3.1643,-3.0951,-3.0462,-3.008,-3.008,-2.9834,-2.9415,-2.9415,-2.9627,-2.9859,-2.9574,-2.9558,-2.9691,-4.8344,-4.8306,-4.8306,-4.8306,-4.6966,-4.5902,-4.5902,-4.4525,-4.3515,-4.3515,-4.3515,-4.3515,-4.3515,-4.3515,-4.3497,-4.3497,-4.3497,-4.348,-4.3463,-4.3463,-4.3463,-4.3463,-4.3463,-4.3463,-4.3463,-4.3463,-4.3268,-4.2863,-4.2711,-4.2458,-4.2133,-4.1849,-4.1582,-4.1346,-4.1169,-4.1023,-4.0912,-4.0912,-4.0912,-4.0912,-4.0912,-4.0888,-4.0864,-4.0745,-4.0261,-3.9596,-3.9433,-3.8376,-3.691,-3.6051,-3.5752,-3.5752,-3.5752,-3.5752,-3.5769,-3.587,-3.64,-3.6948,-3.6948,-3.7398,-3.7882,-3.7841,-3.8398,-3.8898,-3.8672,-3.8808,-3.8816,-3.8343,-3.8258,-3.8116,-3.7759,-3.7671,-3.7628,-3.7464,-3.7464,-3.72,-3.644,-3.6238,-3.5663,-3.4304,-3.3401,-3.2783,-3.2564,-3.2536,-3.249,-3.2398,-3.2398,-3.2398,-3.2398,-3.2398,-3.2398,-3.2398,-3.2398,-3.2398,-3.2398,-3.2398,-3.2398,-3.2398,-3.2247,-3.214,-3.209,-3.1814,-3.1497,-3.1102,-3.0969,-3.0628,-3.008,-3.008,-2.9896,-2.9571,-2.9571,-2.9533,-2.9515,-2.9621,-2.949,-2.9335,-4.8495,-4.8382,-4.8159,-4.77,-4.6673,-4.5755,-4.5296,-4.425,-4.3515,-4.3515,-4.3515,-4.3515,-4.3515,-4.3515,-4.3515,-4.3515,-4.3515,-4.3515,-4.3515,-4.3515,-4.3515,-4.3515,-4.3515,-4.3515,-4.3515,-4.3515,-4.341,-4.325,-4.2957,-4.2692,-4.2478,-4.2127,-4.1849,-4.1609,-4.1363,-4.1175,-4.1023,-4.0935,-4.0912,-4.0912,-4.0912,-4.0864,-4.0741,-4.0216,-3.9791,-3.9326,-3.8441,-3.7388,-3.6331,-3.5946,-3.5778,-3.5796,-3.6203,-3.6293,-3.6349,-3.6772,-3.7144,-3.7398,-3.7398,-3.7652,-3.7905,-3.7905,-3.8447,-3.8963,-3.884,-3.8916,-3.8783,-3.8019,-3.7871,-3.7693,-3.7199,-3.743,-3.7658,-3.751,-3.7148,-3.6756,-3.6369,-3.5628,-3.4678,-3.3486,-3.2889,-3.2551,-3.2425,-3.2398,-3.2398,-3.2398,-3.2398,-3.2398,-3.2398,-3.2398,-3.2398,-3.2398,-3.2398,-3.2398,-3.2398,-3.2398,-3.2398,-3.2398,-3.2342,-3.2191,-3.1996,-3.187,-3.1511,-3.0999,-3.0999,-3.0657,-3.008,-3.008,-2.9896,-2.9602,-2.9602,-2.9509,-2.9394,-2.9357,-2.9209,-2.8988]},{"header":{"parameterUnit":"m.s-1","parameterCategory":1,"la1":30.6,"la2":28.766,"lo1":-90.7593,"lo2":-88.6598,"dy":0.0162,"dx":0.0183,"nx":116,"ny":114,"refTime":"2023-06-09T12:00:00:Z","depth":0,"parameterNumber":3,"parameterNumberName":"V-component_of_WINDS"},"data":[0.0,0.0,0.0,0.0,0.0,0.0,0.0,0.0,0.0,0.0,0.0,0.0,0.0,0.0,0.0,0.0,0.0,0.0,0.0,0.0,0.0,0.0,0.0,0.0,0.0,0.0,0.0,0.0,0.0,0.0,0.0,0.0,0.0,0.0,0.0,0.0,0.0,0.0,0.0,0.0,0.0,0.0,0.0,0.0,0.0,0.0,0.0,0.0,0.0,0.0,0.0,0.0,0.0,0.0,0.0,0.0,0.0,0.0,0.0,0.0,0.0,0.0,0.0,0.0,0.0,0.0,0.0,0.0,0.0,0.0,0.0,0.0,0.0,0.0,0.0,0.0,0.0,0.0,0.0,0.0,0.0,0.0,0.0,0.0,0.0,0.0,0.0,0.0,0.0,0.0,0.0,0.0,0.0,0.0,0.0,0.0,0.0,0.0,0.0,0.0,0.0,0.0,0.0,0.0,0.0,0.0,0.0,0.0,0.0,0.0,0.0,0.0,0.0,0.0,0.0,0.0,0.0,0.0,0.0,0.0,0.0,0.0,0.0,0.0,0.0,0.0,0.0,0.0,0.0,0.0,0.0,0.0,0.0,0.0,0.0,0.0,0.0,0.0,0.0,0.0,0.0,0.0,0.0,0.0,0.0,0.0,0.0,0.0,0.0,0.0,0.0,0.0,0.0,0.0,0.0,0.0,0.0,0.0,0.0,0.0,0.0,0.0,0.0,0.0,0.0,0.0,0.0,0.0,0.0,0.0,0.0,0.0,0.0,0.0,0.0,0.0,0.0,0.0,0.0,0.0,0.0,0.0,0.0,0.0,0.0,0.0,0.0,0.0,0.0,0.0,0.0,0.0,0.0,0.0,0.0,0.0,0.0,0.0,0.0,0.0,0.0,0.0,0.0,0.0,0.0,0.0,0.0,0.0,0.0,0.0,0.0,0.0,0.0,0.0,0.0,0.0,0.0,0.0,0.0,0.0,0.0,0.0,0.0,0.0,0.0,0.0,0.0,0.0,0.0,0.0,0.0,0.0,0.0,0.0,0.0,0.0,0.0,0.0,0.0,0.0,0.0,0.0,0.0,0.0,0.0,0.0,0.0,0.0,0.0,0.0,0.0,0.0,0.0,0.0,0.0,0.0,0.0,0.0,0.0,0.0,0.0,0.0,0.0,0.0,0.0,0.0,0.0,0.0,0.0,0.0,0.0,0.0,0.0,0.0,0.0,0.0,0.0,0.0,0.0,0.0,0.0,0.0,0.0,0.0,0.0,0.0,0.0,0.0,0.0,0.0,0.0,0.0,0.0,0.0,0.0,0.0,0.0,0.0,0.0,0.0,0.0,0.0,0.0,0.0,0.0,0.0,0.0,0.0,0.0,0.0,0.0,0.0,0.0,0.0,0.0,0.0,0.0,0.0,0.0,0.0,0.0,0.0,0.0,0.0,0.0,0.0,0.0,0.0,0.0,0.0,0.0,0.0,0.0,0.0,0.0,0.0,0.0,0.0,0.0,0.0,0.0,0.0,0.0,0.0,0.0,0.0,0.0,0.0,0.0,0.0,0.0,0.0,0.0,0.0,0.0,0.0,0.0,0.0,0.0,0.0,0.0,0.0,0.0,0.0,0.0,0.0,0.0,0.0,0.0,0.0,0.0,0.0,0.0,0.0,0.0,0.0,0.0,0.0,0.0,0.0,0.0,0.0,0.0,0.0,0.0,0.0,0.0,0.0,0.0,0.0,0.0,0.0,0.0,0.0,0.0,0.0,0.0,0.0,0.0,0.0,0.0,0.0,0.0,0.0,0.0,0.0,0.0,0.0,0.0,0.0,0.0,0.0,0.0,0.0,0.0,0.0,0.0,0.0,0.0,0.0,0.0,0.0,0.0,0.0,0.0,0.0,0.0,0.0,0.0,0.0,0.0,0.0,0.0,0.0,0.0,0.0,0.0,0.0,0.0,0.0,0.0,0.0,0.0,0.0,0.0,0.0,0.0,0.0,0.0,0.0,0.0,0.0,0.0,0.0,0.0,0.0,0.0,0.0,0.0,0.0,0.0,0.0,0.0,0.0,0.0,0.0,0.0,0.0,0.0,0.0,0.0,0.0,0.0,0.0,0.0,0.0,0.0,0.0,0.0,0.0,0.0,0.0,0.0,0.0,0.0,0.0,0.0,0.0,0.0,0.0,0.0,0.0,0.0,0.0,0.0,0.0,0.0,0.0,0.0,0.0,0.0,0.0,0.0,0.0,0.0,0.0,0.0,0.0,0.0,0.0,0.0,0.0,0.0,0.0,0.0,0.0,0.0,0.0,0.0,0.0,0.0,0.0,0.0,0.0,0.0,0.0,0.0,0.0,0.0,0.0,0.0,0.0,0.0,0.0,0.0,0.0,0.0,0.0,0.0,0.0,0.0,0.0,0.0,0.0,0.0,0.0,0.0,0.0,0.0,0.0,0.0,0.0,0.0,0.0,0.0,0.0,0.0,0.0,0.0,0.0,0.0,0.0,0.0,0.0,0.0,0.0,0.0,0.0,0.0,0.0,0.0,0.0,0.0,0.0,0.0,0.0,0.0,0.0,0.0,0.0,0.0,0.0,0.0,0.0,0.0,0.0,0.0,0.0,0.0,0.0,0.0,0.0,0.0,0.0,0.0,0.0,0.0,0.0,0.0,0.0,0.0,0.0,0.0,0.0,0.0,0.0,0.0,0.0,0.0,0.0,0.0,0.0,0.0,0.0,0.0,0.0,0.0,0.0,0.0,0.0,0.0,0.0,0.0,0.0,0.0,0.0,0.0,0.0,0.0,0.0,0.0,0.0,0.0,0.0,0.0,0.0,0.0,0.0,0.0,0.0,0.0,0.0,0.0,0.0,0.0,0.0,0.0,0.0,0.0,0.0,0.0,0.0,0.0,0.0,0.0,0.0,0.0,0.0,0.0,0.0,0.0,0.0,0.0,0.0,0.0,0.0,0.0,0.0,0.0,0.0,0.0,0.0,0.0,0.0,0.0,0.0,0.0,0.0,0.0,0.0,0.0,0.0,0.0,0.0,0.0,0.0,0.0,0.0,0.0,0.0,0.0,0.0,0.0,0.0,0.0,0.0,0.0,0.0,0.0,0.0,0.0,0.0,0.0,0.0,0.0,0.0,0.0,0.0,0.0,0.0,0.0,0.0,0.0,0.0,0.0,0.0,0.0,0.0,0.0,0.0,0.0,0.0,0.0,0.0,0.0,0.0,0.0,0.0,0.0,0.0,0.0,0.0,0.0,0.0,0.0,0.0,0.0,0.0,0.0,0.0,0.0,0.0,0.0,0.0,0.0,0.0,0.0,0.0,0.0,0.0,0.0,0.0,0.0,0.0,0.0,0.0,0.0,0.0,0.0,0.0,0.0,0.0,0.0,0.0,0.0,0.0,0.0,0.0,0.0,0.0,0.0,0.0,0.0,0.0,0.0,0.0,0.0,0.0,0.0,0.0,0.0,0.0,0.0,0.0,0.0,0.0,0.0,0.0,0.0,0.0,0.0,0.0,0.0,0.0,0.0,0.0,0.0,0.0,0.0,0.0,0.0,0.0,0.0,0.0,0.0,0.0,0.0,0.0,0.0,0.0,0.0,0.0,0.0,0.0,0.0,0.0,0.0,0.0,0.0,0.0,0.0,0.0,0.0,0.0,0.0,0.0,0.0,0.0,0.0,0.0,0.0,0.0,0.0,0.0,0.0,0.0,0.0,0.0,0.0,0.0,0.0,0.0,0.0,0.0,0.0,0.0,0.0,0.0,0.0,0.0,0.0,0.0,0.0,0.0,0.0,0.0,0.0,0.0,0.0,0.0,0.0,0.0,0.0,0.0,0.0,0.0,0.0,0.0,0.0,0.0,0.0,0.0,0.0,0.0,0.0,0.0,0.0,0.0,0.0,0.0,0.0,0.0,0.0,0.0,0.0,0.0,0.0,0.0,0.0,0.0,0.0,0.0,0.0,0.0,0.0,0.0,0.0,0.0,0.0,0.0,0.0,0.0,0.0,0.0,0.0,0.0,0.0,0.0,0.0,0.0,0.0,0.0,0.0,0.0,0.0,0.0,0.0,0.0,0.0,0.0,0.0,0.0,0.0,0.0,0.0,0.0,0.0,0.0,0.0,0.0,0.0,0.0,0.0,0.0,0.0,0.0,0.0,0.0,0.0,0.0,0.0,0.0,0.0,0.0,0.0,0.0,0.0,0.0,0.0,0.0,0.0,0.0,0.0,0.0,0.0,0.0,0.0,0.0,0.0,0.0,0.0,0.0,0.0,0.0,0.0,0.0,0.0,0.0,0.0,0.0,0.0,0.0,0.0,0.0,0.0,0.0,0.0,0.0,0.0,0.0,0.0,0.0,0.0,0.0,0.0,0.0,0.0,0.0,0.0,0.0,0.0,0.0,0.0,0.0,0.0,0.0,0.0,0.0,0.0,0.0,0.0,0.0,0.0,0.0,0.0,0.0,0.0,0.0,0.0,0.0,0.0,0.0,0.0,0.0,0.0,0.0,0.0,0.0,0.0,0.0,0.0,0.0,0.0,0.0,0.0,0.0,0.0,0.0,0.0,0.0,0.0,0.0,0.0,0.0,0.0,0.0,0.0,0.0,0.0,0.0,0.0,0.0,0.0,0.0,0.0,0.0,0.0,0.0,0.0,0.0,0.0,0.0,0.0,0.0,0.0,0.0,0.0,0.0,0.0,0.0,0.0,0.0,0.0,0.0,0.0,0.0,0.0,0.0,0.0,0.0,0.0,0.0,0.0,0.0,0.0,0.0,0.0,0.0,0.0,0.0,0.0,0.0,0.0,0.0,0.0,0.0,0.0,0.0,0.0,0.0,0.0,0.0,0.0,0.0,0.0,0.0,0.0,0.0,0.0,0.0,0.0,0.0,0.0,0.0,0.0,0.0,0.0,0.0,0.0,0.0,0.0,0.0,0.0,0.0,0.0,0.0,0.0,0.0,0.0,0.0,0.0,0.0,0.0,0.0,0.0,0.0,0.0,0.0,0.0,0.0,0.0,0.0,0.0,0.0,0.0,0.0,0.0,0.0,0.0,0.0,0.0,0.0,0.0,0.0,0.0,0.0,0.0,0.0,0.0,0.0,0.0,0.0,0.0,0.0,0.0,0.0,0.0,0.0,0.0,0.0,0.0,0.0,0.0,0.0,0.0,0.0,0.0,0.0,0.0,0.0,0.0,0.0,0.0,0.0,0.0,0.0,0.0,0.0,0.0,0.0,0.0,0.0,0.0,0.0,0.0,0.0,0.0,0.0,0.0,0.0,0.0,0.0,0.0,0.0,0.0,0.0,0.0,0.0,0.0,0.0,0.0,0.0,0.0,0.0,0.0,0.0,0.0,0.0,0.0,0.0,0.0,0.0,0.0,0.0,0.0,0.0,0.0,0.0,0.0,0.0,0.0,0.0,0.0,0.0,0.0,0.0,0.0,0.0,0.0,0.0,0.0,0.0,0.0,0.0,0.0,0.0,0.0,0.0,0.0,0.0,0.0,0.0,0.0,0.0,0.0,0.0,0.0,0.0,0.0,0.0,0.0,0.0,0.0,0.0,0.0,0.0,0.0,0.0,0.0,0.0,0.0,0.0,0.0,0.0,0.0,0.0,0.0,0.0,0.0,0.0,0.0,0.0,0.0,0.0,0.0,0.0,0.0,0.0,0.0,0.0,0.0,0.0,0.0,0.0,0.0,0.0,0.0,0.0,0.0,0.0,0.0,0.0,0.0,0.0,0.0,0.0,0.0,0.0,0.0,0.0,0.0,0.0,0.0,0.0,0.0,0.0,0.0,0.0,0.0,0.0,0.0,0.0,0.0,0.0,0.0,0.0,0.0,0.0,0.0,0.0,0.0,0.0,0.0,0.0,0.0,0.0,0.0,0.0,0.0,0.0,0.0,0.0,0.0,0.0,0.0,0.0,0.0,0.0,0.0,0.0,0.0,0.0,0.0,0.0,0.0,0.0,0.0,0.0,0.0,0.0,0.0,0.0,0.0,0.0,0.0,0.0,0.0,0.0,0.0,0.0,0.0,0.0,0.0,0.0,0.0,0.0,0.0,0.0,0.0,0.0,0.0,0.0,0.0,0.0,0.0,0.0,0.0,0.0,0.0,0.0,-3.316,-3.3513,0.0,0.0,0.0,0.0,0.0,0.0,0.0,0.0,0.0,0.0,0.0,0.0,0.0,0.0,0.0,0.0,0.0,0.0,0.0,0.0,0.0,0.0,0.0,0.0,0.0,0.0,0.0,0.0,0.0,0.0,0.0,0.0,0.0,0.0,0.0,0.0,0.0,0.0,0.0,0.0,0.0,0.0,0.0,0.0,0.0,0.0,0.0,0.0,0.0,0.0,0.0,0.0,0.0,0.0,0.0,0.0,0.0,0.0,0.0,0.0,0.0,0.0,0.0,0.0,0.0,0.0,0.0,0.0,0.0,0.0,0.0,0.0,0.0,0.0,0.0,0.0,0.0,0.0,0.0,0.0,0.0,0.0,0.0,0.0,0.0,0.0,0.0,0.0,0.0,0.0,0.0,0.0,0.0,0.0,0.0,0.0,0.0,0.0,0.0,0.0,0.0,0.0,0.0,0.0,0.0,0.0,0.0,0.0,0.0,0.0,0.0,0.0,0.0,0.0,-3.345,-3.3797,0.0,0.0,0.0,0.0,0.0,0.0,0.0,0.0,0.0,0.0,0.0,0.0,0.0,0.0,0.0,0.0,0.0,0.0,0.0,0.0,0.0,0.0,0.0,0.0,0.0,0.0,0.0,0.0,0.0,0.0,0.0,0.0,0.0,0.0,0.0,0.0,0.0,0.0,0.0,0.0,0.0,0.0,0.0,0.0,0.0,0.0,0.0,0.0,0.0,0.0,0.0,0.0,0.0,0.0,0.0,0.0,0.0,0.0,0.0,0.0,0.0,0.0,0.0,0.0,0.0,0.0,0.0,0.0,0.0,0.0,0.0,0.0,0.0,0.0,0.0,0.0,0.0,0.0,0.0,0.0,0.0,0.0,0.0,0.0,0.0,0.0,0.0,0.0,0.0,0.0,0.0,0.0,0.0,0.0,0.0,0.0,0.0,0.0,0.0,0.0,0.0,0.0,0.0,0.0,0.0,0.0,0.0,0.0,-3.1826,-3.2025,-3.2094,-3.2574,-3.306,-3.3555,-3.3745,-3.405,-3.4374,-3.4374,0.0,0.0,0.0,0.0,0.0,0.0,0.0,0.0,0.0,0.0,0.0,0.0,0.0,0.0,0.0,0.0,0.0,0.0,0.0,0.0,0.0,0.0,0.0,0.0,0.0,0.0,0.0,0.0,0.0,0.0,0.0,0.0,0.0,0.0,0.0,0.0,0.0,0.0,-2.4884,-2.5365,-2.5934,-2.6539,0.0,0.0,0.0,0.0,0.0,0.0,0.0,0.0,0.0,0.0,0.0,0.0,0.0,0.0,0.0,0.0,0.0,0.0,0.0,0.0,0.0,0.0,0.0,0.0,0.0,0.0,0.0,0.0,0.0,0.0,0.0,0.0,0.0,0.0,0.0,0.0,0.0,0.0,0.0,0.0,0.0,0.0,0.0,0.0,-2.9853,-2.9696,0.0,0.0,0.0,0.0,0.0,0.0,0.0,0.0,0.0,0.0,0.0,0.0,0.0,-3.1467,-3.1511,-3.1798,-3.1798,-3.1511,-3.2299,-3.2547,-3.237,-3.3182,-3.3591,-3.3694,-3.4176,0.0,-3.4643,-3.4643,0.0,0.0,0.0,0.0,0.0,0.0,0.0,0.0,0.0,0.0,0.0,0.0,0.0,0.0,0.0,0.0,0.0,0.0,0.0,0.0,0.0,0.0,0.0,0.0,0.0,0.0,0.0,0.0,0.0,0.0,0.0,0.0,0.0,0.0,0.0,0.0,-2.3763,-2.4037,-2.4467,-2.4818,-2.5718,-2.7075,-2.7728,-2.8181,-2.8504,-2.9101,0.0,0.0,0.0,0.0,0.0,0.0,0.0,0.0,0.0,0.0,0.0,0.0,0.0,0.0,0.0,0.0,0.0,0.0,0.0,0.0,0.0,0.0,0.0,0.0,0.0,0.0,0.0,0.0,0.0,0.0,0.0,0.0,0.0,0.0,0.0,0.0,0.0,0.0,0.0,-2.9884,-2.9651,-2.9602,-2.954,-2.9477,0.0,0.0,0.0,0.0,0.0,0.0,0.0,0.0,0.0,-3.1278,-3.1351,-3.1496,-3.1769,-3.194,-3.201,-3.2023,-3.2559,-3.2749,-3.2641,-3.3445,-3.3848,-3.3949,-3.4423,-3.4691,-3.4811,-3.4811,-3.5124,-3.5625,0.0,0.0,0.0,0.0,-3.7606,-3.7591,0.0,0.0,0.0,0.0,0.0,0.0,0.0,0.0,0.0,0.0,0.0,0.0,0.0,0.0,0.0,0.0,0.0,0.0,0.0,0.0,0.0,0.0,0.0,0.0,0.0,0.0,0.0,0.0,-2.348,-2.3623,-2.3986,-2.4354,-2.5441,-2.7176,-2.8072,-2.8811,-2.9442,-2.9979,-3.0103,0.0,0.0,0.0,0.0,0.0,0.0,0.0,0.0,0.0,0.0,0.0,0.0,0.0,0.0,0.0,0.0,0.0,0.0,0.0,0.0,0.0,0.0,0.0,0.0,0.0,0.0,0.0,0.0,0.0,0.0,0.0,0.0,0.0,0.0,0.0,0.0,0.0,0.0,-2.962,-2.9571,-2.954,-2.9477,-2.9446,0.0,0.0,0.0,0.0,0.0,0.0,-3.0387,-3.0598,-3.0851,-3.1132,-3.1292,-3.1524,-3.1883,-3.1968,-3.2094,-3.2287,-3.2765,-3.298,-3.2991,-3.3729,-3.4101,-3.4226,-3.4546,-3.4756,-3.4851,-3.4899,-3.5278,-3.5848,-3.6047,-3.6812,-3.7875,-3.8214,-3.8221,-3.8148,0.0,0.0,0.0,0.0,0.0,0.0,0.0,0.0,0.0,0.0,0.0,0.0,0.0,0.0,0.0,0.0,0.0,0.0,0.0,0.0,0.0,0.0,0.0,0.0,0.0,0.0,0.0,-2.3599,-2.315,0.0,-2.3454,-2.4187,-2.5203,-2.6518,-2.8038,-2.9039,-2.9738,-3.0516,-3.0739,-3.0545,0.0,0.0,0.0,0.0,0.0,0.0,0.0,0.0,0.0,0.0,0.0,0.0,0.0,0.0,0.0,0.0,0.0,0.0,0.0,0.0,0.0,0.0,0.0,0.0,0.0,0.0,0.0,0.0,0.0,0.0,0.0,0.0,0.0,0.0,0.0,0.0,0.0,0.0,0.0,-2.9415,-2.9509,0.0,0.0,0.0,0.0,-2.9777,-3.0099,-3.0387,-3.0568,-3.0895,-3.1132,-3.1292,-3.1409,-3.1511,-3.1524,-3.1855,-3.2025,-3.2038,-3.2985,-3.3461,-3.3503,-3.4176,-3.4472,-3.4497,-3.4659,-3.4691,-3.4715,-3.4851,-3.5074,-3.5358,-3.5358,-3.5513,-3.5769,-3.592,-3.6939,-3.8202,0.0,0.0,0.0,0.0,0.0,0.0,0.0,0.0,0.0,0.0,0.0,0.0,0.0,0.0,0.0,0.0,0.0,0.0,0.0,0.0,0.0,0.0,0.0,0.0,0.0,0.0,0.0,0.0,0.0,0.0,0.0,0.0,0.0,0.0,0.0,0.0,-3.0466,-3.1349,-3.1551,-3.1264,-3.1451,-3.1198,0.0,0.0,0.0,0.0,0.0,0.0,0.0,0.0,0.0,0.0,0.0,0.0,0.0,0.0,0.0,0.0,0.0,0.0,0.0,0.0,0.0,0.0,0.0,0.0,0.0,0.0,0.0,0.0,0.0,0.0,0.0,0.0,0.0,0.0,0.0,0.0,0.0,-2.982,-2.9775,0.0,-2.973,-2.9898,-3.0005,-3.0005,-3.0296,-3.0507,-3.0598,-3.0925,-3.1102,-3.1161,-3.1395,-3.1697,-3.2079,-3.2287,-3.259,-3.2958,-3.3591,-3.3873,-3.3899,-3.4399,-3.4618,-3.4659,-3.4763,-3.4828,-3.4851,-3.497,-3.5105,-3.5175,-3.5268,-3.5721,-3.6406,-3.7138,-3.7826,-3.8488,0.0,0.0,0.0,0.0,0.0,0.0,0.0,0.0,0.0,0.0,0.0,0.0,0.0,0.0,0.0,0.0,0.0,0.0,0.0,0.0,0.0,0.0,0.0,0.0,0.0,0.0,0.0,0.0,0.0,0.0,0.0,0.0,0.0,0.0,0.0,0.0,0.0,0.0,0.0,0.0,-3.219,-3.1836,-3.1334,0.0,0.0,0.0,0.0,0.0,0.0,0.0,0.0,0.0,0.0,0.0,0.0,0.0,0.0,0.0,0.0,0.0,0.0,0.0,0.0,0.0,0.0,0.0,0.0,0.0,0.0,0.0,0.0,0.0,0.0,0.0,0.0,0.0,0.0,-2.9777,-2.9822,-2.9927,-2.9867,-2.9822,-2.9884,-3.0052,-3.0158,-3.0158,-3.0431,-3.0598,-3.0598,-3.0851,-3.0984,-3.0984,-3.1263,-3.1682,-3.2231,-3.2492,-3.2873,-3.345,-3.3924,-3.4176,-3.4176,-3.4833,-3.5143,-3.5159,-3.5504,-3.5495,-3.5263,-3.5424,-3.5352,-3.5211,-3.5344,-3.5981,-3.6898,-3.7678,-3.8311,-3.9003,0.0,0.0,0.0,0.0,0.0,0.0,0.0,0.0,0.0,0.0,0.0,0.0,0.0,0.0,0.0,0.0,0.0,0.0,0.0,0.0,0.0,0.0,0.0,0.0,0.0,0.0,0.0,0.0,0.0,0.0,0.0,0.0,0.0,0.0,0.0,0.0,0.0,0.0,0.0,0.0,0.0,0.0,-3.2257,0.0,0.0,0.0,0.0,0.0,0.0,0.0,0.0,0.0,0.0,0.0,0.0,0.0,0.0,0.0,0.0,0.0,0.0,0.0,0.0,0.0,0.0,0.0,0.0,0.0,0.0,0.0,0.0,0.0,0.0,0.0,0.0,0.0,-2.9602,-2.9699,-2.9761,-2.9634,-2.973,-2.9884,-3.008,-3.0205,-3.0282,-3.0312,-3.0477,-3.0598,-3.0598,-3.0732,-3.0791,-3.0821,-3.1146,-3.1523,-3.1936,-3.2394,-3.2861,-3.3335,-3.4016,-3.4333,-3.439,-3.5523,-3.6025,-3.6075,-3.6787,-3.6688,-3.6042,-3.6189,-3.593,-3.5469,-3.5588,-3.6197,-3.7036,-3.7283,-3.8339,-3.9771,0.0,0.0,0.0,0.0,0.0,0.0,0.0,0.0,0.0,0.0,0.0,0.0,0.0,0.0,0.0,0.0,0.0,0.0,0.0,0.0,0.0,0.0,0.0,0.0,0.0,0.0,0.0,0.0,0.0,0.0,0.0,0.0,0.0,0.0,0.0,0.0,0.0,0.0,0.0,0.0,0.0,0.0,-3.3156,0.0,0.0,0.0,0.0,0.0,0.0,0.0,0.0,0.0,0.0,0.0,0.0,0.0,0.0,0.0,0.0,0.0,0.0,0.0,0.0,0.0,0.0,0.0,0.0,0.0,0.0,0.0,0.0,0.0,0.0,0.0,-2.9789,-2.9634,-2.973,-2.9777,-2.9853,-2.9958,-3.0019,-3.0097,-3.0235,-3.0296,-3.0357,-3.0507,-3.0447,-3.0387,-3.0387,-3.0642,-3.091,-3.1161,-3.1582,-3.2122,-3.2757,-3.2985,-3.3303,-3.3761,-3.4762,-3.5233,-3.5291,-3.6306,-3.6804,-3.682,-3.7019,-3.6986,-3.6804,-3.7036,-3.7066,-3.6887,-3.6601,-3.6792,-3.7369,-3.8517,-3.964,-4.0571,0.0,0.0,0.0,0.0,0.0,0.0,0.0,0.0,0.0,0.0,0.0,0.0,0.0,0.0,0.0,0.0,0.0,0.0,0.0,0.0,0.0,0.0,0.0,0.0,0.0,0.0,0.0,0.0,0.0,0.0,0.0,0.0,0.0,0.0,0.0,0.0,0.0,0.0,0.0,0.0,0.0,0.0,-3.3569,-3.4394,-3.4466,-3.4253,-3.5098,-3.5297,-3.5175,-3.5018,0.0,0.0,0.0,0.0,0.0,0.0,0.0,0.0,0.0,0.0,0.0,0.0,0.0,0.0,0.0,0.0,0.0,0.0,0.0,0.0,0.0,0.0,0.0,0.0,-2.9741,-2.9634,-2.9713,-2.9747,-2.9853,-2.996,-2.996,-3.0052,-3.0282,-3.0282,-3.0387,-3.0568,-3.0477,-3.0447,-3.0447,-3.0598,-3.091,-3.1278,-3.1625,-3.2219,-3.3049,-3.3482,-3.3958,-3.4468,-3.554,-3.6053,-3.6095,-3.7091,-3.7566,-3.7582,-3.788,-3.7873,-3.7668,-3.7911,-3.7973,0.0,0.0,0.0,0.0,0.0,-4.0515,-4.1018,0.0,0.0,0.0,0.0,0.0,0.0,0.0,0.0,0.0,0.0,0.0,0.0,0.0,0.0,0.0,0.0,0.0,0.0,0.0,0.0,0.0,0.0,0.0,0.0,0.0,0.0,0.0,0.0,0.0,0.0,0.0,0.0,0.0,0.0,0.0,0.0,0.0,0.0,0.0,0.0,0.0,0.0,-3.3858,-3.4688,-3.4777,-3.4516,-3.543,-3.5566,-3.5268,-3.5152,0.0,0.0,0.0,0.0,0.0,0.0,0.0,0.0,0.0,0.0,0.0,0.0,0.0,0.0,0.0,0.0,0.0,0.0,0.0,0.0,0.0,0.0,0.0,0.0,-2.9752,-2.9749,-2.971,-2.9862,-2.9893,-2.9792,-2.9777,-2.9915,-3.0221,-3.0251,-3.0357,-3.0538,-3.0568,-3.0568,-3.0568,-3.0598,0.0,0.0,0.0,-3.2196,-3.3192,-3.4062,-3.4766,-3.5341,-3.6359,-3.6832,-3.6865,-3.7866,-3.8328,-3.8361,-3.9033,-3.9013,-3.8579,-3.8841,-3.8877,-3.8711,-3.8528,-3.8951,-3.9746,-4.0653,-4.1088,-4.1209,0.0,0.0,0.0,0.0,0.0,0.0,0.0,0.0,0.0,0.0,0.0,0.0,0.0,0.0,0.0,0.0,0.0,0.0,0.0,0.0,0.0,0.0,0.0,0.0,0.0,0.0,0.0,0.0,0.0,0.0,0.0,0.0,0.0,0.0,0.0,0.0,0.0,0.0,0.0,0.0,0.0,0.0,-3.4835,-3.5015,-3.5081,-3.5159,-3.5447,-3.5446,-3.5268,-3.5152,-3.4851,-3.4497,-3.4325,0.0,0.0,0.0,0.0,0.0,0.0,0.0,0.0,0.0,0.0,0.0,0.0,0.0,0.0,0.0,0.0,0.0,0.0,0.0,0.0,-3.0582,-3.0711,-3.0714,-3.0429,-3.0649,-3.0543,-2.9752,-2.9634,-2.9713,-2.9884,-3.0021,-3.0189,-3.0357,-3.0357,-3.0357,-3.0357,-3.0507,-3.0911,-3.1608,-3.2551,-3.3476,-3.4436,-3.5268,-3.5814,-3.6092,-3.71,0.0,-3.7619,-3.8636,-3.91,-3.91,-3.9249,-3.9428,-3.9631,-3.9834,-4.0295,-4.0772,-4.0246,-4.0512,-4.1193,-4.1396,-4.1493,-4.1515,0.0,0.0,0.0,0.0,0.0,0.0,0.0,0.0,0.0,0.0,0.0,0.0,0.0,0.0,0.0,0.0,0.0,0.0,0.0,0.0,0.0,0.0,0.0,0.0,0.0,0.0,0.0,0.0,0.0,0.0,0.0,0.0,0.0,0.0,0.0,0.0,0.0,0.0,0.0,0.0,0.0,0.0,-3.5291,-3.5291,-3.5291,-3.5314,-3.5498,-3.5452,-3.5291,-3.5222,-3.4923,-3.457,-3.4374,-3.4151,-3.3949,0.0,0.0,0.0,0.0,0.0,0.0,0.0,0.0,0.0,0.0,0.0,0.0,0.0,0.0,-3.1826,-3.1552,0.0,-3.1073,-3.0822,-3.0889,-3.0809,-3.0414,-3.0492,-3.0392,-2.9893,-2.971,-2.9651,-2.9777,-2.9974,-3.0172,-3.0296,-3.0387,-3.0577,-3.0895,-3.1016,-3.1602,-3.2761,-3.3446,-3.4278,-3.5294,-3.6146,-3.6636,-3.6821,-3.7818,-3.8297,-3.8324,-3.8999,-3.9299,-3.9299,-3.9299,-3.9484,-3.9858,-4.0458,-4.1076,-4.1644,-4.1485,-4.1488,-4.1604,-4.1604,-4.1653,-4.174,0.0,0.0,0.0,0.0,0.0,0.0,0.0,0.0,0.0,0.0,0.0,0.0,0.0,0.0,0.0,0.0,0.0,0.0,0.0,0.0,0.0,0.0,0.0,0.0,0.0,0.0,0.0,0.0,0.0,0.0,0.0,0.0,0.0,0.0,0.0,0.0,0.0,0.0,0.0,0.0,0.0,0.0,-3.5492,-3.5514,-3.5429,-3.536,-3.5549,-3.5481,-3.5291,-3.5291,-3.4994,-3.4594,-3.4399,-3.4201,-3.3975,-3.3797,-3.3477,0.0,0.0,0.0,0.0,0.0,0.0,0.0,0.0,-3.1883,-3.194,-3.2122,-3.2038,-3.1896,-3.1823,-3.1623,-3.1393,-3.1058,-3.0984,-3.0819,-3.0325,-3.0273,-3.0254,-3.0125,-2.9803,-2.9676,-2.9899,-3.0045,-3.0185,-3.0407,-3.0665,-3.0988,-3.1451,-3.1735,-3.2506,-3.3909,-3.436,-3.5052,-3.6041,-3.6929,-3.7422,-3.7533,-3.8389,-3.8805,-3.8805,-3.9148,-3.9299,-3.9299,-3.9405,-3.9599,-3.9901,-4.0795,-4.1396,-4.1831,-4.204,-4.1913,-4.1604,-4.1714,-4.1827,-4.1956,0.0,0.0,0.0,0.0,0.0,0.0,0.0,0.0,0.0,0.0,0.0,0.0,0.0,0.0,0.0,0.0,0.0,0.0,0.0,0.0,0.0,0.0,0.0,0.0,0.0,0.0,0.0,0.0,0.0,0.0,0.0,0.0,0.0,0.0,0.0,0.0,0.0,0.0,0.0,0.0,0.0,0.0,-3.5514,-3.5571,-3.5526,-3.5492,-3.5571,-3.5481,-3.5291,-3.5291,-3.4875,-3.4349,-3.4448,-3.4151,-3.3745,-3.3848,0.0,-3.345,-3.3503,-3.3049,-3.252,-3.2398,-3.2163,-3.1912,0.0,-3.1868,-3.2122,-3.2038,-3.2191,-3.2287,-3.2163,-3.1809,-3.1523,-3.1655,-3.1604,-3.1359,-3.0969,-3.0939,-3.0771,-3.0183,-2.9803,-2.9827,-3.0361,-3.0222,-3.034,-3.0865,-3.1238,-3.1438,-3.1495,-3.2531,-3.3425,-3.4134,-3.5338,-3.6276,-3.6945,-3.7838,-3.825,-3.8278,-3.8634,-3.8805,-3.8805,-3.9148,-3.9299,-3.9325,-3.9807,-4.0129,-4.0368,-4.0819,-4.1192,-4.1458,-4.1503,-4.1542,-4.1648,-4.2079,-4.2246,-4.2246,0.0,0.0,0.0,0.0,0.0,0.0,0.0,0.0,0.0,0.0,0.0,0.0,0.0,0.0,0.0,0.0,0.0,0.0,0.0,0.0,0.0,0.0,0.0,0.0,0.0,0.0,0.0,0.0,0.0,0.0,0.0,0.0,0.0,0.0,0.0,0.0,0.0,0.0,0.0,0.0,0.0,0.0,-3.5514,-3.5571,-3.5577,-3.5571,-3.5577,-3.5526,0.0,0.0,-3.4899,-3.4497,-3.4325,-3.4126,-3.3899,-3.372,-3.3581,0.0,-3.2877,-3.2617,-3.2398,-3.1994,-3.1783,-3.1668,-3.1524,-3.1811,-3.2122,-3.2219,-3.2315,-3.2425,-3.2566,-3.2219,-3.191,-3.1912,-3.1632,-3.1263,-3.0836,-3.0632,-3.0477,-3.0358,-3.02,-3.0203,-3.0469,-3.0807,-3.1169,-3.1536,-3.1968,-3.2411,-3.2947,-3.367,-3.4575,-3.5614,-3.6374,-3.7107,-3.7729,-3.8189,-3.8391,-3.8391,-3.8667,-3.8805,-3.8805,-3.9148,-3.9325,-3.9432,-3.9729,-4.0104,-4.0538,-4.0778,-4.1214,-4.1701,-4.1701,-4.1827,-4.1998,-4.204,-4.2061,-4.2082,0.0,0.0,0.0,0.0,0.0,0.0,0.0,0.0,0.0,0.0,0.0,0.0,0.0,0.0,0.0,0.0,0.0,0.0,0.0,0.0,0.0,0.0,0.0,0.0,0.0,0.0,0.0,0.0,0.0,0.0,0.0,0.0,0.0,0.0,0.0,0.0,0.0,0.0,0.0,0.0,0.0,0.0,-3.5383,-3.5481,-3.5487,-3.5464,-3.5577,-3.5503,0.0,0.0,-3.4851,-3.4423,-3.4176,-3.3975,-3.3771,-3.3529,-3.3424,-3.3266,-3.2769,-3.2535,-3.2355,-3.2038,-3.1783,-3.1655,-3.1655,-3.1868,-3.2178,-3.237,-3.2453,-3.2621,-3.287,-3.2527,-3.215,-3.1896,-3.1481,-3.1014,-3.0522,-3.0127,-3.006,-3.0445,-3.0606,-3.0806,-3.1138,-3.1569,-3.2007,-3.2342,-3.2844,-3.3399,-3.4108,-3.4826,-3.5691,-3.6707,-3.7178,-3.7685,-3.825,-3.8335,-3.8391,-3.8391,-3.8667,-3.8805,-3.8805,-3.9191,-3.9432,-3.9563,-3.9694,-4.0096,-4.0604,-4.0707,-4.1169,-4.1766,-4.1766,-4.1895,-4.21,-4.1956,-4.1956,-4.204,0.0,0.0,0.0,0.0,0.0,0.0,0.0,0.0,0.0,0.0,0.0,0.0,0.0,0.0,0.0,0.0,0.0,0.0,0.0,0.0,0.0,0.0,0.0,0.0,0.0,0.0,0.0,0.0,0.0,0.0,0.0,0.0,0.0,0.0,0.0,0.0,0.0,0.0,0.0,0.0,0.0,0.0,-3.5128,-3.5268,-3.5222,-3.5158,-3.5487,0.0,0.0,0.0,-3.4691,-3.3949,-3.405,-3.3642,0.0,-3.3282,-3.3203,-3.3203,-3.3555,-3.3156,-3.2656,-3.2973,-3.2511,-3.1996,-3.1996,-3.2191,-3.2398,-3.2398,-3.2648,-3.2897,-3.2897,-3.2527,-3.2051,-3.161,-3.1131,-3.0643,-3.0172,-2.9696,-2.9684,-3.0413,-3.0918,-3.1606,-3.273,-3.2428,-3.2522,-3.3307,-3.3839,-3.4237,-3.4472,-3.5719,-3.66,-3.689,-3.7535,-3.8049,-3.8391,-3.8391,-3.8391,-3.8391,-3.8667,-3.8805,-3.8805,-3.9299,-3.9563,-3.9703,-3.9849,-4.0171,-4.0604,-4.0587,-4.0937,-4.1413,-4.1413,-4.1498,-4.1648,-4.1827,-4.2061,-4.2287,0.0,0.0,0.0,0.0,0.0,0.0,0.0,0.0,0.0,0.0,0.0,0.0,0.0,0.0,0.0,0.0,0.0,0.0,0.0,0.0,0.0,0.0,0.0,0.0,0.0,0.0,0.0,0.0,0.0,0.0,0.0,0.0,0.0,0.0,0.0,0.0,0.0,0.0,0.0,0.0,0.0,0.0,-3.4851,-3.4994,-3.4994,-3.4994,0.0,0.0,0.0,0.0,-3.457,-3.4126,-3.3899,-3.3633,-3.3319,-3.3203,-3.3203,-3.3214,-3.3113,-3.3022,-3.2904,-3.2807,-3.2508,-3.2274,-3.2274,-3.2511,-3.2746,-3.2746,-3.2816,-3.287,-3.2715,-3.2441,-3.2023,-3.1452,-3.1058,-3.0643,-3.0172,-2.9772,-2.9933,-3.1036,-3.1312,-3.1878,-3.3042,-3.3012,-3.3345,-3.4317,-3.4566,-3.4907,-3.5481,-3.6229,-3.6785,-3.7088,-3.7537,-3.7934,-3.825,-3.8351,-3.8391,-3.8391,-3.8667,-3.8914,-3.9121,-3.9299,-3.9484,-3.9703,-3.9755,-4.0011,-4.0395,-4.0493,-4.0765,-4.1123,-4.1214,-4.1391,-4.1604,-4.1692,-4.1758,-4.1888,0.0,0.0,0.0,0.0,0.0,0.0,0.0,0.0,0.0,0.0,0.0,0.0,0.0,0.0,0.0,0.0,0.0,0.0,0.0,0.0,0.0,0.0,0.0,0.0,0.0,0.0,0.0,0.0,0.0,0.0,0.0,0.0,0.0,0.0,0.0,0.0,0.0,0.0,0.0,0.0,0.0,0.0,-3.4643,-3.478,-3.4804,0.0,0.0,0.0,0.0,-3.4732,-3.4399,-3.3975,-3.3694,-3.3382,-3.3118,-3.3096,-3.3123,-3.316,-3.3193,-3.3224,-3.3187,-3.3033,-3.2807,-3.2633,-3.2578,-3.2746,-3.2897,-3.2897,-3.2827,-3.2757,-3.2547,-3.2216,-3.1752,-3.1161,-3.0792,-3.0463,-2.9988,-2.9696,-3.0017,-3.1345,-3.1452,-3.1949,-3.3325,-3.3347,-3.3695,-3.4635,-3.4839,-3.5234,-3.5973,-3.6336,-3.6739,-3.7194,-3.7537,-3.7847,-3.8209,-3.8335,-3.8448,-3.856,-3.8722,-3.8985,-3.9299,-3.9352,-3.9484,-3.9703,-3.9755,-4.0011,-4.0419,-4.0549,-4.0813,-4.1163,-4.1277,-4.1453,-4.1604,-4.1604,-4.1604,-4.1648,0.0,0.0,0.0,0.0,0.0,0.0,0.0,0.0,0.0,0.0,0.0,0.0,0.0,0.0,0.0,0.0,0.0,0.0,0.0,0.0,0.0,0.0,0.0,0.0,0.0,0.0,0.0,0.0,0.0,0.0,0.0,0.0,0.0,0.0,0.0,0.0,0.0,0.0,0.0,0.0,0.0,0.0,-3.4497,-3.4659,0.0,0.0,0.0,0.0,0.0,0.0,-3.4151,-3.3477,-3.345,-3.2969,-3.2508,-3.2935,-3.3005,-3.3058,-3.3668,-3.3668,-3.3503,-3.3617,-3.3372,-3.3058,-3.2924,-3.2897,-3.2924,-3.2897,-3.2742,-3.2547,-3.2382,-3.1908,-3.1321,-3.0687,-3.0433,-3.0174,-2.9665,-2.9477,-2.9907,-3.1302,-3.131,-3.1873,-3.3565,-3.3458,-3.3591,-3.4312,-3.4668,-3.5184,-3.5941,-3.6116,-3.6476,-3.7134,-3.7508,-3.7847,-3.818,-3.8323,-3.8516,-3.8805,-3.8805,-3.8985,-3.9299,-3.9432,-3.9563,-3.9703,-3.9833,-4.0146,-4.058,-4.0748,-4.103,-4.1368,-4.1498,-4.156,-4.156,-4.156,-4.156,-4.156,0.0,0.0,0.0,0.0,0.0,0.0,0.0,0.0,0.0,0.0,0.0,0.0,0.0,0.0,0.0,0.0,0.0,0.0,0.0,0.0,0.0,0.0,0.0,0.0,0.0,0.0,0.0,0.0,0.0,0.0,0.0,0.0,0.0,0.0,0.0,0.0,0.0,0.0,0.0,0.0,0.0,0.0,-3.4226,0.0,0.0,0.0,0.0,0.0,0.0,0.0,-3.3771,-3.315,-3.292,-3.2687,-3.2523,-3.2441,-3.2703,-3.3043,-3.306,-3.3018,-3.3033,-3.3214,-3.3096,-3.2924,-3.2912,-3.3058,-3.3176,-3.3085,-3.2823,-3.2449,-3.1977,-3.1866,-3.1509,-3.0401,-3.0477,-3.0418,-2.9696,-2.9571,-2.9866,-3.067,-3.1157,-3.178,-3.2656,-3.3218,-3.3675,-3.3985,-3.4346,-3.482,-3.5512,-3.5847,-3.6242,-3.6662,-3.7194,-3.7639,-3.7963,-3.825,-3.8516,-3.8805,-3.8805,-3.8985,-3.9299,-3.9342,-3.9484,-3.9703,-3.9729,-3.9918,-4.0246,-4.0476,-4.0638,-4.0758,-4.0989,-4.1082,-4.1082,-4.1082,-4.1082,-4.1082,0.0,0.0,0.0,0.0,0.0,0.0,0.0,0.0,0.0,0.0,0.0,0.0,0.0,0.0,0.0,0.0,0.0,0.0,0.0,0.0,0.0,0.0,0.0,0.0,0.0,0.0,0.0,0.0,0.0,0.0,0.0,0.0,0.0,0.0,0.0,0.0,0.0,0.0,0.0,0.0,0.0,0.0,0.0,0.0,0.0,0.0,0.0,0.0,0.0,0.0,-3.3319,-3.2935,-3.2605,-3.2468,-3.2456,-3.2484,-3.2648,-3.2796,-3.2873,-3.2857,-3.2803,-3.2877,-3.2823,-3.2784,-3.2784,-3.2877,-3.2985,-3.3016,-3.2648,-3.2259,-3.1964,-3.1552,-3.1102,-3.0568,-3.0507,-3.0326,-2.9882,-2.9834,-3.0111,-3.0839,-3.126,-3.1836,-3.2721,-3.3185,-3.3605,-3.3896,-3.4108,-3.462,-3.5367,-3.5608,-3.6053,-3.6693,-3.7164,-3.7639,-3.8107,-3.8307,-3.8516,-3.8805,-3.8805,-3.8985,-3.9299,-3.9299,-3.9458,-3.9703,-3.9703,-3.9841,-4.0121,-4.0395,-4.051,-4.0534,-4.0799,-4.0912,-4.0912,-4.0912,-4.0912,-4.0912,0.0,0.0,0.0,0.0,0.0,0.0,0.0,0.0,0.0,0.0,0.0,0.0,0.0,0.0,0.0,0.0,0.0,0.0,0.0,0.0,0.0,0.0,0.0,0.0,0.0,0.0,0.0,0.0,0.0,0.0,0.0,0.0,0.0,0.0,0.0,0.0,0.0,0.0,0.0,0.0,0.0,0.0,0.0,0.0,0.0,0.0,0.0,0.0,0.0,0.0,-3.287,-3.28,-3.2496,-3.2287,-3.229,-3.2664,-3.2566,-3.2425,-3.2792,-3.2792,-3.2641,-3.2532,-3.252,-3.252,-3.252,-3.2547,-3.2617,-3.2773,-3.2388,-3.201,-3.2023,-3.1131,-3.0493,-3.0762,-3.0417,-3.008,-3.005,-3.0019,-3.0367,-3.1251,-3.1443,-3.1935,-3.3087,-3.3304,-3.3536,-3.3862,-3.404,-3.4486,-3.5285,-3.5367,-3.5896,-3.703,-3.7314,-3.7756,-3.8391,-3.8391,-3.8516,-3.8805,-3.8805,-3.8985,-3.9299,-3.9299,-3.9458,-3.9703,-3.9703,-3.9841,-4.0138,-4.0387,-4.0468,-4.0534,-4.0776,-4.0871,-4.0912,-4.0912,-4.0912,-4.0912,0.0,0.0,0.0,0.0,0.0,0.0,0.0,0.0,0.0,0.0,-2.479,-2.4897,0.0,0.0,0.0,0.0,0.0,0.0,0.0,0.0,0.0,0.0,0.0,0.0,0.0,0.0,0.0,0.0,0.0,0.0,0.0,0.0,0.0,0.0,0.0,0.0,0.0,0.0,0.0,0.0,0.0,0.0,0.0,0.0,0.0,0.0,0.0,0.0,0.0,0.0,-3.2773,-3.2594,-3.233,-3.2219,-3.2191,-3.215,-3.2094,-3.2122,-3.2302,-3.215,-3.1996,-3.2066,-3.2094,-3.2094,-3.2094,-3.2274,-3.2425,-3.233,-3.215,-3.1811,-3.116,-3.0955,-3.0643,-2.996,-2.9988,-2.9988,-2.9741,-2.9696,-2.9946,-3.06,-3.1162,-3.178,-3.2497,-3.3308,-3.3827,-3.3896,-3.4191,-3.4534,-3.4953,-3.5136,-3.5896,-3.7284,-3.7639,-3.802,-3.8408,-3.8391,-3.8516,-3.8805,-3.8805,-3.8985,-3.9299,-3.9299,-3.9458,-3.9703,-3.9703,0.0,-4.0096,-4.0263,-4.0387,-4.051,-4.0673,-4.0793,-4.0912,-4.0912,-4.0912,-4.0912,0.0,0.0,0.0,0.0,0.0,0.0,0.0,-2.4345,-2.4345,-2.4345,-2.4418,-2.4574,-2.4801,-2.461,0.0,0.0,0.0,0.0,0.0,0.0,0.0,0.0,0.0,0.0,0.0,0.0,-2.8033,-2.8197,0.0,0.0,0.0,0.0,0.0,0.0,0.0,0.0,0.0,0.0,0.0,0.0,0.0,0.0,0.0,0.0,0.0,0.0,0.0,0.0,0.0,0.0,-3.2163,-3.2135,-3.2191,-3.2094,-3.2025,-3.2066,-3.2025,-3.194,-3.2135,-3.2053,-3.1898,-3.1898,-3.1898,-3.1898,-3.1898,-3.1996,-3.2094,-3.2094,-3.1868,-3.1687,-3.1767,-3.1455,-3.1238,-3.1435,-3.1094,-3.0769,-3.0599,-3.0328,-3.0378,-3.1043,-3.1406,-3.197,-3.293,-3.347,-3.3813,-3.3971,-3.4088,-3.4346,-3.4868,-3.5347,-3.6086,-3.7103,-3.7476,-3.7889,-3.8408,-3.8391,-3.8504,-3.8683,-3.875,-3.8914,-3.9148,-3.9245,-3.9405,-3.9616,-3.9677,-3.9807,-4.0011,-4.023,-4.0387,-4.051,-4.0648,-4.0793,-4.0912,-4.0912,-4.0912,-4.0912,0.0,0.0,0.0,0.0,0.0,0.0,0.0,-2.4258,-2.42,-2.42,-2.42,-2.4309,-2.4646,-2.4538,-2.449,0.0,0.0,0.0,0.0,0.0,0.0,0.0,0.0,0.0,0.0,0.0,0.0,-2.8046,-2.8398,0.0,0.0,0.0,0.0,0.0,-3.1292,0.0,0.0,0.0,0.0,0.0,0.0,0.0,0.0,0.0,0.0,0.0,0.0,0.0,0.0,0.0,-3.1552,-3.1653,-3.191,-3.1896,-3.1841,-3.2094,-3.1968,-3.1813,-3.2094,-3.2038,-3.1883,-3.1813,-3.1756,-3.1727,-3.1727,-3.1727,-3.1756,-3.1883,-3.1582,-3.1499,-3.2183,-3.1658,-3.1492,-3.2557,-3.2001,-3.1401,-3.1401,-3.0968,-3.0898,-3.1612,-3.1674,-3.2183,-3.3478,-3.364,-3.3779,-3.4094,-3.404,-3.4259,-3.4835,-3.5671,-3.6383,-3.689,-3.7342,-3.7844,-3.8391,-3.8391,-3.8464,-3.8588,-3.8738,-3.8887,-3.8996,-3.9202,-3.9379,-3.9501,-3.9616,-3.9746,-3.9926,-4.013,-4.0313,-4.0485,-4.0583,-4.0745,-4.0864,-4.0888,-4.0912,-4.0912,0.0,0.0,0.0,0.0,0.0,0.0,0.0,-2.4476,-2.42,-2.42,-2.42,-2.42,-2.4236,-2.4236,-2.4236,0.0,0.0,0.0,0.0,0.0,0.0,0.0,0.0,0.0,0.0,0.0,0.0,-2.7822,-2.7875,0.0,0.0,0.0,0.0,0.0,0.0,-3.1131,-3.1552,0.0,0.0,0.0,0.0,0.0,0.0,0.0,0.0,0.0,0.0,0.0,0.0,0.0,0.0,-3.1336,-3.1365,-3.1568,-3.1813,-3.1968,-3.1798,-3.1597,-3.194,-3.1798,-3.1597,-3.1756,-3.167,-3.1539,-3.1539,-3.1539,-3.1539,-3.1539,-3.1409,-3.1249,-3.1013,-3.0789,-3.0767,-3.114,-3.1163,-3.1134,-3.1134,-3.0919,-3.102,-3.1636,-3.1603,-3.2078,-3.3443,-3.3793,-3.3951,-3.4094,-3.4278,-3.4448,-3.4698,-3.5943,-3.6723,-3.689,-3.7698,-3.8193,-3.8391,-3.8391,-3.8464,-3.8588,-3.8738,-3.8887,-3.8996,-3.9202,-3.9379,-3.9501,-3.9511,-3.9668,0.0,-3.9926,-4.0104,-4.033,-4.0461,-4.0583,-4.0721,-4.0864,-4.0912,-4.0912,0.0,0.0,0.0,0.0,0.0,0.0,-2.4642,-2.4502,-2.4386,-2.4041,-2.3897,-2.3934,-2.4164,-2.408,-2.408,-2.42,0.0,0.0,0.0,0.0,0.0,0.0,0.0,0.0,0.0,0.0,-2.6811,-2.6778,-2.709,0.0,0.0,0.0,0.0,0.0,0.0,-3.0523,-3.0822,0.0,0.0,0.0,0.0,0.0,0.0,0.0,0.0,0.0,0.0,0.0,-3.1131,-3.0999,-3.0925,0.0,-3.0969,-3.1029,0.0,0.0,-3.1452,-3.1307,-3.184,-3.1811,-3.164,-3.1756,-3.1727,-3.1626,-3.1438,-3.138,-3.138,-3.138,-3.1176,-3.1117,-3.1454,-3.1301,-3.1451,-3.2352,0.0,0.0,-3.1945,-3.1536,-3.1427,-3.1929,-3.195,-3.2449,-3.3774,-3.3971,-3.4108,-3.4264,-3.4346,-3.4481,-3.4698,-3.5198,-3.5832,-3.6585,-3.7057,-3.7669,-3.8391,-3.8391,-3.8436,-3.8476,-3.8711,-3.8832,-3.8887,-3.9175,-3.9325,-3.9379,-3.9458,-3.9616,0.0,-3.9875,-4.0054,-4.0313,-4.0461,-4.0583,-4.0721,-4.0864,-4.0912,-4.0912,0.0,0.0,0.0,0.0,0.0,-2.5517,-2.4673,-2.4547,-2.4389,-2.3892,-2.3677,-2.3714,-2.397,-2.3897,-2.3861,-2.4007,-2.4309,0.0,0.0,0.0,0.0,0.0,0.0,0.0,0.0,0.0,-2.6544,-2.6448,-2.6823,-2.7266,0.0,0.0,-2.8817,-2.9243,0.0,0.0,0.0,0.0,0.0,0.0,0.0,0.0,0.0,0.0,0.0,0.0,0.0,0.0,0.0,0.0,0.0,0.0,0.0,0.0,0.0,0.0,-3.1087,-3.1014,-3.1394,-3.1481,-3.1423,-3.1409,-3.1424,-3.1366,-3.1073,-3.1073,-3.1102,-3.1014,-3.091,-3.1026,-3.1731,-3.1633,-3.1852,0.0,0.0,-3.2457,-3.2533,-3.2032,-3.1827,-3.2248,-3.2334,-3.2815,-3.3993,-3.4162,-3.423,-3.438,-3.4414,-3.4481,-3.4698,-3.4698,-3.5184,-3.6197,-3.6585,-3.7222,-3.8164,-3.8193,-3.825,-3.8391,-3.8628,-3.875,-3.8805,-3.9094,-3.9245,-3.9299,-3.9405,-3.9537,0.0,-3.9781,-3.9986,-4.0238,-4.0387,-4.051,-4.0673,-4.0793,-4.0864,-4.0912,0.0,0.0,0.0,0.0,0.0,0.0,-2.5178,-2.4657,-2.4126,-2.366,-2.3593,-2.3593,-2.3604,-2.3593,-2.3593,-2.3604,-2.4152,0.0,0.0,0.0,0.0,0.0,0.0,0.0,0.0,0.0,-2.71,-2.7289,-2.7289,-2.7456,-2.7809,-2.8,-2.8197,-2.832,0.0,0.0,0.0,0.0,0.0,0.0,0.0,0.0,0.0,0.0,0.0,0.0,0.0,0.0,0.0,0.0,0.0,0.0,0.0,0.0,0.0,0.0,-3.0643,-3.0732,-3.0417,-3.0568,-3.0747,-3.0554,-3.0553,-3.0568,-3.0357,-3.0568,-3.0702,-3.0387,-3.0568,-3.0951,-3.1409,-3.1385,-3.1723,-3.299,0.0,0.0,-3.2576,-3.2255,-3.2131,-3.2557,-3.2656,-3.3047,-3.4002,-3.4264,-3.4414,-3.4414,-3.4414,-3.4481,-3.4698,-3.4698,-3.5067,-3.5881,-3.6554,-3.7163,-3.77,-3.77,-3.7934,-3.8391,-3.8532,-3.8655,-3.8805,-3.8942,-3.9121,-3.9299,-3.9299,-3.9441,0.0,-3.9703,-3.9858,-4.0113,-4.0238,-4.0387,-4.0534,-4.0648,-4.0793,-4.0912,0.0,0.0,0.0,0.0,0.0,0.0,0.0,-2.4886,-2.4476,-2.3949,-2.3471,-2.3298,-2.3556,-2.3482,-2.3446,-2.3604,-2.3776,0.0,0.0,0.0,0.0,0.0,0.0,0.0,0.0,0.0,-2.6044,-2.6058,-2.6492,-2.6817,-2.7046,-2.7637,-2.8039,-2.8287,-2.8417,-2.8675,0.0,0.0,0.0,0.0,0.0,0.0,0.0,0.0,0.0,0.0,0.0,0.0,0.0,0.0,0.0,0.0,0.0,0.0,0.0,0.0,0.0,0.0,-3.0251,-3.0312,-3.0312,-3.0237,-3.0251,-3.0221,-3.0007,-3.016,-3.0282,-3.019,-3.0129,-3.0156,-3.0325,-3.0443,-3.0642,-3.0975,-3.1175,0.0,0.0,-3.1872,-3.215,-3.3105,-3.3614,-3.3994,-3.4283,-3.4346,-3.4448,-3.4597,-3.4597,-3.4731,-3.503,-3.4916,-3.5151,-3.5881,-3.6102,-3.6631,-3.7492,-3.7492,-3.7669,-3.8078,-3.8335,-3.8516,-3.8667,-3.8914,-3.9121,-3.9299,-3.9299,-3.9405,-3.9563,-3.9651,-3.9807,-4.0003,-4.0213,-4.0387,-4.051,-4.0648,-4.0793,-4.0912,0.0,0.0,0.0,0.0,0.0,0.0,0.0,-2.493,-2.4475,-2.3952,-2.3382,-2.3113,-2.3335,-2.3261,-2.3224,-2.3372,-2.3372,0.0,0.0,0.0,0.0,0.0,0.0,0.0,0.0,-2.5645,-2.5795,-2.5967,-2.6327,-2.6639,-2.6948,-2.7386,-2.7756,-2.8006,-2.8006,-2.8203,0.0,0.0,0.0,0.0,0.0,0.0,-3.0052,0.0,0.0,0.0,0.0,0.0,0.0,0.0,0.0,0.0,0.0,0.0,0.0,0.0,-2.9401,-2.9574,0.0,-2.9761,-2.9777,-2.9637,-2.9668,-2.9668,-2.9481,-2.9637,-2.9747,-2.9637,-2.9668,-2.9769,-2.9855,-3.0206,-3.051,-3.0699,-3.0764,-3.1045,-3.1738,-3.1735,-3.2136,-3.3551,-3.4201,-3.4515,-3.4515,-3.4549,-3.465,-3.475,-3.4798,-3.485,-3.5082,-3.4968,-3.5085,-3.5512,-3.5705,-3.6243,-3.7118,-3.7268,-3.7522,-3.7905,-3.8107,-3.8347,-3.8611,-3.8777,-3.9013,-3.9299,-3.9299,-3.9395,0.0,-3.9625,-3.9781,-3.9926,-4.0138,-4.0313,-4.0436,-4.0576,-4.0721,-4.084,0.0,0.0,0.0,0.0,0.0,0.0,0.0,-2.4836,-2.4355,-2.3853,-2.3362,-2.3045,-2.3001,-2.3001,-2.2964,-2.3001,0.0,0.0,0.0,0.0,0.0,0.0,0.0,0.0,0.0,-2.5828,-2.6141,-2.6679,-2.6679,-2.6897,-2.7268,-2.7268,-2.7335,-2.749,-2.7469,-2.7669,0.0,0.0,0.0,0.0,0.0,0.0,0.0,0.0,0.0,0.0,0.0,0.0,0.0,0.0,0.0,0.0,0.0,0.0,0.0,0.0,0.0,0.0,0.0,-2.9022,-2.9184,-2.8876,-2.894,-2.9004,-2.8812,-2.904,0.0,-2.8862,-2.9194,-2.9614,-2.9854,-3.0405,-3.104,-3.1592,-3.1062,-3.0911,-3.1958,-3.1887,-3.234,-3.395,-3.4481,-3.4698,-3.4698,-3.4817,-3.4902,-3.4902,-3.4902,-3.4902,-3.4935,-3.4935,-3.4935,-3.4935,-3.5429,-3.6006,-3.6616,-3.6983,-3.7373,-3.7847,-3.7876,-3.8119,-3.8583,-3.8583,-3.8832,0.0,-3.9272,-3.9352,-3.9475,-3.9625,-3.9755,-3.9901,-4.0037,-4.0163,-4.0288,-4.0436,-4.0583,-4.0721,0.0,0.0,0.0,0.0,0.0,0.0,0.0,0.0,0.0,0.0,-2.3875,-2.3416,-2.3045,-2.2852,-2.2815,0.0,0.0,0.0,0.0,0.0,0.0,0.0,0.0,0.0,0.0,-2.5264,-2.5769,-2.6461,-2.6611,-2.6829,-2.7079,-2.7079,-2.718,-2.7335,-2.718,-2.718,0.0,0.0,0.0,0.0,0.0,0.0,0.0,0.0,0.0,0.0,-2.8789,-2.8835,0.0,0.0,0.0,0.0,0.0,0.0,0.0,0.0,-2.9004,-2.8844,-2.8812,0.0,-2.8862,-2.8683,-2.8683,-2.8716,0.0,-2.878,-2.8908,-2.8812,-2.8908,-2.8981,-2.8957,-2.9678,-3.0153,-2.9753,-2.9853,-3.0533,-3.2101,-3.3264,-3.4114,-3.452,-3.4631,-3.4698,-3.4698,-3.4731,-3.4783,-3.4902,-3.4902,-3.4968,-3.5115,-3.5115,-3.5115,-3.5115,-3.5509,-3.5784,-3.5943,-3.643,-3.6862,-3.7211,-3.7583,-3.7992,-3.8448,-3.8448,-3.8683,-3.9067,-3.9067,-3.9094,-3.9148,-3.9432,-3.958,-3.9616,-3.9833,-4.0037,-4.0163,-4.0288,-4.0502,-4.0697,0.0,0.0,0.0,0.0,0.0,0.0,0.0,0.0,0.0,0.0,0.0,0.0,0.0,0.0,0.0,0.0,0.0,0.0,0.0,0.0,0.0,0.0,0.0,0.0,-2.4455,-2.4671,-2.517,-2.5896,-2.6094,-2.6371,-2.6726,-2.6829,-2.6977,-2.7146,-2.7045,-2.699,0.0,0.0,0.0,0.0,-2.7436,0.0,0.0,0.0,0.0,0.0,-2.8157,-2.8189,0.0,-2.8481,-2.8578,-2.8605,0.0,0.0,0.0,0.0,-2.8748,-2.8605,-2.8683,-2.8716,-2.8683,-2.8619,-2.8587,-2.8587,-2.8587,0.0,-2.9125,-2.9125,-2.9356,-2.9399,-2.8963,-2.9551,-2.996,-2.9569,-2.9522,-3.0024,-3.1513,-3.2876,-3.3912,-3.437,-3.4515,-3.4664,-3.4898,-3.4931,-3.4949,-3.5034,-3.5034,-3.5034,-3.5082,-3.5082,-3.5049,-3.4949,-3.5133,-3.5379,-3.5688,-3.6226,-3.6585,-3.6785,-3.7014,-3.7419,-3.7931,-3.7988,-3.8331,-3.8832,-3.8887,-3.8942,-3.9023,-3.9299,-3.9432,-3.9528,-3.9798,-3.9935,-4.0037,-4.023,-4.0404,-4.0527,0.0,0.0,0.0,0.0,0.0,0.0,0.0,0.0,0.0,0.0,0.0,0.0,0.0,0.0,0.0,0.0,0.0,0.0,0.0,0.0,0.0,0.0,0.0,-2.3677,-2.4043,-2.4116,-2.4503,-2.5194,-2.5465,-2.5851,-2.6324,-2.6543,-2.676,-2.6909,-2.6909,-2.6909,0.0,0.0,-2.6875,-2.6909,-2.6943,0.0,0.0,0.0,0.0,0.0,0.0,0.0,0.0,-2.804,-2.8106,-2.7941,-2.8137,0.0,0.0,0.0,0.0,0.0,-2.8425,-2.849,-2.8522,-2.8587,-2.8587,-2.8587,-2.8587,0.0,0.0,0.0,0.0,0.0,-2.9322,-2.98,-3.0204,-2.9994,-2.9787,-2.9984,-3.0963,-3.2036,-3.307,-3.3988,-3.4264,-3.4616,-3.5115,-3.518,-3.518,-3.5148,-3.5148,-3.5082,-3.4868,-3.4902,-3.4835,-3.4698,-3.4731,-3.5001,-3.5527,-3.61,-3.6398,-3.6398,-3.646,-3.6816,-3.7401,-3.7519,-3.7943,-3.8583,0.0,0.0,-3.8958,-3.9175,-3.9325,-3.9458,-3.972,-3.9849,-3.9901,-4.0155,-4.0263,-4.0355,0.0,0.0,0.0,0.0,0.0,0.0,0.0,0.0,0.0,0.0,0.0,0.0,0.0,0.0,0.0,0.0,0.0,0.0,0.0,0.0,0.0,0.0,-2.2889,-2.3187,-2.3446,-2.3787,-2.4202,-2.4791,-2.5347,-2.5723,-2.5968,-2.6349,-2.6568,-2.6568,-2.6568,-2.6568,-2.6568,-2.6408,-2.6396,-2.6499,-2.6685,0.0,0.0,0.0,0.0,0.0,0.0,0.0,0.0,-2.7781,-2.7746,-2.759,-2.7623,0.0,0.0,0.0,0.0,0.0,-2.7908,-2.8066,-2.8243,-2.8522,-2.8587,-2.8587,-2.8587,0.0,0.0,0.0,0.0,0.0,0.0,-3.0254,-3.0721,-2.951,-3.0651,-3.1729,-3.1895,-3.2818,-3.3622,-3.4045,-3.4264,-3.4534,-3.4902,-3.5115,-3.5115,-3.4968,-3.4935,-3.4868,-3.4731,-3.4835,-3.4835,-3.4698,-3.4817,-3.4868,-3.485,-3.5509,-3.5816,-3.5816,-3.6289,-3.6816,-3.7417,-3.7417,-3.7815,-3.8448,0.0,-3.8644,-3.8672,-3.8931,-3.905,-3.9121,-3.9432,-3.9642,-3.9755,-3.9884,-4.0104,-4.0355,0.0,0.0,0.0,0.0,0.0,0.0,0.0,0.0,0.0,0.0,0.0,0.0,0.0,0.0,0.0,0.0,0.0,0.0,0.0,0.0,0.0,0.0,-2.2515,-2.2777,-2.2964,-2.315,-2.3582,-2.4274,-2.4659,-2.5099,-2.5571,-2.6002,-2.6188,-2.6188,-2.6188,-2.6407,-2.6751,-2.6659,-2.6833,-2.7155,0.0,0.0,0.0,0.0,0.0,0.0,0.0,0.0,0.0,0.0,-2.7227,-2.6939,-2.7142,0.0,0.0,0.0,0.0,0.0,-2.7901,-2.7967,-2.8,-2.8276,-2.8341,-2.8341,-2.8341,0.0,0.0,0.0,0.0,0.0,0.0,-3.0038,-3.0202,-2.9363,-3.0692,-3.1785,-3.1632,-3.2387,-3.3199,-3.3845,-3.3977,-3.4264,-3.4983,-3.4983,-3.4916,-3.4902,-3.4835,-3.4783,-3.4817,-3.4817,-3.475,-3.4698,-3.465,-3.4616,-3.4549,-3.5019,-3.5314,-3.5412,-3.5797,-3.6195,-3.6662,-3.6982,-3.7401,-3.7873,0.0,-3.8532,-3.8616,-3.8727,-3.8821,-3.8914,-3.9272,-3.9379,-3.9319,-3.9372,-3.9504,-3.9644,0.0,0.0,0.0,0.0,0.0,0.0,0.0,0.0,0.0,0.0,0.0,0.0,0.0,0.0,0.0,0.0,0.0,0.0,0.0,0.0,-2.244,-2.2046,-2.2214,-2.2402,-2.2553,-2.2665,-2.3038,-2.3677,-2.3984,-2.4515,-2.5229,-2.5606,-2.5758,-2.577,-2.5928,-2.6316,-2.6876,-2.7,-2.7273,-2.7644,0.0,0.0,0.0,0.0,0.0,0.0,0.0,0.0,0.0,0.0,0.0,0.0,0.0,0.0,0.0,-2.7712,-2.7793,-2.7772,-2.8043,-2.811,-2.8097,-2.8178,0.0,0.0,0.0,0.0,0.0,0.0,0.0,0.0,0.0,-2.9754,-2.9736,-2.9839,-3.075,-3.1433,-3.145,-3.1987,-3.2725,-3.3659,-3.3742,-3.4113,-3.5115,-3.4964,-3.4865,-3.4968,-3.4783,-3.475,-3.4835,-3.4765,-3.4698,-3.4698,-3.4563,-3.4481,-3.4481,-3.4702,-3.4949,-3.5115,-3.5359,-3.5683,-3.6005,-3.6523,-3.6936,-3.7312,-3.7947,-3.8278,-3.8319,-3.8448,-3.8516,-3.8556,-3.886,-3.8887,-3.8805,-3.8871,-3.8882,-3.8947,0.0,0.0,0.0,0.0,0.0,0.0,0.0,0.0,0.0,0.0,0.0,0.0,0.0,0.0,0.0,0.0,0.0,0.0,0.0,0.0,-2.2067,-2.1845,-2.1987,-2.2138,-2.2138,-2.2515,-2.2815,-2.3075,-2.3629,-2.4311,-2.5052,-2.5229,-2.5347,-2.5371,-2.6045,-2.6408,-2.6469,-2.6968,-2.7199,-2.7248,-2.7036,0.0,0.0,0.0,0.0,0.0,0.0,0.0,0.0,0.0,0.0,0.0,0.0,0.0,-2.7545,-2.7947,-2.8214,-2.8299,-2.8129,-2.8503,-2.8873,-2.8607,-2.8307,0.0,-2.8112,-2.8432,0.0,-2.9012,0.0,0.0,-2.9627,-2.9557,-2.9993,-3.1455,-3.1312,-3.1312,-3.2033,-3.2309,-3.2704,-3.3514,-3.3879,-3.4356,-3.5115,-3.5195,-3.5148,-3.518,-3.4898,-3.4698,-3.4698,-3.4698,-3.4698,-3.4698,-3.4698,-3.4664,-3.4664,-3.4698,-3.4783,-3.4935,-3.5326,-3.5683,-3.6005,-3.6179,-3.6492,-3.6966,-3.7492,-3.7655,-3.7535,-3.7972,-3.7988,-3.7788,-3.796,-3.8087,-3.8185,-3.8435,-3.8546,-3.8585,0.0,0.0,0.0,0.0,0.0,0.0,0.0,0.0,0.0,0.0,0.0,0.0,0.0,0.0,0.0,0.0,0.0,0.0,0.0,0.0,-2.2486,-2.1828,-2.1883,-2.1911,-2.1911,-2.2176,-2.2553,-2.3001,-2.3482,-2.3922,-2.4322,-2.4696,-2.4993,-2.5248,-2.584,-2.6491,-2.7203,-2.7282,-2.7596,-2.7975,-2.778,-2.7755,0.0,0.0,0.0,0.0,0.0,0.0,0.0,0.0,-2.7023,-2.6723,0.0,0.0,-2.7136,-2.7397,-2.7693,-2.7987,-2.8011,-2.8618,-2.9132,-2.9022,-2.8992,0.0,0.0,-2.8204,-2.8103,-2.8675,-2.8844,-2.8851,-2.8851,-2.9003,-2.9406,-3.0321,-3.0766,-3.1254,-3.1919,-3.2228,-3.2725,-3.3638,-3.3859,-3.4235,-3.5115,-3.5082,-3.5082,-3.518,-3.4983,-3.4883,-3.4983,-3.4883,-3.4783,-3.4698,-3.4698,-3.4631,-3.4515,-3.4631,-3.475,-3.4902,-3.518,-3.5457,-3.5716,-3.6053,-3.6367,-3.6677,-3.7164,-3.7403,-3.7417,-3.7594,-3.7594,-3.7522,-3.7565,-3.7623,-3.7682,-3.7679,-3.7679,-3.7767,0.0,0.0,0.0,0.0,0.0,0.0,0.0,0.0,0.0,0.0,0.0,0.0,0.0,0.0,0.0,0.0,0.0,0.0,0.0,-2.2956,-2.2687,-2.2056,-2.2025,-2.2025,-2.2025,-2.2286,-2.2632,-2.2929,-2.3534,-2.3887,-2.3962,-2.4437,-2.4861,-2.5263,-2.577,-2.6547,-2.7535,-2.7533,-2.7858,-2.8259,-2.7973,-2.7888,0.0,0.0,0.0,0.0,0.0,0.0,0.0,0.0,0.0,0.0,0.0,0.0,0.0,0.0,-2.8012,-2.845,-2.8512,-2.9166,-2.9771,-2.9526,0.0,0.0,-2.8955,-2.8336,-2.8011,-2.8437,-2.8541,-2.861,-2.8794,-2.9199,-2.9656,-3.0219,-3.0873,-3.1469,-3.1992,-3.2322,-3.2797,-3.3638,-3.3914,-3.437,-3.5133,-3.5133,-3.5166,-3.5329,-3.5067,-3.5001,-3.518,-3.5082,-3.4949,-3.4865,-3.4865,-3.475,-3.4582,-3.4664,-3.4765,-3.4835,-3.5016,-3.5261,-3.5504,-3.5814,-3.6068,-3.6289,-3.6693,-3.6937,-3.7028,-3.7148,-3.7148,-3.7134,-3.7134,-3.7134,-3.7104,-3.7074,-3.7074,-3.721,0.0,0.0,0.0,0.0,0.0,0.0,0.0,0.0,0.0,0.0,0.0,0.0,0.0,0.0,0.0,0.0,0.0,0.0,0.0,-2.3018,-2.2511,-2.2501,-2.2501,-2.2501,-2.2501,-2.2956,-2.3087,-2.2814,-2.3871,-2.4295,-2.4107,-2.4504,-2.4937,-2.5417,-2.5905,-2.6478,-2.7117,-2.7658,-2.7881,-2.7846,-2.7328,-2.7434,-2.7834,0.0,0.0,0.0,0.0,0.0,0.0,0.0,-2.7371,0.0,0.0,0.0,0.0,0.0,-2.9341,-2.996,-2.9742,-3.0343,-3.0856,-3.0244,0.0,0.0,-2.9261,-2.8958,-2.8582,-2.8166,-2.8512,-2.9097,-2.9669,-3.029,-3.0962,-3.1746,-3.189,-3.2023,-3.2345,-3.2561,-3.2917,-3.3514,-3.4206,-3.4776,-3.5169,-3.5377,-3.5554,-3.5688,-3.5216,-3.5001,-3.518,-3.518,-3.518,-3.518,-3.518,-3.5115,-3.4902,-3.475,-3.4698,-3.4698,-3.485,-3.5115,-3.5504,-3.5504,-3.5572,-3.572,-3.6038,-3.6196,-3.6227,-3.6554,-3.6631,-3.6492,-3.6492,-3.6492,-3.6523,-3.6662,-3.6831,-3.703,0.0,0.0,0.0,0.0,0.0,0.0,0.0,0.0,0.0,0.0,0.0,0.0,0.0,0.0,0.0,0.0,0.0,0.0,0.0,-2.3619,-2.3329,-2.2998,-2.2977,-2.2977,-2.2977,-2.3432,-2.3484,-2.3097,-2.3554,-2.3817,-2.3908,-2.4349,-2.4905,-2.5461,-2.5612,-2.6057,-2.6683,-2.6554,-2.6663,-2.694,-2.6937,-2.7052,-2.7208,0.0,0.0,0.0,0.0,0.0,0.0,0.0,0.0,0.0,0.0,0.0,0.0,-2.7834,-2.8407,-2.9,-2.9236,-3.0126,-3.0985,-3.095,0.0,0.0,0.0,-2.9147,0.0,0.0,-2.8645,-2.9134,-2.9205,-3.0142,-3.0985,-3.1218,-3.1753,-3.2169,-3.2381,-3.2704,-3.3094,-3.3563,-3.4206,-3.4776,-3.5169,-3.5477,-3.5671,-3.5688,-3.5474,-3.5359,-3.5407,-3.5407,-3.5359,-3.518,-3.5082,-3.4916,-3.475,-3.4582,-3.4563,-3.4698,-3.485,-3.4968,-3.5082,-3.5359,-3.5537,-3.5572,-3.5767,-3.5926,-3.6053,-3.6274,-3.6414,-3.6492,-3.6492,-3.6492,-3.6492,-3.6538,-3.6739,-3.703,0.0,0.0,0.0,0.0,0.0,0.0,0.0,0.0,0.0,0.0,0.0,0.0,0.0,0.0,0.0,0.0,0.0,0.0,0.0,0.0,-2.3618,-2.334,-2.333,-2.3454,-2.3722,-2.3918,-2.3886,-2.3598,-2.3929,-2.4042,-2.4094,-2.4367,-2.4827,-2.5376,-2.5283,-2.5611,-2.6227,-2.5904,-2.5863,-2.6113,-2.6373,-2.655,-2.6674,0.0,0.0,0.0,0.0,0.0,0.0,0.0,0.0,0.0,0.0,0.0,0.0,-2.7615,-2.8287,-2.9067,-2.9457,-3.0394,-3.1233,-3.1289,-3.0976,-3.046,-2.9842,-2.8965,-2.8308,-2.8308,-2.8831,-2.9363,-2.9537,-3.0406,-3.119,-3.1442,-3.1902,-3.2277,-3.2489,-3.2739,-3.3023,-3.3423,-3.4206,-3.4776,-3.4957,-3.5494,-3.5831,-3.5831,-3.5604,-3.5522,-3.5572,-3.5522,-3.5439,-3.5326,-3.5115,-3.4949,-3.4783,-3.4616,-3.4549,-3.4597,-3.475,-3.4769,-3.4702,-3.5261,-3.5472,-3.5392,-3.5606,-3.5831,-3.6005,-3.6148,-3.6305,-3.6492,-3.6492,-3.6492,-3.6492,-3.6492,-3.6724,-3.6999,0.0,0.0,0.0,0.0,0.0,0.0,0.0,0.0,0.0,0.0,0.0,0.0,0.0,0.0,0.0,0.0,0.0,0.0,0.0,0.0,-2.3542,-2.3542,-2.3542,-2.3862,-2.4401,-2.4282,-2.4206,-2.4206,-2.4615,-2.4743,-2.4497,-2.454,-2.4743,-2.5158,-2.4946,-2.5147,-2.5726,-2.5443,-2.5369,-2.5411,-2.5737,-2.5946,-2.6196,-2.6674,0.0,0.0,0.0,0.0,0.0,0.0,0.0,0.0,-2.7231,0.0,-2.7563,-2.78,-2.8712,-2.9742,-3.0126,-3.0923,-3.1549,-3.141,-3.0767,-2.9929,-2.8907,-2.8668,-2.8655,-2.86,-2.9102,-2.974,-3.031,-3.0934,-3.1544,-3.2123,-3.2218,-3.2336,-3.2668,-3.2739,-3.286,-3.3241,-3.4235,-3.481,-3.4629,-3.5479,-3.6037,-3.6037,-3.5701,-3.5572,-3.5688,-3.5572,-3.5504,-3.5504,-3.5294,-3.5115,-3.4902,-3.475,-3.4597,-3.4414,-3.4597,-3.4597,-3.4414,-3.5129,-3.5359,-3.5213,-3.5509,-3.5767,-3.5973,-3.6116,-3.6274,-3.646,-3.646,-3.6492,-3.6492,-3.6492,-3.6693,-3.6969,0.0,0.0,0.0,0.0,0.0,0.0,0.0,0.0,0.0,0.0,0.0,0.0,0.0,0.0,0.0,0.0,0.0,0.0,0.0,0.0,-2.3968,-2.3743,-2.3925,-2.4008,-2.397,-2.4282,-2.4368,-2.4206,-2.4282,-2.4411,-2.4497,-2.47,-2.4871,-2.4946,-2.4529,-2.4411,-2.4529,-2.4272,-2.4401,-2.4743,-2.52,-2.5485,-2.5695,-2.6155,-2.6487,0.0,0.0,0.0,0.0,0.0,0.0,0.0,-2.726,-2.7476,-2.7788,-2.7615,-2.8474,-2.9523,-2.9742,-3.0709,0.0,-3.1729,-3.1388,-3.075,-2.9564,-2.9325,-2.919,-2.8695,-2.9455,-3.0256,-3.0391,-3.1273,-3.2069,-3.2191,-3.2408,-3.2596,-3.2704,-3.2846,-3.3037,-3.3276,-3.4119,-3.4695,-3.481,-3.564,-3.6148,-3.6148,-3.6005,-3.5846,-3.572,-3.5655,-3.5621,-3.5504,-3.5294,-3.5115,-3.4902,-3.475,-3.4597,-3.4414,-3.4597,-3.4597,-3.4414,-3.4835,-3.5082,-3.5213,-3.5279,-3.5492,-3.5752,-3.5784,-3.5975,-3.6274,-3.6274,-3.6352,-3.6492,-3.6492,-3.6616,-3.68,0.0,0.0,0.0,0.0,0.0,0.0,0.0,0.0,0.0,0.0,0.0,0.0,0.0,0.0,0.0,0.0,0.0,0.0,0.0,0.0,0.0,0.0,-2.3894,-2.3937,-2.3797,-2.3937,-2.398,-2.3851,-2.398,-2.4196,-2.4497,-2.4401,-2.4348,-2.4358,-2.4013,-2.3851,-2.3851,-2.3721,-2.3807,-2.4067,-2.4391,-2.468,-2.4935,-2.5527,-2.5988,-2.6404,-2.6622,0.0,0.0,0.0,0.0,0.0,0.0,0.0,-2.7708,-2.7696,-2.8367,-2.9223,-2.9716,-3.057,0.0,-3.1563,0.0,-3.1056,-3.0133,-2.9719,-2.942,-2.9122,-2.9523,-3.0052,-3.0351,-3.1151,-3.1843,-3.2164,-3.2336,-3.2467,-3.2561,-3.2739,-3.2917,-3.3122,-3.4119,-3.4743,-3.4776,-3.5705,-3.6305,-3.6211,-3.5858,-3.5687,-3.5847,-3.5433,-3.5306,-3.5489,-3.5294,-3.5148,-3.5034,-3.4831,-3.4664,-3.4549,-3.4563,-3.4481,-3.4414,-3.4683,-3.4949,-3.518,-3.518,-3.5394,-3.5688,-3.5688,-3.5911,-3.6196,-3.6196,-3.6305,-3.6492,-3.6492,-3.6569,-3.6723,0.0,0.0,0.0,0.0,0.0,0.0,0.0,0.0,0.0,0.0,0.0,0.0,0.0,0.0,0.0,0.0,0.0,0.0,0.0,0.0,0.0,0.0,-2.3897,-2.3941,-2.3887,-2.3809,-2.3726,-2.3656,-2.3831,-2.4095,-2.4454,-2.4057,-2.3841,-2.3754,-2.358,-2.346,-2.3406,-2.3406,-2.346,-2.3503,-2.3667,-2.3917,-2.4251,-2.4893,-2.5527,-2.6113,-2.6404,-2.6798,-2.7149,-2.719,0.0,0.0,0.0,0.0,-2.7603,-2.7841,-2.8379,-2.9028,-2.969,0.0,-3.1093,-3.1343,-3.145,0.0,-3.0669,-3.0126,-2.9801,-2.9692,-2.9665,-2.9794,-3.031,-3.0975,-3.1612,-3.2137,-3.2205,-3.23,-3.2417,-3.2596,-3.2775,-3.3023,-3.4036,-3.471,-3.4677,-3.5582,-3.6152,-3.6074,-3.5477,-3.5248,-3.5657,-3.4984,-3.4766,-3.5162,-3.5016,-3.4931,-3.5035,-3.4721,-3.4614,-3.4698,-3.4481,-3.4414,-3.4414,-3.4563,-3.4817,-3.5148,-3.5148,-3.5329,-3.5671,-3.5671,-3.5831,-3.6101,-3.6148,-3.6274,-3.646,-3.6492,-3.6569,-3.6723,0.0,0.0,0.0,0.0,0.0,0.0,0.0,0.0,0.0,0.0,0.0,0.0,0.0,0.0,0.0,0.0,0.0,0.0,0.0,0.0,0.0,0.0,-2.4669,-2.4578,-2.434,-2.4705,-2.4706,-2.438,-2.438,-2.4365,-2.4249,-2.4163,-2.3937,-2.3547,-2.3503,-2.3363,-2.3135,-2.3135,-2.3276,-2.3503,-2.3547,-2.3807,-2.4239,-2.4733,-2.52,-2.5664,-2.6343,-2.6727,-2.6985,-2.7149,-2.719,0.0,0.0,0.0,-2.7841,-2.7893,-2.8578,-2.9302,-2.925,0.0,-3.127,0.0,-3.1951,-3.1875,0.0,0.0,-3.0907,-3.0391,-3.0283,-3.031,-3.0391,-3.1314,-3.2123,-3.2205,-3.23,-3.2453,-3.2632,-3.2668,-3.2846,-3.3206,-3.3687,-3.4206,-3.481,-3.4906,-3.5124,-3.5554,-3.4983,-3.4541,-3.4438,-3.4227,-3.4031,-3.3954,-3.3815,-3.3929,-3.4322,-3.4159,-3.4291,-3.4698,-3.4481,-3.4414,-3.4414,-3.4414,-3.4601,-3.4935,-3.4935,-3.5148,-3.5537,-3.5537,-3.5636,-3.5784,-3.5958,-3.6116,-3.6274,-3.6445,-3.6569,-3.6723,0.0,0.0,0.0,0.0,0.0,0.0,0.0,0.0,0.0,0.0,0.0,0.0,0.0,0.0,0.0,0.0,0.0,0.0,0.0,0.0,0.0,-2.4562,-2.4562,-2.4608,-2.4608,-2.4838,-2.4941,-2.4887,-2.5032,-2.48,-2.4189,-2.4311,-2.4048,-2.3503,-2.3319,-2.3232,-2.3091,-2.3091,-2.3188,-2.3276,-2.3276,-2.3537,-2.398,-2.4229,-2.4893,-2.5779,-2.6093,-2.6561,-2.7067,-2.719,-2.719,-2.7231,-2.7301,0.0,0.0,0.0,-2.8351,-2.9,-2.9484,-3.033,-3.1222,0.0,-3.2036,-3.2114,-3.1748,-3.146,-3.1219,-3.0961,-3.0907,-3.0907,-3.0907,-3.1327,-3.1789,-3.2164,-3.2322,-3.2417,-3.2525,-3.2739,-3.2917,-3.3108,-3.332,-3.37,-3.428,-3.4325,-3.4486,-3.4922,-3.4407,-3.4118,-3.4178,-3.371,-3.3531,-3.3698,-3.3576,-3.3603,-3.3825,-3.3637,-3.3741,-3.4142,-3.4206,-3.4312,-3.4414,-3.4264,-3.4448,-3.4783,-3.4783,-3.4983,-3.5326,-3.5326,-3.5459,-3.572,-3.5926,-3.6085,-3.6211,-3.6414,-3.6569,-3.6723,0.0,0.0,0.0,0.0,0.0,0.0,0.0,0.0,0.0,0.0,0.0,0.0,0.0,0.0,0.0,0.0,0.0,0.0,0.0,0.0,0.0,-2.4746,-2.4746,-2.4803,-2.5046,-2.5046,-2.5126,-2.5349,-2.5498,-2.5219,-2.4551,-2.452,-2.4201,-2.3662,-2.3281,-2.3091,-2.3091,-2.3091,-2.3091,-2.3091,-2.3057,-2.3276,-2.3624,-2.3624,-2.4466,-2.5642,-2.5748,-2.6385,-2.7149,-2.719,-2.719,-2.7231,-2.7353,-2.7598,0.0,0.0,0.0,-2.8697,-2.9613,0.0,-3.0823,-3.1434,-3.1767,-3.1986,0.0,0.0,-3.1482,-3.1517,-3.1517,-3.1517,-3.1517,-3.1517,-3.1667,-3.2151,-3.2322,-3.2417,-3.2489,-3.2775,-3.2967,-3.2919,-3.2959,-3.3186,-3.3665,-3.3574,-3.3696,-3.4169,-3.3681,-3.3455,-3.3687,-3.3041,-3.2836,-3.3216,-3.3051,-3.3035,-3.3245,-3.3149,-3.3267,-3.3638,-3.3753,-3.3969,-3.4312,-3.4128,-3.4244,-3.4563,-3.4664,-3.4898,-3.518,-3.518,-3.5362,-3.5671,-3.591,-3.6068,-3.6179,-3.6414,-3.6616,-3.68,0.0,0.0,0.0,0.0,0.0,0.0,0.0,0.0,0.0,0.0,0.0,0.0,-2.1757,-2.1999,-2.2444,-2.3105,0.0,0.0,0.0,0.0,0.0,-2.5615,-2.5615,0.0,-2.5664,-2.5664,-2.5699,-2.5792,-2.5615,-2.5488,-2.5523,-2.4805,-2.4371,-2.4108,-2.3418,-2.3091,-2.3091,-2.3091,-2.3091,-2.3091,-2.2882,-2.2925,-2.3144,-2.3144,-2.3854,-2.4914,-2.5368,-2.6102,-2.6933,-2.7149,-2.719,-2.7272,-2.7719,-2.7881,-2.7962,0.0,0.0,0.0,-2.9263,-2.96,0.0,-3.0609,-3.1061,-3.1397,0.0,0.0,-3.1909,-3.2092,-3.2164,-3.2164,-3.2164,-3.2164,-3.2178,-3.2205,-3.2322,-3.2489,-3.2668,-3.2881,-3.2919,-3.2653,-3.2501,-3.2649,-3.3171,-3.2476,-3.2422,-3.3374,-3.2829,-3.2419,-3.2326,-3.1942,-3.1814,-3.189,-3.1571,-3.1782,-3.2527,-3.271,-3.3042,-3.3503,-3.3154,-3.3384,-3.4128,-3.3985,-3.3985,-3.4162,-3.4515,-3.4898,-3.518,-3.518,-3.5326,-3.5522,-3.5861,-3.6005,-3.6037,-3.6398,-3.6724,-3.6984,0.0,0.0,0.0,0.0,0.0,0.0,0.0,0.0,0.0,0.0,0.0,0.0,0.0,-2.2131,-2.2571,-2.2503,-2.3323,0.0,0.0,0.0,0.0,-2.5693,-2.5693,-2.5781,-2.5965,-2.611,-2.633,-2.6513,-2.6598,-2.6364,-2.574,-2.5476,-2.4969,-2.4307,-2.3644,-2.3276,-2.3091,-2.3091,-2.3091,-2.3091,-2.2882,-2.3101,-2.3537,-2.3222,-2.382,-2.4935,-2.5348,-2.5904,-2.6539,-2.7015,-2.7449,-2.7755,-2.8063,-2.8462,-2.894,-2.9397,-2.928,-2.9137,-2.9607,0.0,0.0,-3.0495,-3.0973,-3.132,-3.1706,-3.1963,-3.2109,-3.2182,-3.2218,-3.2218,-3.2218,-3.2218,-3.2218,-3.2218,-3.2322,-3.2489,-3.2668,-3.2966,-3.3038,-3.2645,-3.2221,-3.1989,-3.2105,-3.163,-3.1604,-3.2243,-3.23,-3.2247,-3.2191,-3.1925,-3.1712,-3.1596,-3.1394,-3.1411,-3.159,-3.1969,-3.246,-3.2961,-3.2678,-3.2953,-3.377,-3.3458,-3.3493,-3.3805,-3.4162,-3.4568,-3.5001,-3.5001,-3.518,-3.5537,-3.5861,-3.6005,-3.6037,-3.6367,-3.6724,-3.7015,0.0,0.0,0.0,0.0,0.0,0.0,0.0,0.0,0.0,-2.1637,0.0,0.0,0.0,0.0,-2.2865,-2.2911,-2.3777,-2.4578,-2.499,-2.543,-2.5693,-2.5693,-2.5693,-2.5781,-2.5955,-2.6255,-2.6448,-2.6651,-2.688,-2.6679,-2.6044,-2.595,-2.5531,-2.4749,-2.4267,-2.3806,-2.3305,-2.3159,-2.3091,-2.3057,-2.2794,-2.3057,-2.3614,-2.3129,-2.3779,-2.4995,-2.5381,-2.6018,-2.6733,-2.7307,-2.7702,-2.8096,-2.854,-2.9115,-2.9694,-3.0001,-2.9713,-2.9374,-2.9618,-2.9444,-2.9341,-2.9985,-3.0508,-3.0947,-3.1471,-3.1817,-3.2036,-3.2182,-3.2218,-3.2218,-3.2218,-3.2218,-3.2205,-3.2277,-3.2395,-3.2596,-3.286,-3.3192,-3.319,-3.253,-3.1995,-3.1607,-3.1293,-3.11,-3.1204,-3.1667,-3.2035,0.0,-3.215,-3.184,-3.1582,-3.1263,-3.1248,-3.1161,-3.0984,-3.1465,-3.1907,-3.2341,-3.2249,-3.2576,-3.3199,-3.2917,-3.3058,-3.3528,-3.3819,-3.4264,-3.485,-3.4868,-3.5115,-3.5424,-3.5782,-3.5941,-3.6037,-3.6367,-3.6724,-3.7015,0.0,0.0,0.0,0.0,0.0,0.0,0.0,0.0,-2.1674,-2.1674,0.0,0.0,0.0,0.0,0.0,-2.4381,-2.4735,-2.499,-2.5284,-2.5538,-2.5693,-2.5693,0.0,0.0,0.0,0.0,0.0,-2.6091,-2.64,-2.6496,-2.6496,-2.63,-2.5956,-2.5513,-2.5297,-2.4685,-2.3799,-2.335,-2.311,-2.3067,-2.2574,-2.2821,-2.3374,-2.2921,-2.3715,-2.5181,-2.5455,-2.6422,-2.7629,-2.7893,-2.8042,-2.8241,-2.9152,-2.9784,-3.0134,-3.0134,-2.9749,-2.9316,0.0,0.0,0.0,-2.9052,-2.9599,-3.0267,-3.0874,0.0,-3.172,-3.2109,-3.2182,-3.2182,-3.2218,-3.2218,-3.2241,-3.2381,-3.2561,-3.281,-3.3241,-3.3466,-3.3255,-3.2331,-3.1917,-3.1482,-3.0862,-3.0896,-3.1175,-3.1638,-3.212,-3.2259,-3.2025,-3.1667,-3.1263,-3.0821,-3.0984,-3.0984,-3.0791,-3.1237,-3.1516,-3.1599,-3.1912,-3.218,-3.2417,-3.2381,-3.2704,-3.3269,-3.3486,-3.402,-3.4698,-3.4835,-3.5001,-3.5246,-3.5574,-3.5831,-3.6037,-3.6367,-3.6693,-3.6999,0.0,0.0,0.0,0.0,0.0,0.0,-2.1827,-2.1573,-2.142,0.0,0.0,0.0,-2.1928,-2.2526,-2.3229,-2.4134,-2.448,-2.4784,-2.5284,-2.5538,-2.5693,-2.5693,-2.5693,-2.5693,-2.5693,0.0,0.0,0.0,0.0,0.0,0.0,0.0,0.0,-2.62,-2.5664,-2.5255,-2.4957,-2.4016,-2.3613,-2.3539,-2.2742,-2.3133,-2.4217,-2.367,-2.4451,-2.5833,-2.6535,-2.7064,-2.7457,-2.7838,-2.8587,-2.9485,-3.0437,-3.1009,-3.1271,-3.1271,-3.0579,-2.9869,-2.9869,0.0,0.0,0.0,0.0,0.0,-3.0861,0.0,-3.1286,-3.168,-3.1877,-3.2036,-3.2182,-3.2218,-3.2277,-3.2561,-3.2561,-3.2632,-3.3037,-3.3382,-3.3377,-3.2787,-3.2254,-3.1668,-3.1087,-3.0691,-3.0703,0.0,-3.1537,-3.1809,-3.1996,-3.1496,-3.1161,-3.1014,-3.0821,-3.0582,-3.0294,-3.085,-3.1244,-3.1462,-3.1433,-3.1771,-3.2381,-3.2155,-3.225,-3.2668,-3.3037,-3.3493,-3.4094,-3.4549,-3.4916,-3.5213,-3.5457,-3.5653,-3.5816,-3.6148,-3.6445,-3.6677,0.0,0.0,0.0,0.0,0.0,-2.1522,-2.1522,-2.1326,-2.1121,0.0,0.0,0.0,-2.1674,-2.2426,-2.3229,-2.4035,-2.443,-2.4883,-2.543,-2.5586,-2.5693,-2.5693,-2.5693,-2.5732,-2.5868,-2.611,0.0,0.0,0.0,0.0,0.0,0.0,0.0,0.0,-2.6082,-2.5877,-2.5684,-2.4749,-2.4219,-2.3988,-2.3374,-2.3926,-2.5048,-2.4673,-2.5346,-2.6641,-2.7352,-2.7568,-2.7656,-2.8251,-2.9149,-3.0141,-3.0553,-3.1137,-3.1669,-3.144,-3.079,-3.0037,-2.9821,-2.931,-2.8934,-2.925,0.0,0.0,-3.0596,-3.0874,-3.1136,0.0,-3.1803,-3.1963,-3.2146,-3.2241,-3.2359,-3.2668,-3.2668,-3.2775,-3.3178,-3.3452,-3.3468,-3.3064,-3.2354,-3.1675,-3.1143,-3.0608,-3.0403,-3.0703,-3.1073,-3.1292,-3.1307,-3.0896,-3.0612,-3.0462,-3.028,-3.0225,-3.0279,-3.0857,-3.1251,-3.1451,-3.1539,-3.173,-3.2082,-3.184,-3.2009,-3.2417,-3.2739,-3.3164,-3.3632,-3.4196,-3.4716,-3.5082,-3.5294,-3.5572,-3.5863,-3.6116,-3.6367,-3.6631,0.0,0.0,-2.1674,-2.1674,-2.1471,-2.1275,-2.1275,-2.107,-2.0925,0.0,-2.0968,-2.1173,-2.1674,-2.2526,-2.3329,-2.4084,-2.4686,-2.5186,-2.5693,-2.5693,-2.5693,-2.5693,-2.5732,-2.5868,-2.6091,-2.6352,0.0,0.0,0.0,0.0,0.0,0.0,0.0,0.0,0.0,0.0,-2.6071,-2.5446,-2.4922,-2.4504,-2.4231,-2.4781,-2.5728,-2.5644,-2.633,-2.7402,-2.7987,-2.811,-2.8161,-2.881,-2.9625,-3.0295,-3.0005,-3.0666,-3.1452,-3.1043,-3.0458,-2.9893,-2.9424,-2.8948,-2.8618,-2.8803,-2.9145,0.0,-3.0203,-3.0634,-3.1061,0.0,-3.1817,-3.189,-3.2146,-3.23,-3.2453,-3.2704,-3.2881,-3.3143,-3.3501,-3.3605,-3.3496,-3.3264,-3.2402,-3.1673,-3.1311,-3.0704,-3.0321,-3.0397,-3.0805,-3.0894,-3.0443,-3.0291,-3.0045,-2.9732,-2.9645,-2.9866,-3.0451,-3.1035,-3.1382,-3.1457,-3.1892,-3.1936,-3.1683,-3.1646,-3.1913,-3.2381,-3.2561,-3.2881,-3.3269,-3.3736,-3.4283,-3.4868,-3.5115,-3.5492,-3.5973,-3.6116,-3.6367,-3.6693,0.0,0.0,-2.1623,-2.142,-2.1318,-2.1224,-2.1019,-2.0917,-2.0925,-2.0925,-2.1275,-2.1674,-2.1979,-2.3129,-2.4035,-2.4381,-2.5088,-2.5586,-2.5684,-2.5693,-2.5693,-2.5693,-2.5917,-2.6052,-2.61,-2.6352,-2.6602,0.0,0.0,0.0,0.0,0.0,0.0,0.0,0.0,0.0,-2.6091,-2.5732,-2.5508,-2.5372,-2.4483,-2.4631,-2.553,-2.5906,-2.6682,-2.7698,-2.8835,-2.8936,-2.8633,-2.914,-2.9312,-2.9475,-3.0397,-3.0579,-3.0458,-3.0783,-3.0194,-2.9436,-2.9328,-2.9149,-2.8973,-2.9013,-2.9341,0.0,-3.0062,-3.0228,-3.0457,-3.1061,-3.1174,-3.1397,-3.2059,-3.2205,-3.2372,-3.2846,-3.2988,-3.3072,-3.3312,-3.3501,-3.3597,-3.3539,-3.2902,-3.2477,-3.2397,-3.1203,-3.0619,-3.1013,-3.1369,-3.1447,-3.1201,-3.0967,-3.0717,-3.0496,-2.9918,-2.9771,-3.0095,-3.0704,-3.111,-3.1322,-3.1753,-3.2,-3.2073,-3.1927,-3.2,-3.2241,-3.2277,-3.2516,-3.2846,-3.2917,-3.3597,-3.4534,-3.5016,-3.5427,-3.5784,-3.5973,-3.6148,-3.6367,-2.1522,-2.1369,-2.1275,-2.1121,-2.1121,-2.107,-2.0925,-2.0925,-2.0925,-2.0925,-2.1471,-2.1971,-2.208,-2.3079,-2.3926,-2.443,-2.4883,-2.5284,-2.5684,-2.5693,-2.5693,-2.5693,-2.5965,-2.6149,-2.6294,-2.6544,-2.6842,-2.7081,0.0,0.0,0.0,0.0,0.0,0.0,0.0,-2.6294,-2.6245,-2.5878,-2.5693,-2.5654,-2.5111,-2.5253,-2.5763,-2.6049,-2.674,-2.7731,-2.8574,-2.8958,-2.8987,-2.8736,-2.8881,-2.9265,-2.9917,-3.0086,-3.0086,-3.0086,-2.9713,-2.9244,-2.8979,-2.8863,-2.8855,-2.9052,-2.9236,0.0,0.0,-3.0254,-3.0406,-3.1011,-3.1161,-3.1323,-3.1817,-3.2073,-3.2314,-3.2632,-3.2881,-3.3072,-3.3276,-3.3396,-3.3501,-3.3605,-3.2998,-3.2583,-3.2684,-3.1655,-3.1105,-3.1318,-3.1497,-3.1482,-3.1164,-3.1016,-3.0834,-3.0552,-2.9891,-2.9898,-3.0651,-3.0651,-3.1013,-3.1734,-3.1852,-3.2,-3.2182,-3.2,-3.2,-3.2218,-3.2218,-3.2314,-3.248,-3.2739,-3.3199,-3.377,-3.4501,-3.5067,-3.5494,-3.5863,-3.6163,-3.6414,-2.1224,-2.107,-2.0925,-2.0925,-2.0925,-2.0925,-2.0925,-2.0925,-2.0925,-2.0968,-2.1573,-2.2072,-2.2182,-2.2878,-2.3678,-2.4381,-2.4529,-2.4883,-2.5586,-2.5635,-2.5645,-2.5693,-2.6014,-2.6294,-2.6496,-2.6794,-2.7081,-2.7309,0.0,0.0,0.0,0.0,0.0,0.0,0.0,-2.64,-2.64,-2.5927,-2.5693,-2.5693,-2.5693,-2.5781,-2.5955,-2.61,-2.6754,-2.7568,-2.8125,-2.8768,-2.9237,-2.8234,-2.8448,-2.916,-2.9268,-2.952,-2.9725,-2.94,-2.9232,-2.9051,-2.8631,-2.851,-2.859,-2.8895,-2.9052,-2.9353,0.0,0.0,0.0,-3.1123,-3.1198,-3.1286,-3.1559,-3.1913,-3.2228,-3.2417,0.0,0.0,0.0,-3.329,0.0,-3.3536,-3.2959,-3.265,-3.28,-3.2134,-3.1626,-3.1499,-3.1564,-3.1453,-3.1074,-3.104,-3.0897,-3.0581,-2.9984,-3.0188,-3.1287,-3.0825,-3.111,-3.2218,-3.2036,-3.2036,-3.2182,-3.2036,-3.2036,-3.2218,-3.2218,-3.2218,-3.2241,-3.2682,-3.2846,-3.2952,-3.4011,-3.4754,-3.5267,-3.5799,-3.6195,-3.6554,-2.0976,-2.0925,-2.0925,-2.0925,-2.0925,-2.0925,-2.0925,-2.0925,-2.0976,-2.1224,-2.1522,-2.1928,-2.2375,-2.3179,-2.3786,-2.4134,-2.4578,-2.4981,-2.5333,-2.5342,-2.543,-2.5693,-2.6159,-2.6448,-2.6496,-2.7023,-2.7262,-2.7309,0.0,0.0,0.0,0.0,0.0,0.0,-2.639,-2.6149,-2.6149,-2.583,-2.5693,-2.5693,-2.5693,-2.5586,-2.5479,-2.6159,-2.6764,-2.7364,-2.8099,-2.8827,-2.9237,-2.8234,-2.8198,-2.8679,-2.9148,-2.9015,-2.8775,-2.9184,-2.8967,-2.8595,-2.8522,-2.851,-2.851,-2.855,-2.8961,-2.9457,-2.9716,0.0,-3.052,-3.0949,0.0,-3.0949,-3.1495,0.0,0.0,-3.2596,-3.3016,-3.3276,-3.329,-3.329,-3.3326,-3.3326,-3.3255,-3.3213,-3.3213,-3.2665,-3.2075,-3.1527,-3.1822,-3.1944,-3.1695,-3.1598,-3.1437,-3.1192,-3.0622,-3.0622,-3.1287,-3.1219,-3.1531,-3.2218,-3.2182,-3.2182,-3.2218,-3.2182,-3.2182,-3.2218,-3.2218,-3.2218,-3.2205,-3.2291,-3.2277,-3.2444,-3.3968,-3.481,-3.5267,-3.5799,-3.6195,-3.6523,-2.0925,-2.0925,-2.0925,-2.0925,-2.0925,-2.0925,-2.0925,-2.0925,-2.0917,-2.107,-2.1573,-2.2072,-2.2476,-2.3079,-2.3678,-2.4282,-2.4381,-2.4686,-2.5235,-2.5284,-2.544,-2.5693,-2.6217,-2.6496,-2.6496,-2.7023,-2.7309,-2.7309,-2.7309,0.0,0.0,0.0,0.0,0.0,-2.6592,-2.6342,-2.6294,-2.5878,-2.5693,-2.5693,-2.5693,-2.5917,-2.6197,-2.5907,-2.6267,-2.7117,-2.8187,-2.8722,-2.8856,-2.8279,-2.8271,-2.8546,-2.8775,-2.8691,-2.8558,-2.8775,-2.8691,-2.851,-2.851,-2.851,-2.855,-2.8657,-2.8882,-2.9223,-2.9819,-3.0101,-3.0381,-3.0911,0.0,0.0,0.0,0.0,0.0,0.0,-3.266,-3.3002,-3.3108,0.0,-3.329,-3.329,0.0,0.0,-3.329,-3.3087,-3.2834,-3.2567,-3.2591,-3.2542,-3.2317,-3.2154,-3.2003,-3.1852,-3.1232,-3.1205,-3.1802,-3.1463,-3.1585,-3.2218,-3.2218,-3.2218,-3.2218,-3.2218,-3.2218,-3.2218,-3.2218,-3.2218,-3.2218,-3.2218,-3.2218,-3.2314,-3.3395,-3.4206,-3.4762,-3.5415,-3.6022,-3.6523,-2.0925,-2.0925,-2.0925,-2.0925,-2.0925,-2.0925,-2.0925,-2.0925,-2.0925,-2.1019,-2.1573,-2.2173,-2.2677,-2.3079,-2.3628,-2.443,-2.4282,-2.439,-2.5039,-2.5137,-2.5333,-2.5586,-2.6159,-2.6496,-2.6496,-2.7023,-2.7309,-2.7309,-2.7309,0.0,0.0,0.0,0.0,0.0,-2.6832,-2.6554,-2.6448,-2.6024,-2.5781,-2.5693,-2.5693,-2.6089,-2.6628,-2.6295,-2.6603,-2.7382,-2.8269,-2.8584,-2.8551,-2.8305,-2.8339,0.0,-2.851,-2.851,-2.851,-2.851,-2.851,-2.851,-2.851,-2.851,-2.855,-2.8685,-2.8764,-2.8988,-2.9831,-3.0037,-3.0267,-3.0874,-3.0986,0.0,0.0,0.0,-3.172,-3.189,0.0,-3.2739,-3.2917,-3.3072,-3.3241,-3.3276,-3.329,0.0,0.0,-3.329,-3.329,-3.329,-3.3072,-3.2846,-3.2704,-3.2453,-3.23,-3.2218,-3.1762,-3.1748,-3.2218,-3.1762,-3.1762,-3.2218,-3.2218,-3.2218,-3.2218,-3.2218,-3.2218,-3.2218,-3.2218,-3.2218,-3.2218,-3.2218,-3.2205,-3.23,-3.2881,-3.3659,-3.4447,-3.5157,-3.5879,-3.6523,-2.0925,-2.0925,-2.0925,-2.0925,-2.0925,-2.0925,-2.0925,-2.0925,-2.0968,-2.1275,-2.1522,-2.2123,-2.3179,-2.3279,-2.3628,-2.443,-2.4291,-2.4301,-2.4538,-2.4784,-2.503,-2.5284,-2.6062,-2.6496,-2.6496,-2.7023,-2.7309,-2.7309,-2.7309,0.0,0.0,0.0,0.0,0.0,-2.6986,-2.6747,-2.6496,-2.6197,-2.5965,-2.5693,-2.5693,-2.5853,-2.6253,-2.7774,-2.8307,-2.8355,-2.8313,0.0,0.0,-2.8305,-2.8339,0.0,0.0,0.0,0.0,0.0,-2.851,-2.851,0.0,0.0,-2.851,-2.851,-2.8657,-2.8949,-2.9549,-2.9934,-3.0267,-3.0874,-3.0986,-3.0986,-3.0986,-3.1485,-3.189,-3.189,-3.2359,0.0,0.0,-3.2881,-3.3072,-3.329,-3.329,-3.329,0.0,-3.329,-3.329,-3.329,-3.2931,-3.2704,-3.2704,-3.2372,-3.2205,-3.2218,-3.2191,-3.2191,-3.2218,-3.2191,-3.2191,-3.2218,-3.2218,-3.2218,-3.2218,-3.2218,-3.2218,-3.2218,-3.2218,-3.2218,-3.2218,-3.2218,-3.2264,-3.2417,-3.2632,-3.3485,-3.4662,-3.519,-3.5879,-3.6492,-2.0925,-2.0925,-2.0925,-2.0925,-2.0925,-2.0925,-2.0925,-2.0925,-2.1019,-2.1275,-2.1224,-2.1573,-2.2627,-2.2778,-2.3129,-2.3945,-2.4152,-2.4301,-2.4489,-2.4482,-2.463,-2.4881,-2.5218,-2.5565,-2.6044,-2.6374,-2.68,-2.7309,-2.7309,0.0,0.0,0.0,0.0,0.0,0.0,-2.6747,-2.6496,-2.6197,-2.5788,-2.5321,-2.5545,-2.5706,-2.5885,0.0,-2.7381,-2.7445,-2.8207,-2.8339,0.0,-2.8331,-2.8431,-2.851,-2.851,-2.851,-2.851,-2.851,-2.851,-2.851,0.0,0.0,-2.851,-2.851,0.0,0.0,-2.951,-2.9793,-3.0075,-3.1011,-3.1099,-3.1061,-3.1336,-3.1559,-3.1743,-3.189,-3.2228,-3.2489,0.0,-3.281,-3.3072,-3.329,-3.329,-3.329,-3.329,-3.329,-3.3241,-3.3108,-3.2846,-3.2632,-3.2525,-3.23,-3.2218,-3.2218,-3.2218,-3.2146,-3.2,-3.2,-3.1927,-3.178,-3.178,-3.1853,-3.2,-3.2,-3.2073,-3.2218,-3.2218,-3.2218,-3.2218,-3.23,-3.2359,-3.2417,-3.2775,-3.3589,-3.4629,-3.4942,-3.5688,-3.6492,-2.0925,-2.0925,-2.0925,-2.0925,-2.0925,-2.0925,-2.0925,-2.0822,-2.0865,-2.1121,-2.0925,-2.1173,-2.2224,-2.2426,-2.2828,-2.3696,-2.4053,-2.4301,-2.4489,-2.4491,-2.464,-2.489,-2.5134,-2.5411,-2.5691,-2.6172,-2.6597,-2.6909,-2.7179,-2.7309,0.0,0.0,0.0,0.0,0.0,-2.6842,-2.6486,-2.623,-2.5752,-2.5114,-2.5077,-2.5233,0.0,0.0,-2.6476,-2.6978,0.0,-2.807,-2.7973,-2.8271,-2.8431,-2.851,-2.851,-2.851,-2.851,-2.851,-2.851,-2.851,-2.851,-2.851,0.0,-2.851,-2.851,0.0,-2.9523,0.0,-3.0101,-3.1073,-3.1198,-3.1211,-3.1535,-3.1609,-3.1683,-3.1853,-3.2119,-3.2359,0.0,-3.2668,-3.2952,-3.3086,-3.3206,-3.329,-3.329,-3.329,-3.3241,-3.3108,-3.2846,-3.2596,-3.2417,-3.2205,-3.2073,-3.2,-3.2,-3.1927,-3.178,-3.178,-3.172,-3.1609,-3.1609,-3.1683,-3.178,-3.1853,-3.1963,-3.2109,-3.2182,-3.2241,-3.2264,-3.2345,-3.2489,-3.2632,-3.2917,-3.3589,-3.4461,-3.4776,-3.5591,-3.6492,-2.0925,-2.0925,-2.0925,-2.0925,-2.0873,-2.0873,-2.0873,-2.0668,-2.0565,-2.0873,-2.0668,-2.0865,-2.1928,-2.2325,-2.2778,-2.3578,-2.3994,-2.4301,-2.4489,-2.4716,-2.5011,-2.5255,-2.5761,-2.5853,-2.5513,-2.636,-2.6645,-2.6207,-2.694,0.0,0.0,0.0,0.0,0.0,-2.7289,0.0,-2.6436,-2.6229,-2.5745,-2.4979,-2.4364,-2.4499,-2.5109,-2.4986,-2.5744,-2.6988,-2.7328,-2.7655,-2.7921,-2.8139,-2.8351,-2.8471,-2.851,-2.851,-2.851,-2.851,-2.851,-2.851,-2.851,-2.851,-2.851,-2.851,-2.851,0.0,0.0,0.0,-3.019,0.0,-3.1235,-3.1272,-3.1522,-3.1572,-3.1646,-3.1853,-3.2073,-3.2241,-3.2381,-3.2561,-3.2704,-3.2704,-3.3051,-3.329,-3.329,-3.329,-3.3276,-3.3276,-3.2895,-3.2596,-3.2417,-3.2096,-3.1817,-3.1609,-3.1609,-3.1609,-3.1609,-3.1609,-3.1559,-3.1572,-3.1572,-3.1572,-3.1596,-3.178,-3.189,-3.189,-3.2109,-3.2277,-3.2417,-3.2417,-3.2668,-3.2988,-3.3023,-3.3465,-3.4172,-3.4743,-3.5576,-3.6492,-2.0925,-2.0925,-2.0925,-2.0925,-2.0719,-2.0617,-2.0617,-2.0403,-2.03,-2.0565,-2.0351,-2.055,-2.142,-2.1928,-2.2426,-2.3029,-2.3795,-2.4301,-2.4489,-2.4453,-2.4583,-2.4833,-2.4837,-2.5041,-2.5503,-2.5717,-2.6161,-2.6717,-2.6935,0.0,-2.7309,0.0,0.0,0.0,0.0,-2.6464,-2.5973,-2.5633,-2.5011,-2.4335,-2.4013,-2.4002,-2.4252,0.0,-2.5571,-2.6006,-2.6761,-2.729,-2.7644,-2.8047,-2.8219,-2.8299,-2.8471,-2.851,-2.851,-2.851,-2.851,-2.851,-2.851,-2.851,-2.851,-2.851,-2.851,-2.863,0.0,0.0,0.0,0.0,0.0,0.0,0.0,-3.1037,-3.1149,-3.178,-3.2073,-3.2241,-3.2381,-3.2453,-3.2596,-3.2881,-3.3023,-3.3072,-3.3072,-3.3072,-3.3037,-3.286,-3.2632,-3.2431,-3.2277,0.0,-3.189,-3.1817,-3.1683,-3.1522,-3.1397,-3.1397,-3.1323,-3.1136,-3.1136,-3.1248,-3.1397,-3.1434,-3.1619,-3.189,-3.1963,-3.2119,-3.2417,-3.2561,-3.2775,-3.3023,-3.3157,-3.3597,-3.4206,-3.5154,-3.5752,-3.6163,-2.0925,-2.0925,-2.0925,-2.0925,-2.0565,-2.0351,-2.0462,-2.0248,-2.0138,-2.03,-2.0094,-2.0292,-2.1216,-2.1776,-2.2375,-2.3029,-2.3746,-2.435,-2.4637,-2.4617,-2.4736,-2.5141,-2.5042,-2.5067,-2.5315,-2.5597,-2.5954,-2.6405,-2.6751,-2.7034,-2.7309,0.0,0.0,0.0,0.0,-2.627,-2.5649,-2.4977,-2.4446,-2.3919,-2.3636,-2.358,0.0,-2.4391,-2.4988,-2.558,-2.6093,-2.6828,-2.7563,-2.7938,-2.8139,-2.8219,-2.8431,-2.851,-2.851,-2.851,-2.851,-2.851,-2.851,-2.851,-2.851,-2.851,-2.851,-2.863,-2.9013,-2.917,-2.9392,0.0,-2.9909,-3.0101,0.0,0.0,-3.1075,-3.178,-3.1927,-3.1986,-3.2155,-3.2322,-3.2453,-3.261,-3.2775,-3.2846,-3.2739,-3.2917,-3.2917,-3.2739,-3.2467,-3.2155,-3.1827,0.0,-3.1545,-3.1373,-3.1336,-3.1286,-3.1161,-3.1161,-3.1099,-3.0986,-3.0986,-3.1061,-3.1161,-3.136,-3.1545,-3.178,-3.1963,-3.2228,-3.2561,-3.2668,-3.2846,-3.3157,-3.3241,-3.3556,-3.4011,-3.499,-3.5591,-3.5926,-2.0925,-2.0925,-2.0925,-2.0925,-2.0506,-2.0241,-2.0411,-2.0197,-1.9983,-1.9983,-1.9828,-2.0086,-2.1062,-2.1776,-2.2426,-2.3129,-2.3795,-2.4399,-2.4883,-2.4883,-2.5137,-2.5684,-2.5693,-2.5557,-2.5213,-2.5758,-2.6018,-2.5913,-2.6506,-2.6955,-2.7216,0.0,0.0,0.0,0.0,0.0,0.0,-2.4416,-2.3919,-2.3711,-2.3406,-2.3363,-2.359,-2.3677,-2.4476,-2.558,-2.5569,-2.6404,-2.7522,-2.78,-2.803,-2.8179,-2.8431,-2.851,-2.851,-2.851,-2.851,-2.851,-2.851,-2.851,-2.851,-2.851,-2.851,-2.859,-2.8934,-2.9157,-2.938,-2.9729,-2.9806,-3.0063,0.0,0.0,-3.1248,-3.1817,-3.178,-3.1743,-3.189,-3.2191,-3.2322,-3.2241,-3.2467,0.0,-3.2453,-3.2704,-3.281,-3.2668,-3.2336,-3.1913,-3.1421,0.0,-3.1123,-3.0811,-3.0911,-3.0986,-3.0986,-3.0986,-3.0986,-3.0986,-3.0986,-3.0986,-3.1024,-3.1373,-3.1572,-3.1609,-3.2,-3.2372,-3.2704,-3.2704,-3.2931,-3.329,-3.329,-3.3396,-3.3675,-3.4491,-3.5121,-3.5688,-2.0925,-2.0925,-2.0925,-2.0925,-2.0617,-2.0351,-2.0189,-1.9732,-1.9428,-1.9428,-1.9783,-2.0078,-2.0285,-2.1564,-2.2476,-2.2627,-2.3596,-2.4399,-2.4883,-2.4883,-2.5137,-2.5684,-2.5693,-2.5654,-2.5625,-2.5693,-2.5984,-2.6386,-2.6514,-2.6639,-2.6739,0.0,0.0,0.0,0.0,0.0,-2.464,-2.4099,0.0,-2.359,-2.3894,-2.4024,-2.411,-2.4529,-2.5126,-2.5843,-2.6041,-2.658,-2.7301,-2.776,-2.7921,-2.8002,-2.8391,-2.851,-2.851,-2.851,-2.851,-2.851,-2.851,-2.851,-2.851,-2.851,-2.851,-2.851,-2.859,-2.863,-2.8657,-2.8736,-2.8776,-2.9,-2.9819,0.0,0.0,-3.1853,-3.2,-3.2109,-3.2146,-3.2205,-3.2277,-3.2359,-3.2417,-3.2489,-3.2632,-3.23,-3.2191,-3.2417,-3.1986,-3.1743,-3.178,0.0,-3.1272,0.0,-3.1061,0.0,0.0,0.0,-3.0986,-3.0986,-3.0986,-3.0986,-3.1024,-3.1235,-3.1434,-3.1609,-3.1853,-3.2241,-3.2704,-3.2704,-3.2931,-3.329,-3.329,-3.3326,-3.3417,-3.4031,-3.4576,-3.5187,-2.0925,-2.0925,-2.0873,-2.0719,-2.0462,-2.0197,-1.9931,-1.9576,-1.9279,-1.9279,-1.9532,-1.9939,-2.0652,-2.1412,-2.2224,-2.3088,-2.3696,-2.4242,-2.4883,-2.4883,-2.5137,-2.5684,-2.5693,-2.5693,-2.5693,-2.5508,-2.563,-2.6154,-2.5923,-2.5981,-2.6262,0.0,0.0,-2.5533,0.0,-2.4893,0.0,0.0,0.0,-2.3503,-2.359,-2.3624,-2.3711,-2.4305,-2.4946,-2.5591,-2.603,-2.6622,-2.7272,-2.7719,-2.7893,-2.7962,-2.8351,-2.851,-2.851,-2.851,-2.851,-2.851,-2.851,-2.851,-2.851,-2.851,-2.851,-2.851,-2.851,-2.851,-2.851,-2.851,-2.851,-2.8776,-2.969,-3.0659,0.0,0.0,0.0,-3.1927,-3.2036,-3.2146,-3.2205,-3.23,-3.23,-3.23,-3.23,-3.1863,-3.1803,-3.2264,-3.184,-3.1559,-3.1434,0.0,-3.1198,0.0,0.0,0.0,-3.0986,0.0,0.0,-3.0986,-3.0986,-3.0986,-3.1024,-3.1323,-3.1522,-3.1609,-3.1986,-3.2359,-3.2704,-3.2931,-3.3136,-3.329,-3.329,-3.329,-3.3347,-3.3894,-3.4322,-3.4773,-2.0712,-2.0712,-2.066,-2.0462,-2.0197,-1.9931,-1.9732,-1.948,-1.9279,-1.9279,-1.9376,-1.9939,-2.107,-2.142,-2.2131,-2.3596,-2.3805,-2.4156,-2.4711,-2.476,-2.4965,-2.5411,-2.5411,-2.5411,-2.5411,-2.5107,-2.5167,-2.5598,-2.5394,-2.5447,-2.5706,-2.5937,0.0,0.0,0.0,0.0,0.0,0.0,-2.346,-2.3406,-2.3232,-2.3188,-2.3232,-2.3831,-2.4551,-2.5327,-2.5821,-2.6498,-2.7272,-2.7679,-2.7841,-2.7962,-2.8351,-2.851,-2.851,-2.851,-2.851,-2.851,-2.851,-2.851,-2.851,-2.851,-2.851,-2.851,-2.851,-2.851,-2.851,-2.851,-2.859,-2.8895,-2.9845,-3.052,0.0,0.0,0.0,-3.172,-3.1927,-3.2109,-3.2218,-3.2218,-3.2218,-3.2109,-3.1927,-3.1582,-3.1582,-3.2036,-3.1743,-3.1447,-3.1211,-3.1323,-3.1211,0.0,0.0,-3.1061,-3.0986,0.0,-3.0986,-3.0986,-3.0986,-3.0986,-3.1024,-3.141,-3.1609,-3.1646,-3.2178,-3.2561,-3.281,-3.3157,-3.329,-3.329,-3.329,-3.329,-3.3347,-3.3756,-3.4147,-3.4501,-2.0181,-2.0181,-2.0189,-2.0138,-1.9931,-1.9732,-1.968,-1.948,-1.9279,-1.9279,-1.9732,-2.0241,-2.0865,-2.1827,-2.2686,-2.3397,-2.3904,-2.4193,-2.4363,-2.4382,-2.4402,-2.4514,-2.4541,-2.4541,-2.4541,-2.4492,-2.4621,-2.4907,-2.5451,-2.5498,-2.5006,-2.6032,0.0,0.0,0.0,0.0,0.0,-2.3736,-2.3363,-2.3144,-2.3363,-2.346,-2.346,-2.3547,-2.4348,-2.5454,-2.5327,-2.6124,-2.7231,-2.7441,-2.7708,-2.7962,-2.8351,-2.851,-2.851,-2.851,-2.851,-2.851,-2.851,-2.851,-2.851,-2.851,-2.851,-2.851,-2.851,-2.851,-2.851,-2.851,-2.8788,-2.9236,-2.9883,-3.0406,-3.0999,0.0,0.0,0.0,-3.2146,-3.2182,-3.2218,-3.2218,-3.2218,-3.2109,-3.1927,-3.1706,-3.1609,-3.1646,-3.1434,-3.1471,-3.1817,-3.1669,-3.1485,-3.1235,-3.1272,-3.1161,-3.0986,-3.0986,-3.0986,-3.0986,-3.0986,-3.0986,-3.1024,-3.141,-3.1609,-3.1646,-3.2178,-3.2632,-3.2988,-3.3206,-3.329,-3.329,-3.329,-3.329,-3.3326,-3.3347,-3.3799,-3.4467,-2.0078,-2.0078,-2.0034,-1.9879,-1.9776,-1.9628,0.0,-1.9383,-1.9279,-1.9279,-1.948,-1.9939,-2.0822,-2.1428,-2.2232,-2.3297,-2.3755,-2.3978,-2.4066,-2.4086,-2.4032,-2.397,-2.4137,-2.4239,-2.4239,-2.4078,-2.4124,-2.4405,-2.4665,-2.4811,-2.489,0.0,0.0,0.0,0.0,-2.4097,-2.4182,-2.3506,-2.3188,-2.3101,-2.3232,-2.3276,-2.3319,-2.3744,-2.4509,-2.5369,-2.5695,-2.6415,-2.7231,-2.7441,-2.7696,-2.7973,-2.8231,-2.8379,-2.851,-2.851,-2.851,-2.851,-2.851,-2.851,-2.851,-2.851,-2.851,-2.851,-2.851,-2.851,-2.851,-2.851,-2.863,-2.8895,-2.9353,-2.9703,-3.0165,-3.0898,0.0,0.0,0.0,-3.168,-3.1827,-3.1827,-3.2059,-3.2073,-3.1743,-3.1646,-3.1559,-3.1434,-3.136,-3.1384,-3.1545,-3.1596,0.0,-3.131,0.0,-3.136,-3.1161,-3.1161,-3.1123,-3.0986,-3.0986,-3.1061,-3.1198,-3.1485,-3.1853,-3.2286,-3.2596,-3.2931,-3.3192,-3.3276,-3.329,-3.329,-3.329,-3.329,-3.329,-3.329,-3.3556,-3.3971,-1.9879,-1.9879,-1.9835,-1.9628,-1.9576,-1.9532,-1.9331,-1.9279,-1.9242,-1.9147,-1.9133,-1.9538,-2.0613,-2.0961,-2.1619,-2.2911,-2.3296,-2.3475,-2.355,-2.3569,-2.3476,-2.3331,-2.3496,0.0,-2.3734,-2.358,-2.3594,-2.3816,-2.4034,0.0,0.0,0.0,0.0,0.0,-2.3919,-2.3747,-2.3851,-2.3315,-2.3091,-2.3091,-2.3091,-2.3091,-2.3178,-2.3907,-2.4637,-2.5285,-2.5946,-2.6622,-2.7231,-2.7371,-2.7586,-2.7829,-2.8099,-2.8339,-2.851,-2.851,-2.851,-2.851,-2.851,-2.851,-2.851,-2.851,-2.851,-2.851,-2.851,-2.851,-2.851,-2.851,-2.851,-2.863,-2.9013,-2.9236,-2.9535,-3.0292,0.0,0.0,0.0,-3.1235,-3.1482,-3.1593,-3.1863,-3.1913,-3.1646,-3.1609,-3.1485,-3.1235,-3.1198,-3.1272,-3.1397,0.0,0.0,0.0,0.0,0.0,-3.1198,-3.1272,-3.1198,-3.0986,-3.0986,-3.1061,-3.1235,-3.1559,-3.2059,-3.2704,-3.2917,-3.3108,-3.329,-3.329,-3.329,-3.329,-3.329,-3.329,-3.329,-3.329,-3.3431,-3.3675,-1.9331,-1.9331,-1.9331,-1.9331,-1.9279,-1.9279,-1.9279,-1.9279,-1.9162,-1.884,-1.8796,-1.9194,-2.0184,-2.0526,-2.1122,-2.2125,-2.247,-2.2636,-2.2694,-2.2712,-2.2616,0.0,0.0,-2.2539,-2.2813,-2.2813,-2.2891,-2.3101,0.0,0.0,-2.3523,0.0,-2.4381,-2.4212,-2.4202,-2.3777,-2.3101,-2.3091,-2.3091,-2.3091,-2.3091,-2.3091,-2.3178,-2.3907,-2.4637,-2.5285,-2.5946,-2.6622,-2.719,-2.719,-2.733,-2.7603,-2.8059,-2.8339,-2.851,-2.851,-2.851,-2.851,-2.851,-2.851,-2.851,-2.851,-2.851,-2.851,-2.851,-2.851,-2.851,-2.851,-2.851,-2.863,-2.9013,-2.9091,-2.9404,-3.0254,0.0,0.0,0.0,-3.0986,-3.1161,-3.1556,-3.1593,-3.1606,-3.1596,-3.1609,-3.141,0.0,0.0,0.0,0.0,0.0,0.0,-3.131,-3.1485,0.0,-3.1024,-3.1198,-3.1198,-3.0986,-3.0986,-3.0986,-3.1024,-3.1633,-3.2191,-3.2704,-3.2917,-3.3108,-3.329,-3.329,-3.329,-3.329,-3.329,-3.329,-3.329,-3.329,-3.3431,-3.3675,-1.9279,-1.9279,-1.9279,-1.9279,-1.9279,-1.9279,-1.9279,-1.9089,-1.8906,-1.8803,-1.8591,-1.862,-1.9079,-1.9933,-2.0711,0.0,-2.2176,-2.2478,0.0,-2.2327,-2.2289,-2.1928,-2.2097,-2.223,-2.2318,-2.2441,-2.2662,-2.2891,0.0,0.0,0.0,-2.4088,-2.3999,-2.3438,-2.3438,-2.3315,-2.3091,-2.3091,-2.3091,-2.3091,-2.3091,-2.3091,-2.3135,-2.3353,-2.4166,-2.5242,-2.5443,-2.6249,-2.719,-2.719,-2.733,-2.7522,-2.7684,-2.7898,-2.8122,-2.8271,-2.8299,-2.8351,-2.8471,-2.851,-2.851,-2.851,-2.851,-2.851,-2.851,-2.851,-2.851,-2.851,-2.851,-2.855,-2.8669,-2.8709,-2.8816,-2.9236,-2.9314,0.0,-2.9677,0.0,-3.0177,-3.0279,-3.0558,-3.0797,-3.0962,-3.0999,0.0,0.0,0.0,0.0,0.0,0.0,0.0,0.0,-3.1485,0.0,-3.141,-3.1323,-3.1272,-3.1198,-3.1061,-3.1211,-3.1633,-3.2046,-3.2503,-3.2917,-3.3122,-3.3241,-3.329,-3.329,-3.329,-3.329,-3.329,-3.329,-3.329,-3.329,-3.3431,-3.364,-1.9279,-1.9279,-1.9279,-1.9279,-1.9279,-1.9235,-1.9111,-1.8921,-1.8701,-1.846,-1.8247,-1.8096,-1.8098,-1.8916,0.0,-2.0579,-2.1415,-2.1867,-2.1771,-2.1889,-2.1862,-2.1705,-2.1874,-2.2008,-2.2097,-2.223,0.0,-2.2803,-2.3142,-2.3357,-2.3545,-2.3732,-2.3541,-2.3091,-2.3091,-2.3091,-2.3091,-2.3091,-2.3091,-2.3091,-2.3091,-2.3091,-2.3135,-2.3396,-2.4209,-2.5242,-2.5485,-2.629,-2.719,-2.719,-2.726,-2.7412,-2.7412,-2.7505,-2.7719,-2.8099,-2.8259,-2.8339,-2.8471,-2.851,-2.851,-2.851,-2.851,-2.851,-2.851,-2.851,-2.851,-2.851,-2.851,-2.851,-2.851,-2.851,-2.8578,-2.8764,-2.8791,-2.8882,-2.9052,0.0,-2.9523,-2.9665,-2.9935,-3.0228,0.0,-3.0698,-3.0773,0.0,0.0,0.0,0.0,0.0,0.0,-3.1198,-3.136,-3.1447,-3.1373,-3.1397,-3.1323,-3.1198,-3.1123,-3.1397,-3.189,-3.225,-3.2632,-3.3023,-3.3206,-3.329,-3.329,-3.329,-3.329,-3.329,-3.329,-3.3361,-3.3396,-3.3396,-3.3536,-3.3744,-1.9279,-1.9279,-1.9279,-1.9279,-1.9279,-1.9169,-1.884,-1.8767,-1.8525,-1.7896,-1.7794,-1.7662,-1.7315,-1.78,-1.855,-1.97,0.0,0.0,-2.1302,-2.1392,-2.1482,-2.1651,-2.1687,-2.183,-2.2052,-2.2097,-2.2318,-2.2803,-2.3013,-2.3091,-2.3091,-2.3091,-2.3091,-2.3091,-2.3091,-2.3091,-2.3091,-2.3091,-2.3091,-2.3091,-2.3091,-2.3091,-2.3178,-2.3864,-2.4551,-2.5232,-2.5904,-2.6539,-2.7149,-2.719,-2.719,-2.719,-2.719,-2.7231,-2.7342,-2.7978,-2.8259,-2.8431,-2.8431,-2.8471,-2.8471,-2.8471,-2.8471,-2.8471,-2.851,-2.851,-2.851,-2.851,-2.851,-2.851,-2.851,-2.851,-2.8538,-2.8764,-2.8803,-2.8843,-2.9013,-2.9052,-2.9197,-2.9549,0.0,0.0,-3.0571,-3.0622,-3.0723,0.0,0.0,0.0,0.0,0.0,-3.0882,-3.0934,-3.1108,-3.1145,-3.0959,-3.1347,-3.141,-3.1061,-3.1235,-3.1545,-3.1963,-3.2286,-3.2632,-3.3023,-3.3241,-3.329,-3.329,-3.329,-3.329,-3.329,-3.329,-3.3396,-3.357,-3.3605,-3.3709,-3.3931,0.0,0.0,-1.9279,-1.9279,-1.9279,-1.9169,-1.884,-1.8577,-1.8277,-1.7867,-1.7604,-1.7366,-1.7286,-1.78,-1.8226,-1.8496,-1.9471,-2.0292,-2.0843,-2.1212,-2.1446,-2.1482,-2.1607,-2.1741,-2.1776,-2.2008,-2.2318,-2.2803,-2.3013,-2.3091,-2.3091,-2.3091,-2.3091,-2.3091,-2.3091,-2.3091,-2.3091,-2.3091,-2.3091,-2.3091,-2.3091,-2.3091,-2.3135,-2.3309,-2.382,-2.4498,-2.5189,-2.5863,-2.6487,-2.7015,-2.719,-2.719,-2.719,-2.7301,-2.7441,-2.7603,-2.7684,-2.7765,-2.8002,-2.8042,-2.8042,-2.8042,-2.8151,-2.8299,-2.8471,-2.851,-2.851,-2.851,-2.851,-2.851,-2.851,-2.851,-2.851,-2.8538,-2.8578,-2.859,-2.863,-2.863,-2.8669,-2.8776,-2.8764,-2.9079,-2.9871,-2.9947,-3.0228,0.0,0.0,0.0,-3.0296,-2.9915,-2.9876,-3.0283,-3.037,-3.0443,-3.0553,-3.1098,-3.1397,-3.1447,-3.1669,-3.195,-3.2286,-3.2525,-3.286,-3.3241,-3.3276,-3.329,-3.329,-3.329,-3.329,-3.329,-3.329,-3.3326,-3.3396,-3.3536,-3.3709,-3.3931,-1.9279,-1.9279,-1.9279,-1.9279,-1.9279,-1.9118,-1.8642,-1.8416,-1.813,-1.7655,-1.7388,-1.7279,-1.7279,-1.7567,-1.7846,-1.8087,-1.9096,-1.9928,-2.0292,-2.0798,-2.1114,-2.1195,-2.1428,-2.1562,-2.1562,-2.1785,-2.2097,-2.2495,-2.2662,-2.2828,-2.2969,-2.2969,-2.3013,-2.3091,-2.3091,-2.3091,-2.3091,-2.3091,-2.3091,-2.3091,-2.3091,-2.3091,-2.3091,-2.3091,-2.356,-2.4241,-2.4594,-2.5189,-2.5863,-2.6498,-2.6745,-2.6798,-2.7097,-2.726,-2.7371,-2.7371,-2.7493,-2.7696,-2.7841,-2.7893,-2.7921,-2.8002,-2.8099,-2.8259,-2.8471,-2.851,-2.851,-2.851,-2.851,-2.851,-2.851,-2.851,-2.851,-2.851,-2.851,-2.851,-2.851,-2.851,-2.851,-2.851,-2.851,-2.8803,-2.9626,-2.9704,-2.9961,-3.0533,-3.0283,0.0,-2.9758,-2.9196,-2.9261,-3.0074,-3.01,-3.0291,-3.0664,-3.1003,-3.136,-3.1743,-3.1743,-3.1986,-3.2417,-3.2596,-3.2931,-3.329,-3.329,-3.329,-3.329,-3.329,-3.329,-3.329,-3.329,-3.3361,-3.3466,-3.364,-3.3848,-3.4005,-1.9279,-1.9279,-1.9279,-1.9279,-1.9279,-1.906,-1.8401,-1.8299,-1.8064,-1.7366,-1.7279,-1.7279,-1.7279,-1.7279,-1.7466,-1.7939,-1.8812,-1.9509,-1.9837,-2.0292,-2.069,-2.0952,-2.1203,-2.1347,-2.1392,-2.1651,-2.1874,-2.2141,-2.2309,-2.253,-2.2759,-2.2759,-2.2838,-2.3013,-2.3057,-2.3047,-2.3057,-2.3101,-2.3091,-2.3091,-2.3091,-2.3091,-2.3091,-2.3091,-2.3474,-2.4036,-2.4166,-2.4551,-2.5147,-2.5821,-2.6113,-2.6321,-2.688,-2.7108,-2.719,-2.719,-2.7476,-2.7812,-2.7812,-2.7812,-2.7841,-2.8059,-2.8099,-2.8179,-2.8391,-2.8471,-2.8471,-2.851,-2.851,-2.851,-2.851,-2.851,-2.851,-2.851,-2.851,-2.851,-2.851,0.0,-2.851,-2.851,-2.851,-2.8803,-2.9523,-2.9564,-2.9631,-2.998,-2.9858,-2.9581,-2.9205,-2.8569,-2.8791,-2.9931,-2.997,-3.032,-3.1048,-3.1061,-3.1323,-3.1853,-3.1743,-3.1913,-3.2395,-3.2632,-3.2931,-3.3241,-3.329,-3.329,-3.329,-3.329,-3.329,-3.329,-3.329,-3.3396,-3.357,-3.3793,-3.3951,-3.4108,-1.9279,-1.9279,-1.9279,-1.9279,-1.9279,-1.906,-1.8401,-1.8299,-1.8064,-1.7366,-1.7279,-1.7279,-1.7279,-1.7279,-1.7326,-1.7426,-1.7986,-1.8727,-1.96,-1.9874,-2.0246,-2.0744,-2.0961,-2.115,-2.1392,-2.1839,-2.2141,-2.2353,-2.2397,-2.2441,-2.2441,-2.2441,-2.2485,-2.252,-2.275,-2.2847,-2.2838,-2.3013,-2.3091,-2.3091,-2.3091,-2.3091,-2.3091,-2.3091,-2.3178,-2.3353,-2.3993,-2.4294,-2.4456,-2.5147,-2.5737,-2.6238,-2.6321,-2.6745,-2.719,-2.719,-2.7272,-2.7313,-2.7313,-2.7313,-2.7342,-2.7563,-2.7603,-2.7725,-2.8139,-2.8259,-2.8299,-2.8471,-2.851,-2.851,-2.851,-2.851,-2.851,-2.851,-2.851,-2.851,-2.851,0.0,-2.851,-2.851,-2.851,-2.8657,-2.917,-2.8778,-2.8824,-2.9535,-2.8697,-2.8247,-2.8529,-2.7968,-2.8203,-2.9379,-2.9418,-3.0023,-3.1222,-3.1235,-3.1397,-3.1646,-3.1963,-3.2132,-3.2241,-3.2739,-3.2988,-3.3072,-3.3241,-3.329,-3.329,-3.329,-3.329,-3.329,-3.329,-3.3326,-3.3361,-3.357,-3.3793,-3.3951,-1.9279,-1.9279,-1.9279,-1.9279,-1.9279,-1.906,-1.8401,-1.8299,-1.8064,-1.7366,-1.7279,-1.7279,-1.7279,-1.7279,-1.7279,-1.7279,-1.752,-1.7986,-1.8727,-1.9371,-1.9828,-2.0102,-2.06,-2.1015,-2.1392,-2.1616,-2.183,-2.1998,-2.1998,-2.2087,-2.223,-2.223,-2.2309,-2.2388,-2.2662,-2.2803,-2.2794,-2.3013,-2.3091,-2.3091,-2.3091,-2.3091,-2.3091,-2.3091,-2.3091,-2.3135,-2.3474,-2.3604,-2.3734,-2.4423,-2.4882,-2.5263,-2.5977,-2.6404,-2.6715,-2.7097,-2.719,-2.719,-2.719,-2.719,-2.726,-2.7441,-2.7522,-2.7644,-2.8099,-2.8219,-2.8259,-2.8471,-2.851,-2.851,-2.851,-2.851,-2.851,-2.851,-2.851,0.0,-2.851,-2.851,-2.851,-2.851,-2.851,-2.8669,-2.9052,-2.86,-2.8424,-2.8733,-2.7972,-2.7551,-2.7657,-2.7385,-2.7854,-2.9284,-2.9912,-3.0561,-3.131,-3.1198,-3.136,-3.1743,-3.1853,-3.2023,-3.2336,-3.2561,-3.281,-3.3023,-3.3108,-3.3206,-3.329,-3.329,-3.329,-3.329,-3.329,-3.329,-3.3361,-3.364,-3.3827,-3.3931,-1.9227,-1.9116,-1.9116,-1.9175,-1.9227,-1.9008,-1.8401,-1.8299,-1.8064,-1.7366,-1.7279,-1.7279,-1.7279,-1.7279,-1.7279,-1.7279,-1.7279,-1.7466,-1.7893,-1.8773,-1.9363,-1.9592,-2.0329,-2.0888,-2.1212,-2.1347,-2.1482,-2.1607,-2.1696,-2.183,-2.2008,-2.2008,-2.2132,-2.2353,-2.2574,-2.2759,-2.2794,-2.3013,-2.3091,-2.3091,-2.3091,-2.3091,-2.3091,-2.3091,-2.3091,-2.3091,-2.3091,-2.3091,-2.3178,-2.3734,-2.4079,-2.4413,-2.5558,-2.6019,-2.6279,-2.6921,-2.7149,-2.719,-2.719,-2.719,-2.726,-2.7441,-2.7522,-2.7644,-2.8099,-2.8219,-2.8259,-2.8471,-2.851,-2.851,-2.851,-2.851,-2.851,-2.851,0.0,-2.851,-2.851,-2.851,-2.851,-2.851,-2.851,-2.8581,-2.8763,-2.8301,-2.7914,-2.7777,-2.7299,-2.6927,-2.685,-2.6871,-2.7533,-2.8986,-3.0312,-3.1099,-3.131,-3.1099,-3.1286,-3.1817,-3.1683,-3.184,-3.2286,-3.2345,-3.2596,-3.2917,-3.2988,-3.3108,-3.329,-3.329,-3.329,-3.329,-3.329,-3.329,-3.3361,-3.364,-3.3827,-3.3931,-1.8928,-1.8698,-1.8534,-1.8869,-1.8928,-1.8809,-1.8351,-1.8299,-1.8064,-1.7366,-1.7279,-1.7279,-1.7279,-1.7279,-1.7279,-1.7279,-1.7279,-1.7326,-1.738,-1.7893,-1.8635,-1.9546,-2.0329,-2.0699,-2.0744,-2.1167,-2.1401,-2.1446,-2.1607,-2.1687,-2.1741,-2.1741,-2.1874,-2.2141,-2.2353,-2.2574,-2.2794,-2.3013,-2.3091,-2.3091,-2.3091,-2.3091,-2.3091,-2.3091,-2.3091,-2.3091,-2.3091,-2.3091,-2.3091,-2.3178,-2.3647,-2.4294,-2.4807,-2.5401,-2.6071,-2.6715,-2.7067,-2.719,-2.719,-2.719,-2.726,-2.7441,-2.7522,-2.7644,-2.8099,-2.8219,-2.8259,-2.8471,-2.851,-2.851,-2.851,-2.851,-2.851,-2.851,0.0,0.0,-2.851,-2.851,-2.851,-2.851,-2.851,-2.8318,-2.7864,-2.7296,-2.6953,-2.6808,-2.6314,-2.6144,-2.6427,-2.6449,-2.6977,-2.8145,-3.0015,-3.1099,-3.131,-3.1099,-3.1211,-3.1609,-3.1609,-3.172,-3.1963,-3.225,-3.2525,-3.2739,-3.2917,-3.3108,-3.329,-3.329,-3.329,-3.329,-3.329,-3.329,-3.329,-3.3326,-3.357,-3.3896,-1.8646,-1.8482,-1.8422,-1.8593,-1.8757,-1.8706,-1.816,-1.8207,-1.8064,-1.7366,-1.7279,-1.7279,-1.7279,-1.7279,-1.7279,-1.7279,-1.7279,-1.7279,-1.7279,-1.7473,-1.8032,-1.905,-1.9691,-2.0056,-2.0201,-2.0699,-2.1114,-2.1392,-2.1482,-2.1562,-2.1696,-2.1696,-2.183,-2.2097,-2.2309,-2.253,-2.2794,-2.3013,-2.3091,-2.3091,-2.3091,-2.3091,-2.3091,-2.3091,-2.3091,-2.3091,-2.3091,-2.3091,-2.3091,-2.3091,-2.3309,-2.3614,-2.4251,-2.485,-2.5485,-2.6426,-2.685,-2.7015,-2.7015,-2.7108,-2.726,-2.7441,-2.7522,-2.7644,-2.8099,-2.8219,-2.8259,-2.8471,-2.851,-2.851,-2.851,-2.851,-2.851,-2.851,0.0,-2.851,-2.851,-2.851,-2.851,-2.851,-2.8222,-2.7906,-2.7702,-2.6923,-2.6371,-2.6348,-2.5839,-2.5676,-2.6072,-2.6951,-2.7821,-2.8549,-2.9921,-3.0672,-3.0748,-3.0672,-3.0898,-3.1434,-3.1522,-3.172,-3.189,-3.2169,-3.2359,-3.2525,-3.2739,-3.2931,-3.3108,-3.3241,-3.329,-3.329,-3.329,-3.329,-3.3326,-3.3431,-3.357,-3.3709,-1.8325,-1.8213,-1.816,-1.8272,-1.8436,-1.8447,-1.786,-1.791,-1.7828,-1.7178,-1.7091,-1.7091,-1.7091,-1.7145,-1.7192,-1.7192,-1.7286,-1.7279,-1.7279,-1.7279,-1.766,-1.855,-1.905,-1.9509,-1.9791,-2.0246,-2.0699,-2.1293,-2.1347,-2.1482,-2.1696,-2.1696,-2.183,-2.2097,-2.2309,-2.253,-2.2794,-2.3013,-2.3091,-2.3091,-2.3091,-2.3091,-2.3091,-2.3091,-2.3091,-2.3091,-2.3091,-2.3091,-2.3091,-2.3091,-2.3091,-2.3222,-2.3864,-2.4466,-2.5073,-2.5999,-2.6467,-2.6715,-2.685,-2.7067,-2.726,-2.7441,-2.7522,-2.7603,-2.8018,-2.8111,-2.8151,-2.8271,-2.8351,-2.8431,-2.8431,-2.8471,-2.851,-2.851,-2.851,-2.851,-2.851,-2.851,-2.845,-2.8282,-2.7906,-2.7546,-2.7248,-2.6538,-2.6021,-2.5865,-2.5516,-2.549,-2.5932,-2.6917,-2.773,-2.825,-2.8963,-2.9378,-2.9479,-3.0227,-3.0861,-3.1397,-3.1485,-3.1596,-3.1817,-3.2,-3.2205,-3.2359,-3.2525,-3.2775,-3.3023,-3.3157,-3.3241,-3.329,-3.329,-3.329,-3.3326,-3.3536,-3.3605,-3.364,-1.8016,-1.7799,-1.7687,-1.7964,-1.8016,-1.7863,-1.7553,-1.7505,-1.7281,-1.6665,-1.6588,-1.6588,-1.6588,-1.6831,-1.6979,-1.6979,-1.72,-1.7279,-1.7279,-1.7279,-1.752,-1.8087,-1.855,-1.905,-1.9592,-1.9791,-2.0238,-2.0988,-2.1248,-2.1482,-2.1696,-2.1696,-2.183,-2.2097,-2.2309,-2.253,-2.2794,-2.3013,-2.3091,-2.3091,-2.3091,-2.3091,-2.3091,-2.3091,-2.3091,-2.3091,-2.3091,-2.3091,-2.3091,-2.3091,-2.3091,-2.3178,-2.3657,-2.4305,-2.4988,-2.5359,-2.5821,-2.6279,-2.6757,-2.7026,-2.7219,-2.7441,-2.7522,-2.7563,-2.7841,-2.7893,-2.7893,-2.7893,-2.807,-2.8219,-2.8219,-2.8339,-2.851,-2.851,-2.851,-2.851,-2.851,-2.851,-2.8318,-2.775,-2.7678,-2.7296,-2.6202,-2.6093,-2.5877,-2.5348,-2.5312,-2.554,-2.6069,-2.6093,-2.6358,-2.6873,-2.6898,-2.7099,-2.7508,-2.9816,-3.1174,-3.1596,-3.1384,-3.1397,-3.1609,-3.1817,-3.2,-3.2218,-3.2322,-3.2632,-3.2988,-3.2988,-3.3108,-3.329,-3.329,-3.329,-3.3326,-3.3536,-3.3605,-3.364,-1.7747,-1.7635,-1.7635,-1.7694,-1.7735,-1.7623,-1.7275,-1.7232,-1.7092,-1.6637,-1.6588,-1.6588,-1.6588,-1.6683,-1.6784,-1.6979,-1.7066,-1.7153,-1.7286,-1.7279,-1.7372,-1.752,-1.8032,-1.8357,-1.8542,-1.9279,-1.9874,-2.0238,-2.0826,-2.1239,-2.1482,-2.1651,-2.183,-2.2097,-2.2141,-2.2318,-2.253,-2.2574,-2.2608,-2.2608,-2.2608,-2.2706,-2.2882,-2.2882,-2.2969,-2.3091,-2.3091,-2.3091,-2.3091,-2.3091,-2.3091,-2.3178,-2.3657,-2.396,-2.4219,-2.468,-2.5221,-2.5737,-2.5874,-2.6343,-2.6891,-2.736,-2.7522,-2.7563,-2.7841,-2.7893,-2.7893,-2.7893,-2.7962,-2.8002,-2.8002,-2.8151,-2.8299,-2.8299,-2.8431,-2.851,-2.851,-2.851,-2.845,-2.8294,-2.7906,-2.7414,-2.6717,-2.6322,-2.5877,-2.5348,-2.5312,-2.554,-2.6069,-2.6093,-2.6358,-2.6873,-2.7173,-2.7372,-2.7508,-2.8899,-2.9816,-3.0201,-3.1101,-3.1522,-3.1609,-3.1963,-3.2146,-3.2218,-3.2322,-3.2561,-3.281,-3.2952,-3.3108,-3.329,-3.329,-3.329,-3.3326,-3.3361,-3.3466,-3.3605,-1.7635,-1.7582,-1.7582,-1.7582,-1.7504,-1.7316,-1.7011,-1.6861,-1.6649,-1.634,-1.6298,-1.6298,-1.6298,-1.64,-1.6501,-1.665,-1.6885,-1.7113,-1.7286,-1.7279,-1.7279,-1.7279,-1.7613,-1.7893,-1.8087,-1.8681,-1.9279,-1.9882,-2.0464,-2.097,-2.1392,-2.1607,-2.1785,-2.1963,-2.2052,-2.2185,-2.2264,-2.2353,-2.2397,-2.2397,-2.2397,-2.2485,-2.2618,-2.2618,-2.2794,-2.2969,-2.2969,-2.3013,-2.3091,-2.3091,-2.2984,-2.2891,-2.3193,-2.3279,-2.3395,-2.4029,-2.4594,-2.502,-2.52,-2.5664,-2.6166,-2.6734,-2.7033,-2.7208,-2.7342,-2.7394,-2.7394,-2.7476,-2.7586,-2.7667,-2.7748,-2.7909,-2.8111,-2.8179,-2.8299,-2.8431,-2.8471,-2.851,-2.8426,-2.8222,-2.7921,-2.7474,-2.6946,-2.6418,-2.5877,-2.5348,-2.5312,-2.554,-2.6069,-2.5901,-2.6033,-2.6586,-2.659,-2.6615,-2.6615,-2.7606,-2.841,-2.9043,-2.9991,-3.0585,-3.0832,-3.1105,-3.1384,-3.1622,-3.1629,-3.1732,-3.1908,-3.2048,-3.2257,-3.2478,-3.2478,-3.2666,-3.296,-3.3085,-3.3358,-3.364,-1.7582,-1.7582,-1.7582,-1.7582,-1.7373,-1.7072,-1.6747,-1.644,-1.6139,-1.5818,-1.5784,-1.5784,-1.5784,-1.6028,-1.6177,-1.6224,-1.665,-1.7019,-1.7232,-1.7239,-1.7239,-1.7239,-1.7239,-1.7473,-1.7947,-1.804,-1.8635,-1.9791,-2.011,-2.0654,-2.1347,-2.1562,-2.1696,-2.1687,-2.1963,-2.2052,-2.2097,-2.2264,-2.2353,-2.2353,-2.2353,-2.2353,-2.2397,-2.2388,-2.2574,-2.2803,-2.2803,-2.2896,-2.3033,-2.2994,-2.273,-2.2461,-2.2461,-2.2461,-2.2614,-2.3395,-2.3869,-2.419,-2.4628,-2.4956,-2.5232,-2.5684,-2.6082,-2.6467,-2.6592,-2.6644,-2.6685,-2.6891,-2.7085,-2.7267,-2.7441,-2.7708,-2.7921,-2.8099,-2.8179,-2.8219,-2.8431,-2.8471,-2.8266,-2.775,-2.7678,-2.745,-2.6873,-2.6358,-2.5829,-2.5348,-2.5312,-2.5516,-2.5997,-2.5576,-2.5528,-2.6009,-2.5564,-2.5312,-2.5312,-2.6139,-2.7086,-2.8058,-2.852,-2.8995,-2.9544,-2.9662,-3.0069,-3.0619,-3.0427,-3.0473,-3.0712,-3.0712,-3.0902,-3.1163,-3.1163,-3.1626,-3.2314,-3.2624,-3.307,-3.3589,-1.7582,-1.7582,-1.7582,-1.7582,-1.7148,-1.678,-1.6714,-1.6259,-1.5905,-1.5791,-1.5784,-1.5784,-1.5784,-1.5832,-1.5981,-1.617,-1.6501,-1.673,-1.677,-1.677,-1.677,-1.677,-1.677,-1.6817,-1.6911,-1.7707,-1.8411,-1.9058,-1.97,-2.0374,-2.1096,-2.1338,-2.1571,-2.1696,-2.1785,-2.1785,-2.1776,-2.183,-2.1865,-2.1865,-2.1865,-2.1963,-2.2185,-2.2353,-2.2574,-2.2803,-2.2969,-2.2843,-2.2598,-2.2266,-2.21,-2.2021,-2.2021,-2.2021,-2.2083,-2.2254,-2.2856,-2.3454,-2.3539,-2.408,-2.4669,-2.4797,-2.4882,-2.5306,-2.655,-2.685,-2.6891,-2.7097,-2.7179,-2.7219,-2.726,-2.7452,-2.7603,-2.7644,-2.7817,-2.8042,-2.8219,-2.8259,-2.8108,-2.775,-2.7678,-2.7306,-2.637,-2.5793,-2.5432,-2.5312,-2.5312,-2.536,-2.548,-2.5372,-2.536,-2.548,-2.5372,-2.5312,-2.5312,-2.5491,-2.6067,-2.7037,-2.8147,-2.8751,-2.8903,-2.9252,-2.9619,-3.0006,-2.9942,-3.0227,-3.0712,-3.0712,-3.0801,-3.0962,-3.0962,-3.1092,-3.1237,-3.1473,-3.2033,-3.2809,-1.7582,-1.7582,-1.7582,-1.7582,-1.7094,-1.6707,-1.6707,-1.6206,-1.5784,-1.5784,-1.5784,-1.5784,-1.5784,-1.5784,-1.5927,-1.6177,-1.6312,-1.6447,-1.6581,-1.6588,-1.6588,-1.6588,-1.6588,-1.6588,-1.6588,-1.7099,-1.766,-1.8257,-1.8996,-1.9729,-2.051,-2.1114,-2.1482,-2.1562,-2.1651,-2.1696,-2.1696,-2.1696,-2.1696,-2.1696,-2.1696,-2.1874,-2.2097,-2.223,-2.2485,-2.2775,-2.2703,-2.2493,-2.2148,-2.1719,-2.1582,-2.1582,-2.1582,-2.1582,-2.1611,-2.1826,-2.2207,-2.2593,-2.2593,-2.291,-2.3323,-2.3512,-2.3728,-2.4292,-2.5735,-2.6082,-2.626,-2.6809,-2.6891,-2.6974,-2.7149,-2.7301,-2.7412,-2.7482,-2.7615,-2.7788,-2.803,-2.7845,-2.7664,-2.7547,-2.7334,-2.6894,-2.6178,-2.5841,-2.5576,-2.5324,-2.5312,-2.5312,-2.5312,-2.5312,-2.5312,-2.5312,-2.5312,-2.5312,-2.5312,-2.5312,-2.5551,-2.6043,-2.6943,-2.7538,-2.7885,-2.8112,-2.8486,-2.8978,-2.8805,-2.9005,-2.945,-2.945,-2.9623,-2.9907,-2.9907,-3.0119,-3.05,-3.0797,-3.1453,-3.2312,-1.7582,-1.7582,-1.7582,-1.7582,-1.7094,-1.6707,-1.6707,-1.6206,-1.5784,-1.5784,-1.5784,-1.5784,-1.5784,-1.5784,-1.5879,-1.6123,-1.613,-1.6218,-1.6447,-1.644,-1.644,-1.644,-1.644,-1.644,-1.644,-1.644,-1.6857,-1.7645,-1.8288,-1.8988,-1.9737,-2.0708,-2.1167,-2.1248,-2.1517,-2.1651,-2.1696,-2.1696,-2.1696,-2.1696,-2.1696,-2.183,-2.2052,-2.2097,-2.2315,-2.2553,-2.2217,-2.1945,-2.1658,-2.1229,-2.1123,-2.1123,-2.1123,-2.1123,-2.1151,-2.1553,-2.1709,-2.1777,-2.1777,-2.1826,-2.1999,-2.2288,-2.2762,-2.3372,-2.4577,-2.501,-2.5411,-2.6302,-2.6467,-2.6633,-2.7067,-2.7149,-2.7219,-2.74,-2.7441,-2.7499,-2.7683,-2.7324,-2.705,-2.7079,-2.6669,-2.6244,-2.6009,-2.5961,-2.5781,-2.5336,-2.5312,-2.5312,-2.5312,-2.5312,-2.5312,-2.5312,-2.5312,-2.5312,-2.5312,-2.5312,-2.5312,-2.5312,-2.5676,-2.6202,-2.6822,-2.6848,-2.7242,-2.7872,-2.7564,-2.7669,-2.8112,-2.8112,-2.8373,-2.878,-2.878,-2.9177,-2.9859,-3.0359,-3.1079,-3.184,-1.7477,-1.7582,-1.7582,-1.7582,-1.7094,-1.6707,-1.6707,-1.6206,-1.5784,-1.5784,-1.5784,-1.5784,-1.5784,-1.5784,-1.5832,-1.5832,-1.5832,-1.5879,-1.5927,-1.5927,-1.5927,-1.5927,-1.5927,-1.5927,-1.5927,-1.5927,-1.6393,-1.7372,-1.7692,-1.8241,-1.898,-1.9737,-2.0337,-2.0727,-2.1203,-2.1526,-2.1696,-2.1696,-2.1696,-2.1696,-2.1696,-2.1741,-2.1785,-2.2008,-2.1917,-2.1667,-2.1802,-2.1492,-2.0989,-2.0761,-2.0693,-2.0693,-2.0693,-2.0693,-2.0703,-2.0762,-2.1016,-2.1278,-2.1278,-2.1592,-2.1926,-2.1958,-2.2281,-2.2742,-2.3352,-2.425,-2.5147,-2.5863,-2.5988,-2.6196,-2.6809,-2.6933,-2.7026,-2.7219,-2.7219,-2.7151,-2.6964,-2.6876,-2.657,-2.5908,-2.5514,-2.5326,-2.5385,-2.542,-2.5384,-2.5312,-2.5312,-2.5312,-2.5312,-2.5312,-2.5312,-2.5312,-2.5312,-2.5312,-2.5312,-2.5312,-2.5312,-2.5312,-2.5535,-2.5795,-2.6044,-2.6226,-2.6606,-2.7156,-2.71,-2.7456,-2.8112,-2.8112,-2.8308,-2.8619,-2.8619,-2.877,-2.9068,-3.0012,-3.0604,-3.1048,-1.7054,-1.7371,-1.7528,-1.742,-1.6987,-1.6653,-1.6486,-1.6106,-1.5784,-1.5784,-1.5784,-1.5784,-1.5784,-1.5784,-1.5784,-1.5784,-1.5784,-1.5784,-1.5784,-1.5784,-1.5784,-1.5784,-1.5784,-1.5784,-1.5784,-1.5784,-1.6015,-1.644,-1.7138,-1.7738,-1.8195,-1.9088,-1.9737,-2.0238,-2.0736,-2.115,-2.1526,-2.1651,-2.1696,-2.1696,-2.1696,-2.1785,-2.1891,-2.1836,-2.1717,-2.1631,-2.1254,-2.0778,-2.0346,-2.0234,-2.0294,-2.0459,-2.0692,-2.0849,-2.0986,-2.123,-2.1445,-2.1592,-2.1592,-2.1738,-2.1885,-2.1885,-2.2197,-2.2552,-2.2764,-2.321,-2.3883,-2.5045,-2.5304,-2.5604,-2.635,-2.6699,-2.6985,-2.719,-2.699,-2.6766,-2.6667,-2.6124,-2.5602,-2.5176,-2.5123,-2.5147,-2.5276,-2.5312,-2.5312,-2.5312,-2.5312,-2.5312,-2.5312,-2.5312,-2.5312,-2.5312,-2.5312,-2.5312,-2.5312,-2.5312,-2.5312,-2.5312,-2.5382,-2.5606,-2.591,-2.6097,-2.6499,-2.7007,-2.7007,-2.7423,-2.8112,-2.8112,-2.8308,-2.8587,-2.8587,-2.8683,-2.8885,-2.9421,-2.9788,-3.0084]}]]